<?xml version="1.0" encoding="UTF-8" standalone="no" ?>
<gpx xmlns="http://www.topografix.com/GPX/1/1" creator="www.cicloide.com" version="1.1" xmlns:xsi="http://www.w3.org/2001/XMLSchema-instance" xsi:schemaLocation="http://www.topografix.com/GPX/1/1 http://www.topografix.com/GPX/1/1/gpx.xsd">
  <trk>
    <name>www.cicloide.com 133962</name>
    <desc>www.cicloide.com 133962</desc>
    <trkseg>
      <trkpt lat="41.606548790" lon="2.540839560">
        <ele>127.99</ele>
        <time>2016-02-28T06:32:06Z</time>
      </trkpt>
      <trkpt lat="41.606551800" lon="2.540832600">
        <ele>127.99</ele>
        <time>2016-02-28T06:32:07Z</time>
      </trkpt>
      <trkpt lat="41.606558760" lon="2.540823630">
        <ele>127.99</ele>
        <time>2016-02-28T06:32:10Z</time>
      </trkpt>
      <trkpt lat="41.606560940" lon="2.540822790">
        <ele>127.99</ele>
        <time>2016-02-28T06:32:11Z</time>
      </trkpt>
      <trkpt lat="41.606580220" lon="2.540818100">
        <ele>127.99</ele>
        <time>2016-02-28T06:32:24Z</time>
      </trkpt>
      <trkpt lat="41.606586920" lon="2.540810890">
        <ele>127.99</ele>
        <time>2016-02-28T06:32:27Z</time>
      </trkpt>
      <trkpt lat="41.606600080" lon="2.540794290">
        <ele>127.99</ele>
        <time>2016-02-28T06:32:36Z</time>
      </trkpt>
      <trkpt lat="41.606652390" lon="2.540791690">
        <ele>127.99</ele>
        <time>2016-02-28T06:32:43Z</time>
      </trkpt>
      <trkpt lat="41.606828660" lon="2.540856990">
        <ele>127.99</ele>
        <time>2016-02-28T06:32:50Z</time>
      </trkpt>
      <trkpt lat="41.606932510" lon="2.540890520">
        <ele>129.43</ele>
        <time>2016-02-28T06:32:54Z</time>
      </trkpt>
      <trkpt lat="41.607174490" lon="2.540944920">
        <ele>129.92</ele>
        <time>2016-02-28T06:33:03Z</time>
      </trkpt>
      <trkpt lat="41.607438270" lon="2.540988500">
        <ele>130.40</ele>
        <time>2016-02-28T06:33:12Z</time>
      </trkpt>
      <trkpt lat="41.607634580" lon="2.540937370">
        <ele>131.36</ele>
        <time>2016-02-28T06:33:19Z</time>
      </trkpt>
      <trkpt lat="41.607838430" lon="2.540935440">
        <ele>131.84</ele>
        <time>2016-02-28T06:33:26Z</time>
      </trkpt>
      <trkpt lat="41.608082760" lon="2.540825050">
        <ele>131.36</ele>
        <time>2016-02-28T06:33:33Z</time>
      </trkpt>
      <trkpt lat="41.608219970" lon="2.540795380">
        <ele>131.36</ele>
        <time>2016-02-28T06:33:38Z</time>
      </trkpt>
      <trkpt lat="41.608390790" lon="2.540726060">
        <ele>131.36</ele>
        <time>2016-02-28T06:33:45Z</time>
      </trkpt>
      <trkpt lat="41.608502440" lon="2.540712070">
        <ele>131.84</ele>
        <time>2016-02-28T06:33:51Z</time>
      </trkpt>
      <trkpt lat="41.608643510" lon="2.540696810">
        <ele>131.84</ele>
        <time>2016-02-28T06:33:57Z</time>
      </trkpt>
      <trkpt lat="41.608795640" lon="2.540620280">
        <ele>132.32</ele>
        <time>2016-02-28T06:34:03Z</time>
      </trkpt>
      <trkpt lat="41.609009460" lon="2.540583240">
        <ele>133.76</ele>
        <time>2016-02-28T06:34:10Z</time>
      </trkpt>
      <trkpt lat="41.609226470" lon="2.540564880">
        <ele>133.76</ele>
        <time>2016-02-28T06:34:18Z</time>
      </trkpt>
      <trkpt lat="41.609367960" lon="2.540596980">
        <ele>134.24</ele>
        <time>2016-02-28T06:34:25Z</time>
      </trkpt>
      <trkpt lat="41.609500310" lon="2.540600080">
        <ele>134.72</ele>
        <time>2016-02-28T06:34:31Z</time>
      </trkpt>
      <trkpt lat="41.609623440" lon="2.540597650">
        <ele>135.20</ele>
        <time>2016-02-28T06:34:37Z</time>
      </trkpt>
      <trkpt lat="41.609761150" lon="2.540587600">
        <ele>135.68</ele>
        <time>2016-02-28T06:34:43Z</time>
      </trkpt>
      <trkpt lat="41.609841360" lon="2.540576780">
        <ele>135.68</ele>
        <time>2016-02-28T06:34:47Z</time>
      </trkpt>
      <trkpt lat="41.610083350" lon="2.540449710">
        <ele>136.64</ele>
        <time>2016-02-28T06:34:56Z</time>
      </trkpt>
      <trkpt lat="41.610326930" lon="2.540304790">
        <ele>138.09</ele>
        <time>2016-02-28T06:35:05Z</time>
      </trkpt>
      <trkpt lat="41.610554660" lon="2.540138910">
        <ele>138.57</ele>
        <time>2016-02-28T06:35:12Z</time>
      </trkpt>
      <trkpt lat="41.610761610" lon="2.540030110">
        <ele>139.53</ele>
        <time>2016-02-28T06:35:19Z</time>
      </trkpt>
      <trkpt lat="41.610976780" lon="2.539931040">
        <ele>140.01</ele>
        <time>2016-02-28T06:35:27Z</time>
      </trkpt>
      <trkpt lat="41.611157740" lon="2.539811260">
        <ele>141.45</ele>
        <time>2016-02-28T06:35:32Z</time>
      </trkpt>
      <trkpt lat="41.611316500" lon="2.539723250">
        <ele>141.45</ele>
        <time>2016-02-28T06:35:38Z</time>
      </trkpt>
      <trkpt lat="41.611430490" lon="2.539654520">
        <ele>141.93</ele>
        <time>2016-02-28T06:35:43Z</time>
      </trkpt>
      <trkpt lat="41.611564850" lon="2.539530550">
        <ele>142.41</ele>
        <time>2016-02-28T06:35:49Z</time>
      </trkpt>
      <trkpt lat="41.611645650" lon="2.539435170">
        <ele>142.89</ele>
        <time>2016-02-28T06:35:54Z</time>
      </trkpt>
      <trkpt lat="41.611671970" lon="2.539399460">
        <ele>142.89</ele>
        <time>2016-02-28T06:35:57Z</time>
      </trkpt>
      <trkpt lat="41.611673650" lon="2.539394850">
        <ele>143.37</ele>
        <time>2016-02-28T06:35:59Z</time>
      </trkpt>
      <trkpt lat="41.611820080" lon="2.539208940">
        <ele>144.34</ele>
        <time>2016-02-28T06:36:07Z</time>
      </trkpt>
      <trkpt lat="41.612049740" lon="2.538872910">
        <ele>144.82</ele>
        <time>2016-02-28T06:36:14Z</time>
      </trkpt>
      <trkpt lat="41.612150910" lon="2.538682890">
        <ele>145.78</ele>
        <time>2016-02-28T06:36:20Z</time>
      </trkpt>
      <trkpt lat="41.612345040" lon="2.538413250">
        <ele>146.26</ele>
        <time>2016-02-28T06:36:27Z</time>
      </trkpt>
      <trkpt lat="41.612564140" lon="2.538144860">
        <ele>147.70</ele>
        <time>2016-02-28T06:36:36Z</time>
      </trkpt>
      <trkpt lat="41.612743600" lon="2.537927930">
        <ele>148.66</ele>
        <time>2016-02-28T06:36:44Z</time>
      </trkpt>
      <trkpt lat="41.613004280" lon="2.537634990">
        <ele>149.62</ele>
        <time>2016-02-28T06:36:55Z</time>
      </trkpt>
      <trkpt lat="41.613235870" lon="2.537369700">
        <ele>149.62</ele>
        <time>2016-02-28T06:37:05Z</time>
      </trkpt>
      <trkpt lat="41.613478440" lon="2.537058810">
        <ele>151.06</ele>
        <time>2016-02-28T06:37:16Z</time>
      </trkpt>
      <trkpt lat="41.613610710" lon="2.536791600">
        <ele>152.03</ele>
        <time>2016-02-28T06:37:24Z</time>
      </trkpt>
      <trkpt lat="41.613622360" lon="2.536753960">
        <ele>152.03</ele>
        <time>2016-02-28T06:37:25Z</time>
      </trkpt>
      <trkpt lat="41.613649100" lon="2.536567890">
        <ele>152.51</ele>
        <time>2016-02-28T06:37:30Z</time>
      </trkpt>
      <trkpt lat="41.613685560" lon="2.536463110">
        <ele>153.47</ele>
        <time>2016-02-28T06:37:33Z</time>
      </trkpt>
      <trkpt lat="41.613832490" lon="2.536174190">
        <ele>153.95</ele>
        <time>2016-02-28T06:37:42Z</time>
      </trkpt>
      <trkpt lat="41.613853360" lon="2.536104950">
        <ele>152.99</ele>
        <time>2016-02-28T06:37:44Z</time>
      </trkpt>
      <trkpt lat="41.613973560" lon="2.535785180">
        <ele>153.95</ele>
        <time>2016-02-28T06:37:53Z</time>
      </trkpt>
      <trkpt lat="41.614060980" lon="2.535552170">
        <ele>154.43</ele>
        <time>2016-02-28T06:38:00Z</time>
      </trkpt>
      <trkpt lat="41.614135670" lon="2.535286880">
        <ele>154.91</ele>
        <time>2016-02-28T06:38:07Z</time>
      </trkpt>
      <trkpt lat="41.614217720" lon="2.535011700">
        <ele>157.31</ele>
        <time>2016-02-28T06:38:15Z</time>
      </trkpt>
      <trkpt lat="41.614268520" lon="2.534846240">
        <ele>155.87</ele>
        <time>2016-02-28T06:38:20Z</time>
      </trkpt>
      <trkpt lat="41.614366000" lon="2.534540640">
        <ele>157.31</ele>
        <time>2016-02-28T06:38:29Z</time>
      </trkpt>
      <trkpt lat="41.614469600" lon="2.534181470">
        <ele>159.72</ele>
        <time>2016-02-28T06:38:39Z</time>
      </trkpt>
      <trkpt lat="41.614537490" lon="2.533933960">
        <ele>160.20</ele>
        <time>2016-02-28T06:38:46Z</time>
      </trkpt>
      <trkpt lat="41.614621150" lon="2.533635900">
        <ele>161.64</ele>
        <time>2016-02-28T06:38:54Z</time>
      </trkpt>
      <trkpt lat="41.614731620" lon="2.533296510">
        <ele>163.08</ele>
        <time>2016-02-28T06:39:03Z</time>
      </trkpt>
      <trkpt lat="41.614856430" lon="2.532878930">
        <ele>164.04</ele>
        <time>2016-02-28T06:39:14Z</time>
      </trkpt>
      <trkpt lat="41.614983490" lon="2.532468630">
        <ele>164.52</ele>
        <time>2016-02-28T06:39:25Z</time>
      </trkpt>
      <trkpt lat="41.615074520" lon="2.532066300">
        <ele>165.48</ele>
        <time>2016-02-28T06:39:35Z</time>
      </trkpt>
      <trkpt lat="41.615111240" lon="2.531769580">
        <ele>165.96</ele>
        <time>2016-02-28T06:39:43Z</time>
      </trkpt>
      <trkpt lat="41.615124390" lon="2.531435730">
        <ele>166.93</ele>
        <time>2016-02-28T06:39:51Z</time>
      </trkpt>
      <trkpt lat="41.615114250" lon="2.531190810">
        <ele>167.89</ele>
        <time>2016-02-28T06:39:57Z</time>
      </trkpt>
      <trkpt lat="41.615163290" lon="2.530774150">
        <ele>168.85</ele>
        <time>2016-02-28T06:40:07Z</time>
      </trkpt>
      <trkpt lat="41.615202680" lon="2.530484220">
        <ele>169.33</ele>
        <time>2016-02-28T06:40:14Z</time>
      </trkpt>
      <trkpt lat="41.615178040" lon="2.530126640">
        <ele>171.25</ele>
        <time>2016-02-28T06:40:23Z</time>
      </trkpt>
      <trkpt lat="41.615186340" lon="2.529794470">
        <ele>172.21</ele>
        <time>2016-02-28T06:40:31Z</time>
      </trkpt>
      <trkpt lat="41.615175020" lon="2.529492640">
        <ele>172.69</ele>
        <time>2016-02-28T06:40:39Z</time>
      </trkpt>
      <trkpt lat="41.615190780" lon="2.529093160">
        <ele>174.62</ele>
        <time>2016-02-28T06:40:49Z</time>
      </trkpt>
      <trkpt lat="41.615240740" lon="2.528811270">
        <ele>175.10</ele>
        <time>2016-02-28T06:40:56Z</time>
      </trkpt>
      <trkpt lat="41.615321700" lon="2.528462750">
        <ele>175.58</ele>
        <time>2016-02-28T06:41:05Z</time>
      </trkpt>
      <trkpt lat="41.615390860" lon="2.528151620">
        <ele>176.06</ele>
        <time>2016-02-28T06:41:13Z</time>
      </trkpt>
      <trkpt lat="41.615460680" lon="2.527841650">
        <ele>177.02</ele>
        <time>2016-02-28T06:41:21Z</time>
      </trkpt>
      <trkpt lat="41.615496970" lon="2.527539740">
        <ele>177.98</ele>
        <time>2016-02-28T06:41:29Z</time>
      </trkpt>
      <trkpt lat="41.615565620" lon="2.527247710">
        <ele>178.94</ele>
        <time>2016-02-28T06:41:37Z</time>
      </trkpt>
      <trkpt lat="41.615603920" lon="2.526980920">
        <ele>180.38</ele>
        <time>2016-02-28T06:41:44Z</time>
      </trkpt>
      <trkpt lat="41.615602160" lon="2.526683610">
        <ele>181.35</ele>
        <time>2016-02-28T06:41:52Z</time>
      </trkpt>
      <trkpt lat="41.615571820" lon="2.526445400">
        <ele>181.83</ele>
        <time>2016-02-28T06:41:58Z</time>
      </trkpt>
      <trkpt lat="41.615477940" lon="2.526214220">
        <ele>182.31</ele>
        <time>2016-02-28T06:42:05Z</time>
      </trkpt>
      <trkpt lat="41.615460430" lon="2.526190250">
        <ele>182.31</ele>
        <time>2016-02-28T06:42:06Z</time>
      </trkpt>
      <trkpt lat="41.615469900" lon="2.526036190">
        <ele>182.79</ele>
        <time>2016-02-28T06:42:10Z</time>
      </trkpt>
      <trkpt lat="41.615519430" lon="2.525714160">
        <ele>183.75</ele>
        <time>2016-02-28T06:42:17Z</time>
      </trkpt>
      <trkpt lat="41.615506780" lon="2.525404950">
        <ele>184.23</ele>
        <time>2016-02-28T06:42:24Z</time>
      </trkpt>
      <trkpt lat="41.615527150" lon="2.525171100">
        <ele>184.71</ele>
        <time>2016-02-28T06:42:30Z</time>
      </trkpt>
      <trkpt lat="41.615559250" lon="2.524864570">
        <ele>186.15</ele>
        <time>2016-02-28T06:42:38Z</time>
      </trkpt>
      <trkpt lat="41.615580290" lon="2.524528040">
        <ele>187.59</ele>
        <time>2016-02-28T06:42:47Z</time>
      </trkpt>
      <trkpt lat="41.615622530" lon="2.524131150">
        <ele>189.04</ele>
        <time>2016-02-28T06:42:57Z</time>
      </trkpt>
      <trkpt lat="41.615631670" lon="2.523879780">
        <ele>190.96</ele>
        <time>2016-02-28T06:43:04Z</time>
      </trkpt>
      <trkpt lat="41.615662930" lon="2.523598570">
        <ele>191.44</ele>
        <time>2016-02-28T06:43:11Z</time>
      </trkpt>
      <trkpt lat="41.615722360" lon="2.523221550">
        <ele>191.92</ele>
        <time>2016-02-28T06:43:20Z</time>
      </trkpt>
      <trkpt lat="41.615759320" lon="2.522952660">
        <ele>192.88</ele>
        <time>2016-02-28T06:43:27Z</time>
      </trkpt>
      <trkpt lat="41.615827050" lon="2.522689800">
        <ele>193.84</ele>
        <time>2016-02-28T06:43:34Z</time>
      </trkpt>
      <trkpt lat="41.615858230" lon="2.522404150">
        <ele>195.77</ele>
        <time>2016-02-28T06:43:42Z</time>
      </trkpt>
      <trkpt lat="41.615900810" lon="2.522074650">
        <ele>196.73</ele>
        <time>2016-02-28T06:43:50Z</time>
      </trkpt>
      <trkpt lat="41.615948670" lon="2.521703750">
        <ele>197.69</ele>
        <time>2016-02-28T06:43:59Z</time>
      </trkpt>
      <trkpt lat="41.615984800" lon="2.521371580">
        <ele>198.17</ele>
        <time>2016-02-28T06:44:07Z</time>
      </trkpt>
      <trkpt lat="41.616039950" lon="2.521128340">
        <ele>198.65</ele>
        <time>2016-02-28T06:44:13Z</time>
      </trkpt>
      <trkpt lat="41.616074900" lon="2.520864470">
        <ele>199.13</ele>
        <time>2016-02-28T06:44:20Z</time>
      </trkpt>
      <trkpt lat="41.616079680" lon="2.520822730">
        <ele>199.13</ele>
        <time>2016-02-28T06:44:21Z</time>
      </trkpt>
      <trkpt lat="41.616111700" lon="2.520619720">
        <ele>199.61</ele>
        <time>2016-02-28T06:44:27Z</time>
      </trkpt>
      <trkpt lat="41.616130810" lon="2.520554680">
        <ele>199.61</ele>
        <time>2016-02-28T06:44:29Z</time>
      </trkpt>
      <trkpt lat="41.616285960" lon="2.520163410">
        <ele>201.05</ele>
        <time>2016-02-28T06:44:39Z</time>
      </trkpt>
      <trkpt lat="41.616369360" lon="2.520032240">
        <ele>199.61</ele>
        <time>2016-02-28T06:44:43Z</time>
      </trkpt>
      <trkpt lat="41.616401460" lon="2.519997530">
        <ele>199.61</ele>
        <time>2016-02-28T06:44:44Z</time>
      </trkpt>
      <trkpt lat="41.616506820" lon="2.519899630">
        <ele>199.13</ele>
        <time>2016-02-28T06:44:48Z</time>
      </trkpt>
      <trkpt lat="41.616657360" lon="2.519827970">
        <ele>199.13</ele>
        <time>2016-02-28T06:44:55Z</time>
      </trkpt>
      <trkpt lat="41.616743020" lon="2.519793180">
        <ele>200.57</ele>
        <time>2016-02-28T06:44:59Z</time>
      </trkpt>
      <trkpt lat="41.616953750" lon="2.519722780">
        <ele>202.01</ele>
        <time>2016-02-28T06:45:07Z</time>
      </trkpt>
      <trkpt lat="41.617168740" lon="2.519691760">
        <ele>203.46</ele>
        <time>2016-02-28T06:45:15Z</time>
      </trkpt>
      <trkpt lat="41.617383990" lon="2.519668040">
        <ele>203.94</ele>
        <time>2016-02-28T06:45:23Z</time>
      </trkpt>
      <trkpt lat="41.617585910" lon="2.519640970">
        <ele>204.90</ele>
        <time>2016-02-28T06:45:31Z</time>
      </trkpt>
      <trkpt lat="41.617794110" lon="2.519640460">
        <ele>205.86</ele>
        <time>2016-02-28T06:45:41Z</time>
      </trkpt>
      <trkpt lat="41.617812550" lon="2.519647340">
        <ele>205.86</ele>
        <time>2016-02-28T06:45:46Z</time>
      </trkpt>
      <trkpt lat="41.617808700" lon="2.519683300">
        <ele>207.30</ele>
        <time>2016-02-28T06:45:55Z</time>
      </trkpt>
      <trkpt lat="41.617810880" lon="2.519691850">
        <ele>207.30</ele>
        <time>2016-02-28T06:45:56Z</time>
      </trkpt>
      <trkpt lat="41.617874080" lon="2.519758230">
        <ele>207.30</ele>
        <time>2016-02-28T06:46:03Z</time>
      </trkpt>
      <trkpt lat="41.617894190" lon="2.519786810">
        <ele>207.30</ele>
        <time>2016-02-28T06:46:06Z</time>
      </trkpt>
      <trkpt lat="41.617904760" lon="2.519954200">
        <ele>207.30</ele>
        <time>2016-02-28T06:46:14Z</time>
      </trkpt>
      <trkpt lat="41.617899220" lon="2.519975740">
        <ele>207.78</ele>
        <time>2016-02-28T06:46:15Z</time>
      </trkpt>
      <trkpt lat="41.617812220" lon="2.520081190">
        <ele>208.74</ele>
        <time>2016-02-28T06:46:22Z</time>
      </trkpt>
      <trkpt lat="41.617711470" lon="2.520164840">
        <ele>211.15</ele>
        <time>2016-02-28T06:46:29Z</time>
      </trkpt>
      <trkpt lat="41.617690430" lon="2.520229960">
        <ele>212.59</ele>
        <time>2016-02-28T06:46:32Z</time>
      </trkpt>
      <trkpt lat="41.617714910" lon="2.520467510">
        <ele>214.99</ele>
        <time>2016-02-28T06:46:43Z</time>
      </trkpt>
      <trkpt lat="41.617712560" lon="2.520516540">
        <ele>214.99</ele>
        <time>2016-02-28T06:46:45Z</time>
      </trkpt>
      <trkpt lat="41.617662180" lon="2.520694070">
        <ele>214.99</ele>
        <time>2016-02-28T06:46:54Z</time>
      </trkpt>
      <trkpt lat="41.617702330" lon="2.520889960">
        <ele>214.99</ele>
        <time>2016-02-28T06:47:02Z</time>
      </trkpt>
      <trkpt lat="41.617752880" lon="2.521058930">
        <ele>215.95</ele>
        <time>2016-02-28T06:47:09Z</time>
      </trkpt>
      <trkpt lat="41.617844990" lon="2.521324470">
        <ele>217.88</ele>
        <time>2016-02-28T06:47:20Z</time>
      </trkpt>
      <trkpt lat="41.617891930" lon="2.521541150">
        <ele>219.80</ele>
        <time>2016-02-28T06:47:30Z</time>
      </trkpt>
      <trkpt lat="41.617974490" lon="2.521650280">
        <ele>221.24</ele>
        <time>2016-02-28T06:47:38Z</time>
      </trkpt>
      <trkpt lat="41.618017830" lon="2.521536030">
        <ele>223.16</ele>
        <time>2016-02-28T06:47:45Z</time>
      </trkpt>
      <trkpt lat="41.618079020" lon="2.521377610">
        <ele>225.57</ele>
        <time>2016-02-28T06:47:55Z</time>
      </trkpt>
      <trkpt lat="41.618158640" lon="2.521257250">
        <ele>226.53</ele>
        <time>2016-02-28T06:48:02Z</time>
      </trkpt>
      <trkpt lat="41.618243300" lon="2.521108720">
        <ele>227.97</ele>
        <time>2016-02-28T06:48:11Z</time>
      </trkpt>
      <trkpt lat="41.618301220" lon="2.520955500">
        <ele>229.41</ele>
        <time>2016-02-28T06:48:20Z</time>
      </trkpt>
      <trkpt lat="41.618322170" lon="2.520811330">
        <ele>231.33</ele>
        <time>2016-02-28T06:48:28Z</time>
      </trkpt>
      <trkpt lat="41.618373300" lon="2.520683090">
        <ele>232.78</ele>
        <time>2016-02-28T06:48:35Z</time>
      </trkpt>
      <trkpt lat="41.618482600" lon="2.520607990">
        <ele>234.22</ele>
        <time>2016-02-28T06:48:44Z</time>
      </trkpt>
      <trkpt lat="41.618625680" lon="2.520572870">
        <ele>235.66</ele>
        <time>2016-02-28T06:48:53Z</time>
      </trkpt>
      <trkpt lat="41.618771950" lon="2.520534900">
        <ele>236.62</ele>
        <time>2016-02-28T06:49:02Z</time>
      </trkpt>
      <trkpt lat="41.618866660" lon="2.520499110">
        <ele>237.58</ele>
        <time>2016-02-28T06:49:09Z</time>
      </trkpt>
      <trkpt lat="41.618992220" lon="2.520431970">
        <ele>240.47</ele>
        <time>2016-02-28T06:49:19Z</time>
      </trkpt>
      <trkpt lat="41.619119380" lon="2.520370360">
        <ele>241.91</ele>
        <time>2016-02-28T06:49:28Z</time>
      </trkpt>
      <trkpt lat="41.619255160" lon="2.520305150">
        <ele>244.79</ele>
        <time>2016-02-28T06:49:38Z</time>
      </trkpt>
      <trkpt lat="41.619395140" lon="2.520332890">
        <ele>246.23</ele>
        <time>2016-02-28T06:49:47Z</time>
      </trkpt>
      <trkpt lat="41.619547020" lon="2.520363070">
        <ele>248.64</ele>
        <time>2016-02-28T06:49:58Z</time>
      </trkpt>
      <trkpt lat="41.619639640" lon="2.520345050">
        <ele>249.60</ele>
        <time>2016-02-28T06:50:06Z</time>
      </trkpt>
      <trkpt lat="41.619734610" lon="2.520319570">
        <ele>252.00</ele>
        <time>2016-02-28T06:50:15Z</time>
      </trkpt>
      <trkpt lat="41.619840720" lon="2.520265170">
        <ele>253.93</ele>
        <time>2016-02-28T06:50:24Z</time>
      </trkpt>
      <trkpt lat="41.619916500" lon="2.520211860">
        <ele>254.89</ele>
        <time>2016-02-28T06:50:31Z</time>
      </trkpt>
      <trkpt lat="41.620027810" lon="2.520167020">
        <ele>256.81</ele>
        <time>2016-02-28T06:50:39Z</time>
      </trkpt>
      <trkpt lat="41.620143810" lon="2.520119570">
        <ele>256.81</ele>
        <time>2016-02-28T06:50:47Z</time>
      </trkpt>
      <trkpt lat="41.620239790" lon="2.520115550">
        <ele>258.25</ele>
        <time>2016-02-28T06:50:54Z</time>
      </trkpt>
      <trkpt lat="41.620267700" lon="2.520117140">
        <ele>258.73</ele>
        <time>2016-02-28T06:50:56Z</time>
      </trkpt>
      <trkpt lat="41.620404830" lon="2.520159640">
        <ele>261.14</ele>
        <time>2016-02-28T06:51:06Z</time>
      </trkpt>
      <trkpt lat="41.620521420" lon="2.520185960">
        <ele>261.62</ele>
        <time>2016-02-28T06:51:14Z</time>
      </trkpt>
      <trkpt lat="41.620646810" lon="2.520197780">
        <ele>263.06</ele>
        <time>2016-02-28T06:51:23Z</time>
      </trkpt>
      <trkpt lat="41.620787800" lon="2.520215800">
        <ele>264.50</ele>
        <time>2016-02-28T06:51:34Z</time>
      </trkpt>
      <trkpt lat="41.620926260" lon="2.520256700">
        <ele>265.94</ele>
        <time>2016-02-28T06:51:44Z</time>
      </trkpt>
      <trkpt lat="41.621033640" lon="2.520272880">
        <ele>267.86</ele>
        <time>2016-02-28T06:51:51Z</time>
      </trkpt>
      <trkpt lat="41.621102870" lon="2.520298860">
        <ele>268.83</ele>
        <time>2016-02-28T06:51:56Z</time>
      </trkpt>
      <trkpt lat="41.621221640" lon="2.520321830">
        <ele>270.27</ele>
        <time>2016-02-28T06:52:05Z</time>
      </trkpt>
      <trkpt lat="41.621332790" lon="2.520311440">
        <ele>272.19</ele>
        <time>2016-02-28T06:52:13Z</time>
      </trkpt>
      <trkpt lat="41.621456750" lon="2.520333900">
        <ele>273.63</ele>
        <time>2016-02-28T06:52:22Z</time>
      </trkpt>
      <trkpt lat="41.621572590" lon="2.520373210">
        <ele>274.59</ele>
        <time>2016-02-28T06:52:30Z</time>
      </trkpt>
      <trkpt lat="41.621705950" lon="2.520418050">
        <ele>277.00</ele>
        <time>2016-02-28T06:52:41Z</time>
      </trkpt>
      <trkpt lat="41.621789770" lon="2.520436240">
        <ele>278.92</ele>
        <time>2016-02-28T06:52:48Z</time>
      </trkpt>
      <trkpt lat="41.621902760" lon="2.520461300">
        <ele>280.84</ele>
        <time>2016-02-28T06:52:57Z</time>
      </trkpt>
      <trkpt lat="41.621982720" lon="2.520473630">
        <ele>284.21</ele>
        <time>2016-02-28T06:53:04Z</time>
      </trkpt>
      <trkpt lat="41.621996550" lon="2.520479330">
        <ele>284.21</ele>
        <time>2016-02-28T06:53:05Z</time>
      </trkpt>
      <trkpt lat="41.622075930" lon="2.520464570">
        <ele>285.65</ele>
        <time>2016-02-28T06:53:12Z</time>
      </trkpt>
      <trkpt lat="41.622152370" lon="2.520422160">
        <ele>286.61</ele>
        <time>2016-02-28T06:53:19Z</time>
      </trkpt>
      <trkpt lat="41.622167040" lon="2.520414030">
        <ele>286.61</ele>
        <time>2016-02-28T06:53:20Z</time>
      </trkpt>
      <trkpt lat="41.622312040" lon="2.520384360">
        <ele>288.53</ele>
        <time>2016-02-28T06:53:32Z</time>
      </trkpt>
      <trkpt lat="41.622416320" lon="2.520390900">
        <ele>289.97</ele>
        <time>2016-02-28T06:53:40Z</time>
      </trkpt>
      <trkpt lat="41.622458640" lon="2.520408080">
        <ele>290.46</ele>
        <time>2016-02-28T06:53:43Z</time>
      </trkpt>
      <trkpt lat="41.622446740" lon="2.520510590">
        <ele>291.42</ele>
        <time>2016-02-28T06:53:51Z</time>
      </trkpt>
      <trkpt lat="41.622408690" lon="2.520521820">
        <ele>291.90</ele>
        <time>2016-02-28T06:53:54Z</time>
      </trkpt>
      <trkpt lat="41.622320680" lon="2.520531880">
        <ele>292.86</ele>
        <time>2016-02-28T06:54:02Z</time>
      </trkpt>
      <trkpt lat="41.622206430" lon="2.520618630">
        <ele>294.30</ele>
        <time>2016-02-28T06:54:13Z</time>
      </trkpt>
      <trkpt lat="41.622110460" lon="2.520692650">
        <ele>295.74</ele>
        <time>2016-02-28T06:54:21Z</time>
      </trkpt>
      <trkpt lat="41.621998390" lon="2.520780660">
        <ele>298.63</ele>
        <time>2016-02-28T06:54:32Z</time>
      </trkpt>
      <trkpt lat="41.621919350" lon="2.520849640">
        <ele>299.59</ele>
        <time>2016-02-28T06:54:40Z</time>
      </trkpt>
      <trkpt lat="41.621811480" lon="2.520962540">
        <ele>300.55</ele>
        <time>2016-02-28T06:54:50Z</time>
      </trkpt>
      <trkpt lat="41.621786000" lon="2.520984080">
        <ele>301.03</ele>
        <time>2016-02-28T06:54:52Z</time>
      </trkpt>
      <trkpt lat="41.621716930" lon="2.521018200">
        <ele>301.03</ele>
        <time>2016-02-28T06:54:57Z</time>
      </trkpt>
      <trkpt lat="41.621571250" lon="2.520983500">
        <ele>301.51</ele>
        <time>2016-02-28T06:55:05Z</time>
      </trkpt>
      <trkpt lat="41.621417780" lon="2.520952230">
        <ele>302.47</ele>
        <time>2016-02-28T06:55:14Z</time>
      </trkpt>
      <trkpt lat="41.621280570" lon="2.520982070">
        <ele>302.47</ele>
        <time>2016-02-28T06:55:22Z</time>
      </trkpt>
      <trkpt lat="41.621142430" lon="2.521032870">
        <ele>303.91</ele>
        <time>2016-02-28T06:55:31Z</time>
      </trkpt>
      <trkpt lat="41.621113350" lon="2.521059100">
        <ele>304.39</ele>
        <time>2016-02-28T06:55:33Z</time>
      </trkpt>
      <trkpt lat="41.621142680" lon="2.521151300">
        <ele>305.84</ele>
        <time>2016-02-28T06:55:40Z</time>
      </trkpt>
      <trkpt lat="41.621185850" lon="2.521122050">
        <ele>306.80</ele>
        <time>2016-02-28T06:55:45Z</time>
      </trkpt>
      <trkpt lat="41.621277550" lon="2.521156080">
        <ele>308.24</ele>
        <time>2016-02-28T06:55:53Z</time>
      </trkpt>
      <trkpt lat="41.621370920" lon="2.521241910">
        <ele>310.16</ele>
        <time>2016-02-28T06:56:01Z</time>
      </trkpt>
      <trkpt lat="41.621386180" lon="2.521272840">
        <ele>310.64</ele>
        <time>2016-02-28T06:56:03Z</time>
      </trkpt>
      <trkpt lat="41.621465220" lon="2.521379710">
        <ele>311.60</ele>
        <time>2016-02-28T06:56:11Z</time>
      </trkpt>
      <trkpt lat="41.621507970" lon="2.521435780">
        <ele>312.09</ele>
        <time>2016-02-28T06:56:15Z</time>
      </trkpt>
      <trkpt lat="41.621588940" lon="2.521569220">
        <ele>313.53</ele>
        <time>2016-02-28T06:56:24Z</time>
      </trkpt>
      <trkpt lat="41.621665300" lon="2.521697970">
        <ele>314.97</ele>
        <time>2016-02-28T06:56:33Z</time>
      </trkpt>
      <trkpt lat="41.621741570" lon="2.521838620">
        <ele>316.89</ele>
        <time>2016-02-28T06:56:42Z</time>
      </trkpt>
      <trkpt lat="41.621797730" lon="2.521982450">
        <ele>319.30</ele>
        <time>2016-02-28T06:56:51Z</time>
      </trkpt>
      <trkpt lat="41.621808790" lon="2.522018830">
        <ele>319.78</ele>
        <time>2016-02-28T06:56:53Z</time>
      </trkpt>
      <trkpt lat="41.621873000" lon="2.522169200">
        <ele>321.22</ele>
        <time>2016-02-28T06:57:02Z</time>
      </trkpt>
      <trkpt lat="41.621900830" lon="2.522247990">
        <ele>321.70</ele>
        <time>2016-02-28T06:57:07Z</time>
      </trkpt>
      <trkpt lat="41.621934610" lon="2.522278000">
        <ele>322.18</ele>
        <time>2016-02-28T06:57:10Z</time>
      </trkpt>
      <trkpt lat="41.621972330" lon="2.522258640">
        <ele>322.66</ele>
        <time>2016-02-28T06:57:14Z</time>
      </trkpt>
      <trkpt lat="41.621939550" lon="2.522109690">
        <ele>324.10</ele>
        <time>2016-02-28T06:57:24Z</time>
      </trkpt>
      <trkpt lat="41.621933770" lon="2.521948510">
        <ele>326.50</ele>
        <time>2016-02-28T06:57:33Z</time>
      </trkpt>
      <trkpt lat="41.621961430" lon="2.521788910">
        <ele>327.47</ele>
        <time>2016-02-28T06:57:41Z</time>
      </trkpt>
      <trkpt lat="41.621997810" lon="2.521640550">
        <ele>328.43</ele>
        <time>2016-02-28T06:57:50Z</time>
      </trkpt>
      <trkpt lat="41.622065030" lon="2.521558580">
        <ele>329.39</ele>
        <time>2016-02-28T06:57:58Z</time>
      </trkpt>
      <trkpt lat="41.622139210" lon="2.521528820">
        <ele>330.35</ele>
        <time>2016-02-28T06:58:03Z</time>
      </trkpt>
      <trkpt lat="41.622244820" lon="2.521577770">
        <ele>331.31</ele>
        <time>2016-02-28T06:58:11Z</time>
      </trkpt>
      <trkpt lat="41.622333590" lon="2.521656730">
        <ele>331.31</ele>
        <time>2016-02-28T06:58:17Z</time>
      </trkpt>
      <trkpt lat="41.622379020" lon="2.521687070">
        <ele>332.75</ele>
        <time>2016-02-28T06:58:20Z</time>
      </trkpt>
      <trkpt lat="41.622538360" lon="2.521789250">
        <ele>334.68</ele>
        <time>2016-02-28T06:58:31Z</time>
      </trkpt>
      <trkpt lat="41.622652180" lon="2.521863510">
        <ele>335.64</ele>
        <time>2016-02-28T06:58:39Z</time>
      </trkpt>
      <trkpt lat="41.622766680" lon="2.521874490">
        <ele>336.60</ele>
        <time>2016-02-28T06:58:46Z</time>
      </trkpt>
      <trkpt lat="41.622779670" lon="2.521874410">
        <ele>336.60</ele>
        <time>2016-02-28T06:58:47Z</time>
      </trkpt>
      <trkpt lat="41.622911020" lon="2.521864350">
        <ele>337.56</ele>
        <time>2016-02-28T06:58:56Z</time>
      </trkpt>
      <trkpt lat="41.623057110" lon="2.521823030">
        <ele>339.48</ele>
        <time>2016-02-28T06:59:06Z</time>
      </trkpt>
      <trkpt lat="41.623173870" lon="2.521821350">
        <ele>340.44</ele>
        <time>2016-02-28T06:59:14Z</time>
      </trkpt>
      <trkpt lat="41.623204970" lon="2.521831910">
        <ele>340.92</ele>
        <time>2016-02-28T06:59:16Z</time>
      </trkpt>
      <trkpt lat="41.623313260" lon="2.521981360">
        <ele>341.89</ele>
        <time>2016-02-28T06:59:25Z</time>
      </trkpt>
      <trkpt lat="41.623328180" lon="2.522000560">
        <ele>341.89</ele>
        <time>2016-02-28T06:59:26Z</time>
      </trkpt>
      <trkpt lat="41.623444770" lon="2.522132740">
        <ele>342.37</ele>
        <time>2016-02-28T06:59:34Z</time>
      </trkpt>
      <trkpt lat="41.623560950" lon="2.522251850">
        <ele>343.33</ele>
        <time>2016-02-28T06:59:42Z</time>
      </trkpt>
      <trkpt lat="41.623598580" lon="2.522297440">
        <ele>343.81</ele>
        <time>2016-02-28T06:59:45Z</time>
      </trkpt>
      <trkpt lat="41.623667820" lon="2.522339100">
        <ele>344.77</ele>
        <time>2016-02-28T06:59:49Z</time>
      </trkpt>
      <trkpt lat="41.623820120" lon="2.522462650">
        <ele>345.25</ele>
        <time>2016-02-28T06:59:57Z</time>
      </trkpt>
      <trkpt lat="41.623926400" lon="2.522548900">
        <ele>345.73</ele>
        <time>2016-02-28T07:00:03Z</time>
      </trkpt>
      <trkpt lat="41.623994880" lon="2.522673620">
        <ele>345.73</ele>
        <time>2016-02-28T07:00:09Z</time>
      </trkpt>
      <trkpt lat="41.624058580" lon="2.522768680">
        <ele>345.73</ele>
        <time>2016-02-28T07:00:14Z</time>
      </trkpt>
      <trkpt lat="41.624135780" lon="2.522955000">
        <ele>345.73</ele>
        <time>2016-02-28T07:00:21Z</time>
      </trkpt>
      <trkpt lat="41.624210380" lon="2.523198000">
        <ele>346.21</ele>
        <time>2016-02-28T07:00:29Z</time>
      </trkpt>
      <trkpt lat="41.624294700" lon="2.523488180">
        <ele>347.17</ele>
        <time>2016-02-28T07:00:38Z</time>
      </trkpt>
      <trkpt lat="41.624370050" lon="2.523682220">
        <ele>348.13</ele>
        <time>2016-02-28T07:00:45Z</time>
      </trkpt>
      <trkpt lat="41.624461830" lon="2.523898050">
        <ele>349.58</ele>
        <time>2016-02-28T07:00:53Z</time>
      </trkpt>
      <trkpt lat="41.624565520" lon="2.524145740">
        <ele>351.02</ele>
        <time>2016-02-28T07:01:02Z</time>
      </trkpt>
      <trkpt lat="41.624640370" lon="2.524338940">
        <ele>353.42</ele>
        <time>2016-02-28T07:01:09Z</time>
      </trkpt>
      <trkpt lat="41.624726370" lon="2.524576650">
        <ele>353.42</ele>
        <time>2016-02-28T07:01:17Z</time>
      </trkpt>
      <trkpt lat="41.624834910" lon="2.524849230">
        <ele>354.86</ele>
        <time>2016-02-28T07:01:26Z</time>
      </trkpt>
      <trkpt lat="41.624958710" lon="2.525138240">
        <ele>356.31</ele>
        <time>2016-02-28T07:01:36Z</time>
      </trkpt>
      <trkpt lat="41.625093410" lon="2.525310240">
        <ele>356.79</ele>
        <time>2016-02-28T07:01:43Z</time>
      </trkpt>
      <trkpt lat="41.625263310" lon="2.525476110">
        <ele>356.31</ele>
        <time>2016-02-28T07:01:51Z</time>
      </trkpt>
      <trkpt lat="41.625395490" lon="2.525678700">
        <ele>357.27</ele>
        <time>2016-02-28T07:01:59Z</time>
      </trkpt>
      <trkpt lat="41.625477890" lon="2.525838130">
        <ele>357.75</ele>
        <time>2016-02-28T07:02:05Z</time>
      </trkpt>
      <trkpt lat="41.625642760" lon="2.526071480">
        <ele>357.75</ele>
        <time>2016-02-28T07:02:13Z</time>
      </trkpt>
      <trkpt lat="41.625874350" lon="2.526231320">
        <ele>357.75</ele>
        <time>2016-02-28T07:02:20Z</time>
      </trkpt>
      <trkpt lat="41.625936800" lon="2.526284800">
        <ele>356.31</ele>
        <time>2016-02-28T07:02:22Z</time>
      </trkpt>
      <trkpt lat="41.626145090" lon="2.526520160">
        <ele>357.27</ele>
        <time>2016-02-28T07:02:30Z</time>
      </trkpt>
      <trkpt lat="41.626312310" lon="2.526828110">
        <ele>357.75</ele>
        <time>2016-02-28T07:02:40Z</time>
      </trkpt>
      <trkpt lat="41.626349440" lon="2.526982170">
        <ele>357.75</ele>
        <time>2016-02-28T07:02:45Z</time>
      </trkpt>
      <trkpt lat="41.626431670" lon="2.527102370">
        <ele>358.71</ele>
        <time>2016-02-28T07:02:53Z</time>
      </trkpt>
      <trkpt lat="41.626436860" lon="2.527120890">
        <ele>359.19</ele>
        <time>2016-02-28T07:02:54Z</time>
      </trkpt>
      <trkpt lat="41.626444240" lon="2.527266910">
        <ele>360.15</ele>
        <time>2016-02-28T07:03:00Z</time>
      </trkpt>
      <trkpt lat="41.626500820" lon="2.527317030">
        <ele>360.15</ele>
        <time>2016-02-28T07:03:03Z</time>
      </trkpt>
      <trkpt lat="41.626649600" lon="2.527316360">
        <ele>360.63</ele>
        <time>2016-02-28T07:03:11Z</time>
      </trkpt>
      <trkpt lat="41.626679180" lon="2.527300600">
        <ele>361.11</ele>
        <time>2016-02-28T07:03:13Z</time>
      </trkpt>
      <trkpt lat="41.626818830" lon="2.527318960">
        <ele>363.52</ele>
        <time>2016-02-28T07:03:23Z</time>
      </trkpt>
      <trkpt lat="41.626964750" lon="2.527362630">
        <ele>365.92</ele>
        <time>2016-02-28T07:03:33Z</time>
      </trkpt>
      <trkpt lat="41.627093250" lon="2.527413090">
        <ele>367.84</ele>
        <time>2016-02-28T07:03:42Z</time>
      </trkpt>
      <trkpt lat="41.627243120" lon="2.527491210">
        <ele>369.76</ele>
        <time>2016-02-28T07:03:52Z</time>
      </trkpt>
      <trkpt lat="41.627342280" lon="2.527546280">
        <ele>369.76</ele>
        <time>2016-02-28T07:03:59Z</time>
      </trkpt>
      <trkpt lat="41.627497840" lon="2.527639150">
        <ele>370.73</ele>
        <time>2016-02-28T07:04:09Z</time>
      </trkpt>
      <trkpt lat="41.627611840" lon="2.527695050">
        <ele>372.65</ele>
        <time>2016-02-28T07:04:16Z</time>
      </trkpt>
      <trkpt lat="41.627782740" lon="2.527816010">
        <ele>374.09</ele>
        <time>2016-02-28T07:04:27Z</time>
      </trkpt>
      <trkpt lat="41.627942840" lon="2.527898400">
        <ele>375.05</ele>
        <time>2016-02-28T07:04:37Z</time>
      </trkpt>
      <trkpt lat="41.628047860" lon="2.527988340">
        <ele>376.01</ele>
        <time>2016-02-28T07:04:44Z</time>
      </trkpt>
      <trkpt lat="41.628181560" lon="2.528106190">
        <ele>377.45</ele>
        <time>2016-02-28T07:04:53Z</time>
      </trkpt>
      <trkpt lat="41.628311310" lon="2.528212220">
        <ele>378.42</ele>
        <time>2016-02-28T07:05:02Z</time>
      </trkpt>
      <trkpt lat="41.628422450" lon="2.528336100">
        <ele>379.38</ele>
        <time>2016-02-28T07:05:10Z</time>
      </trkpt>
      <trkpt lat="41.628574830" lon="2.528499970">
        <ele>380.82</ele>
        <time>2016-02-28T07:05:20Z</time>
      </trkpt>
      <trkpt lat="41.628702830" lon="2.528735170">
        <ele>381.30</ele>
        <time>2016-02-28T07:05:28Z</time>
      </trkpt>
      <trkpt lat="41.628901060" lon="2.529080750">
        <ele>381.30</ele>
        <time>2016-02-28T07:05:38Z</time>
      </trkpt>
      <trkpt lat="41.629130300" lon="2.529529770">
        <ele>381.30</ele>
        <time>2016-02-28T07:05:49Z</time>
      </trkpt>
      <trkpt lat="41.629269690" lon="2.529875610">
        <ele>381.30</ele>
        <time>2016-02-28T07:05:58Z</time>
      </trkpt>
      <trkpt lat="41.629336330" lon="2.530069230">
        <ele>384.18</ele>
        <time>2016-02-28T07:06:05Z</time>
      </trkpt>
      <trkpt lat="41.629372120" lon="2.530298050">
        <ele>385.63</ele>
        <time>2016-02-28T07:06:13Z</time>
      </trkpt>
      <trkpt lat="41.629400960" lon="2.530601650">
        <ele>387.55</ele>
        <time>2016-02-28T07:06:23Z</time>
      </trkpt>
      <trkpt lat="41.629401290" lon="2.530872130">
        <ele>389.95</ele>
        <time>2016-02-28T07:06:32Z</time>
      </trkpt>
      <trkpt lat="41.629470360" lon="2.531118480">
        <ele>390.43</ele>
        <time>2016-02-28T07:06:40Z</time>
      </trkpt>
      <trkpt lat="41.629666490" lon="2.531309250">
        <ele>390.43</ele>
        <time>2016-02-28T07:06:47Z</time>
      </trkpt>
      <trkpt lat="41.629852570" lon="2.531439750">
        <ele>388.99</ele>
        <time>2016-02-28T07:06:51Z</time>
      </trkpt>
      <trkpt lat="41.629906050" lon="2.531470680">
        <ele>388.03</ele>
        <time>2016-02-28T07:06:52Z</time>
      </trkpt>
      <trkpt lat="41.630093050" lon="2.531547380">
        <ele>387.07</ele>
        <time>2016-02-28T07:06:55Z</time>
      </trkpt>
      <trkpt lat="41.630286080" lon="2.531610070">
        <ele>385.15</ele>
        <time>2016-02-28T07:06:58Z</time>
      </trkpt>
      <trkpt lat="41.630465710" lon="2.531606220">
        <ele>383.70</ele>
        <time>2016-02-28T07:07:01Z</time>
      </trkpt>
      <trkpt lat="41.630891260" lon="2.531424580">
        <ele>381.78</ele>
        <time>2016-02-28T07:07:09Z</time>
      </trkpt>
      <trkpt lat="41.631100970" lon="2.531409330">
        <ele>381.78</ele>
        <time>2016-02-28T07:07:13Z</time>
      </trkpt>
      <trkpt lat="41.631230470" lon="2.531446120">
        <ele>381.30</ele>
        <time>2016-02-28T07:07:16Z</time>
      </trkpt>
      <trkpt lat="41.631465750" lon="2.531375050">
        <ele>381.78</ele>
        <time>2016-02-28T07:07:22Z</time>
      </trkpt>
      <trkpt lat="41.631759960" lon="2.530922510">
        <ele>379.38</ele>
        <time>2016-02-28T07:07:31Z</time>
      </trkpt>
      <trkpt lat="41.631931620" lon="2.530634420">
        <ele>376.97</ele>
        <time>2016-02-28T07:07:36Z</time>
      </trkpt>
      <trkpt lat="41.632002360" lon="2.530497800">
        <ele>375.53</ele>
        <time>2016-02-28T07:07:39Z</time>
      </trkpt>
      <trkpt lat="41.632189950" lon="2.530603910">
        <ele>375.05</ele>
        <time>2016-02-28T07:07:45Z</time>
      </trkpt>
      <trkpt lat="41.632411320" lon="2.530854110">
        <ele>373.13</ele>
        <time>2016-02-28T07:07:50Z</time>
      </trkpt>
      <trkpt lat="41.632600830" lon="2.531028620">
        <ele>373.13</ele>
        <time>2016-02-28T07:07:56Z</time>
      </trkpt>
      <trkpt lat="41.632795290" lon="2.531238840">
        <ele>372.65</ele>
        <time>2016-02-28T07:08:01Z</time>
      </trkpt>
      <trkpt lat="41.633071140" lon="2.531652570">
        <ele>372.17</ele>
        <time>2016-02-28T07:08:09Z</time>
      </trkpt>
      <trkpt lat="41.633178590" lon="2.531830690">
        <ele>373.13</ele>
        <time>2016-02-28T07:08:15Z</time>
      </trkpt>
      <trkpt lat="41.633199300" lon="2.531932270">
        <ele>374.57</ele>
        <time>2016-02-28T07:08:19Z</time>
      </trkpt>
      <trkpt lat="41.633229470" lon="2.532196390">
        <ele>377.45</ele>
        <time>2016-02-28T07:08:28Z</time>
      </trkpt>
      <trkpt lat="41.633227210" lon="2.532390600">
        <ele>379.86</ele>
        <time>2016-02-28T07:08:35Z</time>
      </trkpt>
      <trkpt lat="41.633237600" lon="2.532535770">
        <ele>381.30</ele>
        <time>2016-02-28T07:08:41Z</time>
      </trkpt>
      <trkpt lat="41.633246660" lon="2.532661160">
        <ele>383.70</ele>
        <time>2016-02-28T07:08:47Z</time>
      </trkpt>
      <trkpt lat="41.633318410" lon="2.532756300">
        <ele>383.70</ele>
        <time>2016-02-28T07:08:53Z</time>
      </trkpt>
      <trkpt lat="41.633368190" lon="2.532828640">
        <ele>383.70</ele>
        <time>2016-02-28T07:08:55Z</time>
      </trkpt>
      <trkpt lat="41.633490990" lon="2.533003730">
        <ele>380.34</ele>
        <time>2016-02-28T07:08:59Z</time>
      </trkpt>
      <trkpt lat="41.633563830" lon="2.533119240">
        <ele>377.94</ele>
        <time>2016-02-28T07:09:01Z</time>
      </trkpt>
      <trkpt lat="41.633744460" lon="2.533411680">
        <ele>373.61</ele>
        <time>2016-02-28T07:09:05Z</time>
      </trkpt>
      <trkpt lat="41.633850150" lon="2.533515620">
        <ele>373.13</ele>
        <time>2016-02-28T07:09:07Z</time>
      </trkpt>
      <trkpt lat="41.633953250" lon="2.533581670">
        <ele>375.53</ele>
        <time>2016-02-28T07:09:10Z</time>
      </trkpt>
      <trkpt lat="41.634103620" lon="2.533548310">
        <ele>375.53</ele>
        <time>2016-02-28T07:09:16Z</time>
      </trkpt>
      <trkpt lat="41.634212920" lon="2.533520730">
        <ele>374.09</ele>
        <time>2016-02-28T07:09:19Z</time>
      </trkpt>
      <trkpt lat="41.634383750" lon="2.533513020">
        <ele>371.69</ele>
        <time>2016-02-28T07:09:23Z</time>
      </trkpt>
      <trkpt lat="41.634586750" lon="2.533475300">
        <ele>371.21</ele>
        <time>2016-02-28T07:09:27Z</time>
      </trkpt>
      <trkpt lat="41.634659260" lon="2.533243620">
        <ele>370.24</ele>
        <time>2016-02-28T07:09:31Z</time>
      </trkpt>
      <trkpt lat="41.634631770" lon="2.533023680">
        <ele>368.80</ele>
        <time>2016-02-28T07:09:34Z</time>
      </trkpt>
      <trkpt lat="41.634602760" lon="2.532708770">
        <ele>366.40</ele>
        <time>2016-02-28T07:09:38Z</time>
      </trkpt>
      <trkpt lat="41.634591530" lon="2.532548340">
        <ele>365.44</ele>
        <time>2016-02-28T07:09:40Z</time>
      </trkpt>
      <trkpt lat="41.634604020" lon="2.532285660">
        <ele>364.00</ele>
        <time>2016-02-28T07:09:43Z</time>
      </trkpt>
      <trkpt lat="41.634651130" lon="2.532148280">
        <ele>363.52</ele>
        <time>2016-02-28T07:09:45Z</time>
      </trkpt>
      <trkpt lat="41.634772750" lon="2.531915010">
        <ele>364.00</ele>
        <time>2016-02-28T07:09:51Z</time>
      </trkpt>
      <trkpt lat="41.634801330" lon="2.531866480">
        <ele>365.44</ele>
        <time>2016-02-28T07:09:53Z</time>
      </trkpt>
      <trkpt lat="41.634896380" lon="2.531788610">
        <ele>366.88</ele>
        <time>2016-02-28T07:09:58Z</time>
      </trkpt>
      <trkpt lat="41.635016160" lon="2.531812080">
        <ele>367.36</ele>
        <time>2016-02-28T07:10:04Z</time>
      </trkpt>
      <trkpt lat="41.635089500" lon="2.531872760">
        <ele>369.76</ele>
        <time>2016-02-28T07:10:12Z</time>
      </trkpt>
      <trkpt lat="41.635134010" lon="2.531908130">
        <ele>370.73</ele>
        <time>2016-02-28T07:10:21Z</time>
      </trkpt>
      <trkpt lat="41.635225540" lon="2.532015930">
        <ele>370.73</ele>
        <time>2016-02-28T07:10:28Z</time>
      </trkpt>
      <trkpt lat="41.635327040" lon="2.532136210">
        <ele>371.21</ele>
        <time>2016-02-28T07:10:34Z</time>
      </trkpt>
      <trkpt lat="41.635504150" lon="2.532146260">
        <ele>371.21</ele>
        <time>2016-02-28T07:10:41Z</time>
      </trkpt>
      <trkpt lat="41.635535330" lon="2.532118940">
        <ele>371.21</ele>
        <time>2016-02-28T07:10:43Z</time>
      </trkpt>
      <trkpt lat="41.635560400" lon="2.531887430">
        <ele>371.21</ele>
        <time>2016-02-28T07:10:51Z</time>
      </trkpt>
      <trkpt lat="41.635559980" lon="2.531857260">
        <ele>371.21</ele>
        <time>2016-02-28T07:10:52Z</time>
      </trkpt>
      <trkpt lat="41.635594760" lon="2.531703780">
        <ele>371.21</ele>
        <time>2016-02-28T07:10:58Z</time>
      </trkpt>
      <trkpt lat="41.635643040" lon="2.531437160">
        <ele>372.65</ele>
        <time>2016-02-28T07:11:08Z</time>
      </trkpt>
      <trkpt lat="41.635669360" lon="2.531283770">
        <ele>374.57</ele>
        <time>2016-02-28T07:11:14Z</time>
      </trkpt>
      <trkpt lat="41.635679590" lon="2.531206400">
        <ele>375.05</ele>
        <time>2016-02-28T07:11:17Z</time>
      </trkpt>
      <trkpt lat="41.635705820" lon="2.531115540">
        <ele>375.53</ele>
        <time>2016-02-28T07:11:21Z</time>
      </trkpt>
      <trkpt lat="41.635809090" lon="2.530941870">
        <ele>376.49</ele>
        <time>2016-02-28T07:11:29Z</time>
      </trkpt>
      <trkpt lat="41.635925850" lon="2.530911690">
        <ele>378.42</ele>
        <time>2016-02-28T07:11:35Z</time>
      </trkpt>
      <trkpt lat="41.636064320" lon="2.530883110">
        <ele>379.86</ele>
        <time>2016-02-28T07:11:42Z</time>
      </trkpt>
      <trkpt lat="41.636185440" lon="2.530844050">
        <ele>379.86</ele>
        <time>2016-02-28T07:11:49Z</time>
      </trkpt>
      <trkpt lat="41.636282580" lon="2.530896770">
        <ele>381.30</ele>
        <time>2016-02-28T07:11:54Z</time>
      </trkpt>
      <trkpt lat="41.636313510" lon="2.530964250">
        <ele>379.86</ele>
        <time>2016-02-28T07:11:56Z</time>
      </trkpt>
      <trkpt lat="41.636342600" lon="2.531096350">
        <ele>378.42</ele>
        <time>2016-02-28T07:12:01Z</time>
      </trkpt>
      <trkpt lat="41.636359360" lon="2.531319980">
        <ele>379.38</ele>
        <time>2016-02-28T07:12:08Z</time>
      </trkpt>
      <trkpt lat="41.636387860" lon="2.531661960">
        <ele>379.38</ele>
        <time>2016-02-28T07:12:17Z</time>
      </trkpt>
      <trkpt lat="41.636442420" lon="2.531837640">
        <ele>377.94</ele>
        <time>2016-02-28T07:12:22Z</time>
      </trkpt>
      <trkpt lat="41.636556750" lon="2.532119950">
        <ele>377.94</ele>
        <time>2016-02-28T07:12:31Z</time>
      </trkpt>
      <trkpt lat="41.636594720" lon="2.532292780">
        <ele>377.94</ele>
        <time>2016-02-28T07:12:37Z</time>
      </trkpt>
      <trkpt lat="41.636541750" lon="2.532511550">
        <ele>377.94</ele>
        <time>2016-02-28T07:12:44Z</time>
      </trkpt>
      <trkpt lat="41.636478890" lon="2.532720340">
        <ele>377.94</ele>
        <time>2016-02-28T07:12:49Z</time>
      </trkpt>
      <trkpt lat="41.636571170" lon="2.532914970">
        <ele>377.94</ele>
        <time>2016-02-28T07:12:55Z</time>
      </trkpt>
      <trkpt lat="41.636723890" lon="2.533072210">
        <ele>376.97</ele>
        <time>2016-02-28T07:13:01Z</time>
      </trkpt>
      <trkpt lat="41.636773430" lon="2.533373710">
        <ele>376.97</ele>
        <time>2016-02-28T07:13:09Z</time>
      </trkpt>
      <trkpt lat="41.636744010" lon="2.533603540">
        <ele>376.01</ele>
        <time>2016-02-28T07:13:15Z</time>
      </trkpt>
      <trkpt lat="41.636647700" lon="2.533837230">
        <ele>376.01</ele>
        <time>2016-02-28T07:13:22Z</time>
      </trkpt>
      <trkpt lat="41.636613500" lon="2.533906380">
        <ele>376.01</ele>
        <time>2016-02-28T07:13:24Z</time>
      </trkpt>
      <trkpt lat="41.636644850" lon="2.534018360">
        <ele>376.97</ele>
        <time>2016-02-28T07:13:27Z</time>
      </trkpt>
      <trkpt lat="41.636818600" lon="2.534104440">
        <ele>377.45</ele>
        <time>2016-02-28T07:13:33Z</time>
      </trkpt>
      <trkpt lat="41.636900750" lon="2.534140320">
        <ele>377.45</ele>
        <time>2016-02-28T07:13:35Z</time>
      </trkpt>
      <trkpt lat="41.637037710" lon="2.534229170">
        <ele>376.49</ele>
        <time>2016-02-28T07:13:38Z</time>
      </trkpt>
      <trkpt lat="41.637125130" lon="2.534307200">
        <ele>375.53</ele>
        <time>2016-02-28T07:13:40Z</time>
      </trkpt>
      <trkpt lat="41.637286820" lon="2.534443910">
        <ele>375.53</ele>
        <time>2016-02-28T07:13:44Z</time>
      </trkpt>
      <trkpt lat="41.637541040" lon="2.534552630">
        <ele>374.57</ele>
        <time>2016-02-28T07:13:50Z</time>
      </trkpt>
      <trkpt lat="41.637751170" lon="2.534776090">
        <ele>373.13</ele>
        <time>2016-02-28T07:13:57Z</time>
      </trkpt>
      <trkpt lat="41.637851840" lon="2.534927800">
        <ele>371.69</ele>
        <time>2016-02-28T07:14:02Z</time>
      </trkpt>
      <trkpt lat="41.637885620" lon="2.534946160">
        <ele>371.21</ele>
        <time>2016-02-28T07:14:04Z</time>
      </trkpt>
      <trkpt lat="41.638066750" lon="2.534804250">
        <ele>369.76</ele>
        <time>2016-02-28T07:14:10Z</time>
      </trkpt>
      <trkpt lat="41.638227520" lon="2.534650440">
        <ele>369.28</ele>
        <time>2016-02-28T07:14:14Z</time>
      </trkpt>
      <trkpt lat="41.638453910" lon="2.534601660">
        <ele>368.80</ele>
        <time>2016-02-28T07:14:19Z</time>
      </trkpt>
      <trkpt lat="41.638535050" lon="2.534633010">
        <ele>368.80</ele>
        <time>2016-02-28T07:14:21Z</time>
      </trkpt>
      <trkpt lat="41.638831020" lon="2.534794780">
        <ele>368.32</ele>
        <time>2016-02-28T07:14:29Z</time>
      </trkpt>
      <trkpt lat="41.639074010" lon="2.534923020">
        <ele>367.84</ele>
        <time>2016-02-28T07:14:36Z</time>
      </trkpt>
      <trkpt lat="41.639268970" lon="2.534924360">
        <ele>367.84</ele>
        <time>2016-02-28T07:14:42Z</time>
      </trkpt>
      <trkpt lat="41.639315990" lon="2.534947920">
        <ele>369.28</ele>
        <time>2016-02-28T07:14:44Z</time>
      </trkpt>
      <trkpt lat="41.639449770" lon="2.534967360">
        <ele>370.73</ele>
        <time>2016-02-28T07:14:50Z</time>
      </trkpt>
      <trkpt lat="41.639472480" lon="2.534967450">
        <ele>370.73</ele>
        <time>2016-02-28T07:14:51Z</time>
      </trkpt>
      <trkpt lat="41.639675070" lon="2.534976410">
        <ele>373.61</ele>
        <time>2016-02-28T07:14:59Z</time>
      </trkpt>
      <trkpt lat="41.639726290" lon="2.534980940">
        <ele>374.09</ele>
        <time>2016-02-28T07:15:01Z</time>
      </trkpt>
      <trkpt lat="41.639861150" lon="2.535026290">
        <ele>375.53</ele>
        <time>2016-02-28T07:15:07Z</time>
      </trkpt>
      <trkpt lat="41.640025770" lon="2.535133990">
        <ele>376.49</ele>
        <time>2016-02-28T07:15:15Z</time>
      </trkpt>
      <trkpt lat="41.640247810" lon="2.535241790">
        <ele>377.94</ele>
        <time>2016-02-28T07:15:25Z</time>
      </trkpt>
      <trkpt lat="41.640382670" lon="2.535213960">
        <ele>377.45</ele>
        <time>2016-02-28T07:15:32Z</time>
      </trkpt>
      <trkpt lat="41.640576550" lon="2.535187890">
        <ele>378.42</ele>
        <time>2016-02-28T07:15:41Z</time>
      </trkpt>
      <trkpt lat="41.640733710" lon="2.535219240">
        <ele>379.38</ele>
        <time>2016-02-28T07:15:48Z</time>
      </trkpt>
      <trkpt lat="41.640861110" lon="2.535315630">
        <ele>379.38</ele>
        <time>2016-02-28T07:15:54Z</time>
      </trkpt>
      <trkpt lat="41.641035200" lon="2.535460720">
        <ele>380.34</ele>
        <time>2016-02-28T07:15:59Z</time>
      </trkpt>
      <trkpt lat="41.641109890" lon="2.535631710">
        <ele>381.78</ele>
        <time>2016-02-28T07:16:04Z</time>
      </trkpt>
      <trkpt lat="41.641209210" lon="2.535875710">
        <ele>381.78</ele>
        <time>2016-02-28T07:16:11Z</time>
      </trkpt>
      <trkpt lat="41.641296720" lon="2.536137310">
        <ele>382.74</ele>
        <time>2016-02-28T07:16:20Z</time>
      </trkpt>
      <trkpt lat="41.641366880" lon="2.536375770">
        <ele>383.70</ele>
        <time>2016-02-28T07:16:29Z</time>
      </trkpt>
      <trkpt lat="41.641422530" lon="2.536591940">
        <ele>386.59</ele>
        <time>2016-02-28T07:16:37Z</time>
      </trkpt>
      <trkpt lat="41.641520600" lon="2.536762850">
        <ele>387.55</ele>
        <time>2016-02-28T07:16:44Z</time>
      </trkpt>
      <trkpt lat="41.641644150" lon="2.536965440">
        <ele>388.99</ele>
        <time>2016-02-28T07:16:53Z</time>
      </trkpt>
      <trkpt lat="41.641635260" lon="2.537192340">
        <ele>386.59</ele>
        <time>2016-02-28T07:16:59Z</time>
      </trkpt>
      <trkpt lat="41.641618000" lon="2.537441530">
        <ele>389.47</ele>
        <time>2016-02-28T07:17:05Z</time>
      </trkpt>
      <trkpt lat="41.641619590" lon="2.537477070">
        <ele>389.47</ele>
        <time>2016-02-28T07:17:06Z</time>
      </trkpt>
      <trkpt lat="41.641635600" lon="2.537724000">
        <ele>388.51</ele>
        <time>2016-02-28T07:17:13Z</time>
      </trkpt>
      <trkpt lat="41.641695280" lon="2.538064220">
        <ele>389.95</ele>
        <time>2016-02-28T07:17:23Z</time>
      </trkpt>
      <trkpt lat="41.641866690" lon="2.538336550">
        <ele>389.95</ele>
        <time>2016-02-28T07:17:30Z</time>
      </trkpt>
      <trkpt lat="41.641932400" lon="2.538394050">
        <ele>388.51</ele>
        <time>2016-02-28T07:17:32Z</time>
      </trkpt>
      <trkpt lat="41.642151090" lon="2.538481140">
        <ele>389.47</ele>
        <time>2016-02-28T07:17:38Z</time>
      </trkpt>
      <trkpt lat="41.642294080" lon="2.538505530">
        <ele>389.47</ele>
        <time>2016-02-28T07:17:43Z</time>
      </trkpt>
      <trkpt lat="41.642473870" lon="2.538554650">
        <ele>389.95</ele>
        <time>2016-02-28T07:17:50Z</time>
      </trkpt>
      <trkpt lat="41.642616620" lon="2.538688090">
        <ele>390.91</ele>
        <time>2016-02-28T07:17:56Z</time>
      </trkpt>
      <trkpt lat="41.642715610" lon="2.538772330">
        <ele>390.91</ele>
        <time>2016-02-28T07:17:59Z</time>
      </trkpt>
      <trkpt lat="41.642823060" lon="2.538865280">
        <ele>388.99</ele>
        <time>2016-02-28T07:18:02Z</time>
      </trkpt>
      <trkpt lat="41.642861200" lon="2.538891100">
        <ele>388.99</ele>
        <time>2016-02-28T07:18:03Z</time>
      </trkpt>
      <trkpt lat="41.642941920" lon="2.538942310">
        <ele>388.99</ele>
        <time>2016-02-28T07:18:05Z</time>
      </trkpt>
      <trkpt lat="41.643171670" lon="2.539049600">
        <ele>386.11</ele>
        <time>2016-02-28T07:18:10Z</time>
      </trkpt>
      <trkpt lat="41.643336290" lon="2.539218830">
        <ele>384.18</ele>
        <time>2016-02-28T07:18:14Z</time>
      </trkpt>
      <trkpt lat="41.643402760" lon="2.539347830">
        <ele>382.74</ele>
        <time>2016-02-28T07:18:16Z</time>
      </trkpt>
      <trkpt lat="41.643555220" lon="2.539468610">
        <ele>380.34</ele>
        <time>2016-02-28T07:18:19Z</time>
      </trkpt>
      <trkpt lat="41.643660840" lon="2.539524850">
        <ele>379.38</ele>
        <time>2016-02-28T07:18:21Z</time>
      </trkpt>
      <trkpt lat="41.643812970" lon="2.539608670">
        <ele>376.97</ele>
        <time>2016-02-28T07:18:24Z</time>
      </trkpt>
      <trkpt lat="41.644008770" lon="2.539796260">
        <ele>374.57</ele>
        <time>2016-02-28T07:18:28Z</time>
      </trkpt>
      <trkpt lat="41.644182190" lon="2.540029530">
        <ele>369.76</ele>
        <time>2016-02-28T07:18:32Z</time>
      </trkpt>
      <trkpt lat="41.644300120" lon="2.540299510">
        <ele>366.40</ele>
        <time>2016-02-28T07:18:36Z</time>
      </trkpt>
      <trkpt lat="41.644343040" lon="2.540460360">
        <ele>364.48</ele>
        <time>2016-02-28T07:18:39Z</time>
      </trkpt>
      <trkpt lat="41.644482930" lon="2.540423560">
        <ele>363.04</ele>
        <time>2016-02-28T07:18:42Z</time>
      </trkpt>
      <trkpt lat="41.644561470" lon="2.540231870">
        <ele>360.63</ele>
        <time>2016-02-28T07:18:46Z</time>
      </trkpt>
      <trkpt lat="41.644612680" lon="2.539982250">
        <ele>358.23</ele>
        <time>2016-02-28T07:18:49Z</time>
      </trkpt>
      <trkpt lat="41.644749390" lon="2.539842030">
        <ele>355.83</ele>
        <time>2016-02-28T07:18:53Z</time>
      </trkpt>
      <trkpt lat="41.644800610" lon="2.539861640">
        <ele>355.83</ele>
        <time>2016-02-28T07:18:54Z</time>
      </trkpt>
      <trkpt lat="41.644919130" lon="2.539918720">
        <ele>354.86</ele>
        <time>2016-02-28T07:18:56Z</time>
      </trkpt>
      <trkpt lat="41.645173430" lon="2.540062890">
        <ele>351.98</ele>
        <time>2016-02-28T07:19:00Z</time>
      </trkpt>
      <trkpt lat="41.645311150" lon="2.540123820">
        <ele>351.50</ele>
        <time>2016-02-28T07:19:02Z</time>
      </trkpt>
      <trkpt lat="41.645447690" lon="2.540141590">
        <ele>349.58</ele>
        <time>2016-02-28T07:19:04Z</time>
      </trkpt>
      <trkpt lat="41.645618930" lon="2.540181240">
        <ele>347.65</ele>
        <time>2016-02-28T07:19:07Z</time>
      </trkpt>
      <trkpt lat="41.645846420" lon="2.540289120">
        <ele>348.62</ele>
        <time>2016-02-28T07:19:13Z</time>
      </trkpt>
      <trkpt lat="41.645867870" lon="2.540302020">
        <ele>348.62</ele>
        <time>2016-02-28T07:19:14Z</time>
      </trkpt>
      <trkpt lat="41.645996450" lon="2.540454740">
        <ele>350.54</ele>
        <time>2016-02-28T07:19:21Z</time>
      </trkpt>
      <trkpt lat="41.646090330" lon="2.540587930">
        <ele>352.46</ele>
        <time>2016-02-28T07:19:28Z</time>
      </trkpt>
      <trkpt lat="41.646246480" lon="2.540659510">
        <ele>354.86</ele>
        <time>2016-02-28T07:19:37Z</time>
      </trkpt>
      <trkpt lat="41.646364920" lon="2.540708710">
        <ele>356.79</ele>
        <time>2016-02-28T07:19:45Z</time>
      </trkpt>
      <trkpt lat="41.646418310" lon="2.540726570">
        <ele>358.23</ele>
        <time>2016-02-28T07:19:49Z</time>
      </trkpt>
      <trkpt lat="41.646501210" lon="2.540763110">
        <ele>359.67</ele>
        <time>2016-02-28T07:19:56Z</time>
      </trkpt>
      <trkpt lat="41.646541530" lon="2.540781890">
        <ele>361.59</ele>
        <time>2016-02-28T07:19:59Z</time>
      </trkpt>
      <trkpt lat="41.646675300" lon="2.540799150">
        <ele>362.55</ele>
        <time>2016-02-28T07:20:08Z</time>
      </trkpt>
      <trkpt lat="41.646758540" lon="2.540791950">
        <ele>364.00</ele>
        <time>2016-02-28T07:20:14Z</time>
      </trkpt>
      <trkpt lat="41.646874540" lon="2.540757580">
        <ele>365.44</ele>
        <time>2016-02-28T07:20:22Z</time>
      </trkpt>
      <trkpt lat="41.646981070" lon="2.540748780">
        <ele>365.92</ele>
        <time>2016-02-28T07:20:29Z</time>
      </trkpt>
      <trkpt lat="41.646997750" lon="2.540747020">
        <ele>365.92</ele>
        <time>2016-02-28T07:20:30Z</time>
      </trkpt>
      <trkpt lat="41.647185590" lon="2.540730510">
        <ele>367.84</ele>
        <time>2016-02-28T07:20:41Z</time>
      </trkpt>
      <trkpt lat="41.647355080" lon="2.540748190">
        <ele>368.80</ele>
        <time>2016-02-28T07:20:50Z</time>
      </trkpt>
      <trkpt lat="41.647463540" lon="2.540773250">
        <ele>369.76</ele>
        <time>2016-02-28T07:20:57Z</time>
      </trkpt>
      <trkpt lat="41.647613570" lon="2.540881380">
        <ele>372.17</ele>
        <time>2016-02-28T07:21:07Z</time>
      </trkpt>
      <trkpt lat="41.647736450" lon="2.540983140">
        <ele>374.57</ele>
        <time>2016-02-28T07:21:16Z</time>
      </trkpt>
      <trkpt lat="41.647850530" lon="2.541109290">
        <ele>376.01</ele>
        <time>2016-02-28T07:21:25Z</time>
      </trkpt>
      <trkpt lat="41.647971650" lon="2.541179610">
        <ele>377.94</ele>
        <time>2016-02-28T07:21:34Z</time>
      </trkpt>
      <trkpt lat="41.647993610" lon="2.541203080">
        <ele>378.42</ele>
        <time>2016-02-28T07:21:36Z</time>
      </trkpt>
      <trkpt lat="41.648122860" lon="2.541238200">
        <ele>379.86</ele>
        <time>2016-02-28T07:21:45Z</time>
      </trkpt>
      <trkpt lat="41.648294020" lon="2.541288410">
        <ele>380.82</ele>
        <time>2016-02-28T07:21:54Z</time>
      </trkpt>
      <trkpt lat="41.648470040" lon="2.541333580">
        <ele>381.78</ele>
        <time>2016-02-28T07:22:03Z</time>
      </trkpt>
      <trkpt lat="41.648623760" lon="2.541361920">
        <ele>383.70</ele>
        <time>2016-02-28T07:22:11Z</time>
      </trkpt>
      <trkpt lat="41.648810170" lon="2.541419830">
        <ele>383.70</ele>
        <time>2016-02-28T07:22:20Z</time>
      </trkpt>
      <trkpt lat="41.648958200" lon="2.541551600">
        <ele>385.63</ele>
        <time>2016-02-28T07:22:28Z</time>
      </trkpt>
      <trkpt lat="41.649037410" lon="2.541716810">
        <ele>386.11</ele>
        <time>2016-02-28T07:22:34Z</time>
      </trkpt>
      <trkpt lat="41.649083420" lon="2.542019220">
        <ele>387.07</ele>
        <time>2016-02-28T07:22:43Z</time>
      </trkpt>
      <trkpt lat="41.649094150" lon="2.542277220">
        <ele>388.03</ele>
        <time>2016-02-28T07:22:51Z</time>
      </trkpt>
      <trkpt lat="41.649166320" lon="2.542572090">
        <ele>388.51</ele>
        <time>2016-02-28T07:23:00Z</time>
      </trkpt>
      <trkpt lat="41.649242340" lon="2.542764460">
        <ele>388.99</ele>
        <time>2016-02-28T07:23:06Z</time>
      </trkpt>
      <trkpt lat="41.649345780" lon="2.543066290">
        <ele>389.95</ele>
        <time>2016-02-28T07:23:15Z</time>
      </trkpt>
      <trkpt lat="41.649399090" lon="2.543295290">
        <ele>391.39</ele>
        <time>2016-02-28T07:23:22Z</time>
      </trkpt>
      <trkpt lat="41.649453650" lon="2.543540120">
        <ele>392.84</ele>
        <time>2016-02-28T07:23:30Z</time>
      </trkpt>
      <trkpt lat="41.649485840" lon="2.543810860">
        <ele>394.76</ele>
        <time>2016-02-28T07:23:39Z</time>
      </trkpt>
      <trkpt lat="41.649487930" lon="2.544079080">
        <ele>395.72</ele>
        <time>2016-02-28T07:23:48Z</time>
      </trkpt>
      <trkpt lat="41.649561780" lon="2.544339670">
        <ele>396.20</ele>
        <time>2016-02-28T07:23:56Z</time>
      </trkpt>
      <trkpt lat="41.649618190" lon="2.544445620">
        <ele>396.68</ele>
        <time>2016-02-28T07:24:00Z</time>
      </trkpt>
      <trkpt lat="41.649716090" lon="2.544634460">
        <ele>397.16</ele>
        <time>2016-02-28T07:24:07Z</time>
      </trkpt>
      <trkpt lat="41.649754980" lon="2.544673190">
        <ele>398.12</ele>
        <time>2016-02-28T07:24:09Z</time>
      </trkpt>
      <trkpt lat="41.649937040" lon="2.544713420">
        <ele>399.57</ele>
        <time>2016-02-28T07:24:17Z</time>
      </trkpt>
      <trkpt lat="41.650085820" lon="2.544643100">
        <ele>401.01</ele>
        <time>2016-02-28T07:24:24Z</time>
      </trkpt>
      <trkpt lat="41.650278010" lon="2.544585340">
        <ele>402.93</ele>
        <time>2016-02-28T07:24:33Z</time>
      </trkpt>
      <trkpt lat="41.650485970" lon="2.544611910">
        <ele>404.85</ele>
        <time>2016-02-28T07:24:42Z</time>
      </trkpt>
      <trkpt lat="41.650640190" lon="2.544674860">
        <ele>405.81</ele>
        <time>2016-02-28T07:24:49Z</time>
      </trkpt>
      <trkpt lat="41.650781430" lon="2.544823890">
        <ele>407.26</ele>
        <time>2016-02-28T07:24:58Z</time>
      </trkpt>
      <trkpt lat="41.650882770" lon="2.544918270">
        <ele>408.70</ele>
        <time>2016-02-28T07:25:05Z</time>
      </trkpt>
      <trkpt lat="41.651003050" lon="2.545002930">
        <ele>409.66</ele>
        <time>2016-02-28T07:25:13Z</time>
      </trkpt>
      <trkpt lat="41.651141850" lon="2.544973340">
        <ele>410.62</ele>
        <time>2016-02-28T07:25:21Z</time>
      </trkpt>
      <trkpt lat="41.651258020" lon="2.544911570">
        <ele>411.10</ele>
        <time>2016-02-28T07:25:29Z</time>
      </trkpt>
      <trkpt lat="41.651401100" lon="2.544876360">
        <ele>412.54</ele>
        <time>2016-02-28T07:25:38Z</time>
      </trkpt>
      <trkpt lat="41.651525660" lon="2.544906370">
        <ele>413.98</ele>
        <time>2016-02-28T07:25:45Z</time>
      </trkpt>
      <trkpt lat="41.651563550" lon="2.544908550">
        <ele>413.98</ele>
        <time>2016-02-28T07:25:47Z</time>
      </trkpt>
      <trkpt lat="41.651692960" lon="2.544892040">
        <ele>415.43</ele>
        <time>2016-02-28T07:25:55Z</time>
      </trkpt>
      <trkpt lat="41.651788680" lon="2.544800840">
        <ele>417.35</ele>
        <time>2016-02-28T07:26:03Z</time>
      </trkpt>
      <trkpt lat="41.651802180" lon="2.544769410">
        <ele>417.83</ele>
        <time>2016-02-28T07:26:05Z</time>
      </trkpt>
      <trkpt lat="41.651845260" lon="2.544728260">
        <ele>418.79</ele>
        <time>2016-02-28T07:26:09Z</time>
      </trkpt>
      <trkpt lat="41.651942070" lon="2.544630940">
        <ele>421.68</ele>
        <time>2016-02-28T07:26:17Z</time>
      </trkpt>
      <trkpt lat="41.652031090" lon="2.544555170">
        <ele>423.12</ele>
        <time>2016-02-28T07:26:24Z</time>
      </trkpt>
      <trkpt lat="41.652149520" lon="2.544505970">
        <ele>424.56</ele>
        <time>2016-02-28T07:26:32Z</time>
      </trkpt>
      <trkpt lat="41.652286820" lon="2.544434890">
        <ele>426.48</ele>
        <time>2016-02-28T07:26:41Z</time>
      </trkpt>
      <trkpt lat="41.652392180" lon="2.544407060">
        <ele>426.96</ele>
        <time>2016-02-28T07:26:48Z</time>
      </trkpt>
      <trkpt lat="41.652516230" lon="2.544383840">
        <ele>426.96</ele>
        <time>2016-02-28T07:26:55Z</time>
      </trkpt>
      <trkpt lat="41.652656130" lon="2.544384850">
        <ele>427.44</ele>
        <time>2016-02-28T07:27:03Z</time>
      </trkpt>
      <trkpt lat="41.652773050" lon="2.544387530">
        <ele>428.89</ele>
        <time>2016-02-28T07:27:10Z</time>
      </trkpt>
      <trkpt lat="41.652898450" lon="2.544386940">
        <ele>430.81</ele>
        <time>2016-02-28T07:27:18Z</time>
      </trkpt>
      <trkpt lat="41.652941110" lon="2.544388370">
        <ele>430.81</ele>
        <time>2016-02-28T07:27:21Z</time>
      </trkpt>
      <trkpt lat="41.653051250" lon="2.544381660">
        <ele>431.77</ele>
        <time>2016-02-28T07:27:29Z</time>
      </trkpt>
      <trkpt lat="41.653099700" lon="2.544366070">
        <ele>432.73</ele>
        <time>2016-02-28T07:27:33Z</time>
      </trkpt>
      <trkpt lat="41.653229780" lon="2.544325670">
        <ele>434.17</ele>
        <time>2016-02-28T07:27:43Z</time>
      </trkpt>
      <trkpt lat="41.653326680" lon="2.544313600">
        <ele>436.10</ele>
        <time>2016-02-28T07:27:51Z</time>
      </trkpt>
      <trkpt lat="41.653417200" lon="2.544354760">
        <ele>438.02</ele>
        <time>2016-02-28T07:27:58Z</time>
      </trkpt>
      <trkpt lat="41.653512590" lon="2.544441430">
        <ele>440.42</ele>
        <time>2016-02-28T07:28:07Z</time>
      </trkpt>
      <trkpt lat="41.653599680" lon="2.544499090">
        <ele>440.90</ele>
        <time>2016-02-28T07:28:14Z</time>
      </trkpt>
      <trkpt lat="41.653677960" lon="2.544576040">
        <ele>442.82</ele>
        <time>2016-02-28T07:28:22Z</time>
      </trkpt>
      <trkpt lat="41.653704620" lon="2.544581070">
        <ele>443.31</ele>
        <time>2016-02-28T07:28:24Z</time>
      </trkpt>
      <trkpt lat="41.653745270" lon="2.544543940">
        <ele>444.27</ele>
        <time>2016-02-28T07:28:28Z</time>
      </trkpt>
      <trkpt lat="41.653744260" lon="2.544426340">
        <ele>445.71</ele>
        <time>2016-02-28T07:28:35Z</time>
      </trkpt>
      <trkpt lat="41.653814670" lon="2.544245040">
        <ele>447.15</ele>
        <time>2016-02-28T07:28:46Z</time>
      </trkpt>
      <trkpt lat="41.653888850" lon="2.544077740">
        <ele>447.15</ele>
        <time>2016-02-28T07:28:53Z</time>
      </trkpt>
      <trkpt lat="41.653925900" lon="2.544010090">
        <ele>447.15</ele>
        <time>2016-02-28T07:28:56Z</time>
      </trkpt>
      <trkpt lat="41.654017350" lon="2.543856790">
        <ele>447.15</ele>
        <time>2016-02-28T07:29:03Z</time>
      </trkpt>
      <trkpt lat="41.654065290" lon="2.543793510">
        <ele>447.15</ele>
        <time>2016-02-28T07:29:07Z</time>
      </trkpt>
      <trkpt lat="41.654235860" lon="2.543764250">
        <ele>445.71</ele>
        <time>2016-02-28T07:29:14Z</time>
      </trkpt>
      <trkpt lat="41.654462340" lon="2.543696280">
        <ele>444.27</ele>
        <time>2016-02-28T07:29:20Z</time>
      </trkpt>
      <trkpt lat="41.654490760" lon="2.543675820">
        <ele>444.27</ele>
        <time>2016-02-28T07:29:21Z</time>
      </trkpt>
      <trkpt lat="41.654659400" lon="2.543591750">
        <ele>444.27</ele>
        <time>2016-02-28T07:29:27Z</time>
      </trkpt>
      <trkpt lat="41.654811280" lon="2.543493180">
        <ele>444.75</ele>
        <time>2016-02-28T07:29:33Z</time>
      </trkpt>
      <trkpt lat="41.654989150" lon="2.543318920">
        <ele>444.27</ele>
        <time>2016-02-28T07:29:37Z</time>
      </trkpt>
      <trkpt lat="41.655193160" lon="2.543105350">
        <ele>444.75</ele>
        <time>2016-02-28T07:29:43Z</time>
      </trkpt>
      <trkpt lat="41.655212100" lon="2.543078700">
        <ele>444.75</ele>
        <time>2016-02-28T07:29:44Z</time>
      </trkpt>
      <trkpt lat="41.655324920" lon="2.542834280">
        <ele>445.71</ele>
        <time>2016-02-28T07:29:52Z</time>
      </trkpt>
      <trkpt lat="41.655339680" lon="2.542809550">
        <ele>445.71</ele>
        <time>2016-02-28T07:29:53Z</time>
      </trkpt>
      <trkpt lat="41.655497000" lon="2.542794470">
        <ele>444.75</ele>
        <time>2016-02-28T07:29:58Z</time>
      </trkpt>
      <trkpt lat="41.655653580" lon="2.542836800">
        <ele>441.38</ele>
        <time>2016-02-28T07:30:01Z</time>
      </trkpt>
      <trkpt lat="41.655789280" lon="2.542900830">
        <ele>438.50</ele>
        <time>2016-02-28T07:30:04Z</time>
      </trkpt>
      <trkpt lat="41.655838230" lon="2.542931260">
        <ele>437.54</ele>
        <time>2016-02-28T07:30:05Z</time>
      </trkpt>
      <trkpt lat="41.655944430" lon="2.542972080">
        <ele>435.61</ele>
        <time>2016-02-28T07:30:08Z</time>
      </trkpt>
      <trkpt lat="41.656098150" lon="2.543028490">
        <ele>433.69</ele>
        <time>2016-02-28T07:30:13Z</time>
      </trkpt>
      <trkpt lat="41.656241070" lon="2.543032930">
        <ele>432.73</ele>
        <time>2016-02-28T07:30:17Z</time>
      </trkpt>
      <trkpt lat="41.656289010" lon="2.543005440">
        <ele>432.73</ele>
        <time>2016-02-28T07:30:19Z</time>
      </trkpt>
      <trkpt lat="41.656442730" lon="2.542813330">
        <ele>433.21</ele>
        <time>2016-02-28T07:30:26Z</time>
      </trkpt>
      <trkpt lat="41.656465950" lon="2.542758840">
        <ele>434.65</ele>
        <time>2016-02-28T07:30:28Z</time>
      </trkpt>
      <trkpt lat="41.656515070" lon="2.542548460">
        <ele>435.61</ele>
        <time>2016-02-28T07:30:34Z</time>
      </trkpt>
      <trkpt lat="41.656532090" lon="2.542435890">
        <ele>433.21</ele>
        <time>2016-02-28T07:30:38Z</time>
      </trkpt>
      <trkpt lat="41.656535860" lon="2.542401020">
        <ele>433.21</ele>
        <time>2016-02-28T07:30:48Z</time>
      </trkpt>
      <trkpt lat="41.656545750" lon="2.542379060">
        <ele>432.73</ele>
        <time>2016-02-28T07:31:03Z</time>
      </trkpt>
      <trkpt lat="41.656539460" lon="2.542372610">
        <ele>432.25</ele>
        <time>2016-02-28T07:31:21Z</time>
      </trkpt>
      <trkpt lat="41.656539880" lon="2.542386850">
        <ele>432.25</ele>
        <time>2016-02-28T07:31:41Z</time>
      </trkpt>
      <trkpt lat="41.656547260" lon="2.542397160">
        <ele>432.25</ele>
        <time>2016-02-28T07:31:58Z</time>
      </trkpt>
      <trkpt lat="41.656550110" lon="2.542407060">
        <ele>432.25</ele>
        <time>2016-02-28T07:32:15Z</time>
      </trkpt>
      <trkpt lat="41.656539630" lon="2.542407810">
        <ele>432.25</ele>
        <time>2016-02-28T07:32:31Z</time>
      </trkpt>
      <trkpt lat="41.656537200" lon="2.542408730">
        <ele>432.25</ele>
        <time>2016-02-28T07:32:48Z</time>
      </trkpt>
      <trkpt lat="41.656532670" lon="2.542410990">
        <ele>433.21</ele>
        <time>2016-02-28T07:33:05Z</time>
      </trkpt>
      <trkpt lat="41.656534100" lon="2.542415270">
        <ele>433.21</ele>
        <time>2016-02-28T07:33:24Z</time>
      </trkpt>
      <trkpt lat="41.656534940" lon="2.542409230">
        <ele>433.21</ele>
        <time>2016-02-28T07:33:42Z</time>
      </trkpt>
      <trkpt lat="41.656529660" lon="2.542399510">
        <ele>432.25</ele>
        <time>2016-02-28T07:33:57Z</time>
      </trkpt>
      <trkpt lat="41.656527390" lon="2.542398920">
        <ele>432.25</ele>
        <time>2016-02-28T07:34:10Z</time>
      </trkpt>
      <trkpt lat="41.656525460" lon="2.542395990">
        <ele>432.25</ele>
        <time>2016-02-28T07:34:24Z</time>
      </trkpt>
      <trkpt lat="41.656550950" lon="2.542385680">
        <ele>432.25</ele>
        <time>2016-02-28T07:34:44Z</time>
      </trkpt>
      <trkpt lat="41.656549690" lon="2.542393900">
        <ele>432.25</ele>
        <time>2016-02-28T07:35:04Z</time>
      </trkpt>
      <trkpt lat="41.656549020" lon="2.542391130">
        <ele>432.25</ele>
        <time>2016-02-28T07:35:27Z</time>
      </trkpt>
      <trkpt lat="41.656554130" lon="2.542384260">
        <ele>432.25</ele>
        <time>2016-02-28T07:35:44Z</time>
      </trkpt>
      <trkpt lat="41.656541640" lon="2.542376290">
        <ele>432.73</ele>
        <time>2016-02-28T07:35:57Z</time>
      </trkpt>
      <trkpt lat="41.656538290" lon="2.542377470">
        <ele>432.73</ele>
        <time>2016-02-28T07:36:10Z</time>
      </trkpt>
      <trkpt lat="41.656542730" lon="2.542393730">
        <ele>432.73</ele>
        <time>2016-02-28T07:36:26Z</time>
      </trkpt>
      <trkpt lat="41.656537530" lon="2.542391880">
        <ele>432.73</ele>
        <time>2016-02-28T07:36:48Z</time>
      </trkpt>
      <trkpt lat="41.656533010" lon="2.542380230">
        <ele>432.73</ele>
        <time>2016-02-28T07:37:00Z</time>
      </trkpt>
      <trkpt lat="41.656535020" lon="2.542374780">
        <ele>432.73</ele>
        <time>2016-02-28T07:37:11Z</time>
      </trkpt>
      <trkpt lat="41.656531160" lon="2.542371520">
        <ele>432.25</ele>
        <time>2016-02-28T07:37:34Z</time>
      </trkpt>
      <trkpt lat="41.656542650" lon="2.542350640">
        <ele>432.25</ele>
        <time>2016-02-28T07:38:04Z</time>
      </trkpt>
      <trkpt lat="41.656534850" lon="2.542349470">
        <ele>432.25</ele>
        <time>2016-02-28T07:38:27Z</time>
      </trkpt>
      <trkpt lat="41.656530580" lon="2.542366070">
        <ele>432.25</ele>
        <time>2016-02-28T07:38:53Z</time>
      </trkpt>
      <trkpt lat="41.656524630" lon="2.542385680">
        <ele>432.25</ele>
        <time>2016-02-28T07:39:12Z</time>
      </trkpt>
      <trkpt lat="41.656518000" lon="2.542400100">
        <ele>432.25</ele>
        <time>2016-02-28T07:39:40Z</time>
      </trkpt>
      <trkpt lat="41.656518510" lon="2.542373440">
        <ele>432.25</ele>
        <time>2016-02-28T07:39:54Z</time>
      </trkpt>
      <trkpt lat="41.656522700" lon="2.542360370">
        <ele>432.73</ele>
        <time>2016-02-28T07:40:21Z</time>
      </trkpt>
      <trkpt lat="41.656522200" lon="2.542364310">
        <ele>432.73</ele>
        <time>2016-02-28T07:40:41Z</time>
      </trkpt>
      <trkpt lat="41.656529070" lon="2.542381160">
        <ele>432.25</ele>
        <time>2016-02-28T07:41:05Z</time>
      </trkpt>
      <trkpt lat="41.656529150" lon="2.542388280">
        <ele>432.25</ele>
        <time>2016-02-28T07:41:23Z</time>
      </trkpt>
      <trkpt lat="41.656530580" lon="2.542387530">
        <ele>432.25</ele>
        <time>2016-02-28T07:41:40Z</time>
      </trkpt>
      <trkpt lat="41.656536030" lon="2.542385850">
        <ele>432.25</ele>
        <time>2016-02-28T07:41:49Z</time>
      </trkpt>
      <trkpt lat="41.656545580" lon="2.542282420">
        <ele>431.77</ele>
        <time>2016-02-28T07:41:55Z</time>
      </trkpt>
      <trkpt lat="41.656560670" lon="2.542084020">
        <ele>428.89</ele>
        <time>2016-02-28T07:42:01Z</time>
      </trkpt>
      <trkpt lat="41.656517670" lon="2.541990980">
        <ele>426.96</ele>
        <time>2016-02-28T07:42:04Z</time>
      </trkpt>
      <trkpt lat="41.656585900" lon="2.541928780">
        <ele>424.08</ele>
        <time>2016-02-28T07:42:09Z</time>
      </trkpt>
      <trkpt lat="41.656659070" lon="2.542011600">
        <ele>423.12</ele>
        <time>2016-02-28T07:42:12Z</time>
      </trkpt>
      <trkpt lat="41.656855040" lon="2.542184260">
        <ele>421.68</ele>
        <time>2016-02-28T07:42:19Z</time>
      </trkpt>
      <trkpt lat="41.656909360" lon="2.542356850">
        <ele>421.19</ele>
        <time>2016-02-28T07:42:25Z</time>
      </trkpt>
      <trkpt lat="41.656972810" lon="2.542549550">
        <ele>420.23</ele>
        <time>2016-02-28T07:42:30Z</time>
      </trkpt>
      <trkpt lat="41.657059390" lon="2.542702770">
        <ele>418.79</ele>
        <time>2016-02-28T07:42:36Z</time>
      </trkpt>
      <trkpt lat="41.657207000" lon="2.542900750">
        <ele>415.91</ele>
        <time>2016-02-28T07:42:42Z</time>
      </trkpt>
      <trkpt lat="41.657228450" lon="2.542930760">
        <ele>415.91</ele>
        <time>2016-02-28T07:42:43Z</time>
      </trkpt>
      <trkpt lat="41.657287550" lon="2.542970820">
        <ele>414.95</ele>
        <time>2016-02-28T07:42:46Z</time>
      </trkpt>
      <trkpt lat="41.657341860" lon="2.542949450">
        <ele>415.43</ele>
        <time>2016-02-28T07:42:49Z</time>
      </trkpt>
      <trkpt lat="41.657374720" lon="2.542903850">
        <ele>415.43</ele>
        <time>2016-02-28T07:42:52Z</time>
      </trkpt>
      <trkpt lat="41.657385360" lon="2.542846180">
        <ele>416.39</ele>
        <time>2016-02-28T07:42:55Z</time>
      </trkpt>
      <trkpt lat="41.657388470" lon="2.542674690">
        <ele>418.79</ele>
        <time>2016-02-28T07:43:02Z</time>
      </trkpt>
      <trkpt lat="41.657390480" lon="2.542634620">
        <ele>418.79</ele>
        <time>2016-02-28T07:43:04Z</time>
      </trkpt>
      <trkpt lat="41.657429280" lon="2.542466900">
        <ele>420.23</ele>
        <time>2016-02-28T07:43:11Z</time>
      </trkpt>
      <trkpt lat="41.657506060" lon="2.542312420">
        <ele>421.68</ele>
        <time>2016-02-28T07:43:19Z</time>
      </trkpt>
      <trkpt lat="41.657527440" lon="2.542245370">
        <ele>422.16</ele>
        <time>2016-02-28T07:43:22Z</time>
      </trkpt>
      <trkpt lat="41.657527600" lon="2.542027610">
        <ele>422.16</ele>
        <time>2016-02-28T07:43:29Z</time>
      </trkpt>
      <trkpt lat="41.657546130" lon="2.541869020">
        <ele>422.16</ele>
        <time>2016-02-28T07:43:36Z</time>
      </trkpt>
      <trkpt lat="41.657555100" lon="2.541801710">
        <ele>422.16</ele>
        <time>2016-02-28T07:43:39Z</time>
      </trkpt>
      <trkpt lat="41.657613600" lon="2.541683610">
        <ele>423.12</ele>
        <time>2016-02-28T07:43:45Z</time>
      </trkpt>
      <trkpt lat="41.657646290" lon="2.541507680">
        <ele>424.08</ele>
        <time>2016-02-28T07:43:53Z</time>
      </trkpt>
      <trkpt lat="41.657661380" lon="2.541450760">
        <ele>424.56</ele>
        <time>2016-02-28T07:43:56Z</time>
      </trkpt>
      <trkpt lat="41.657718540" lon="2.541429810">
        <ele>425.04</ele>
        <time>2016-02-28T07:44:00Z</time>
      </trkpt>
      <trkpt lat="41.657886430" lon="2.541486300">
        <ele>423.60</ele>
        <time>2016-02-28T07:44:07Z</time>
      </trkpt>
      <trkpt lat="41.658052060" lon="2.541575320">
        <ele>420.23</ele>
        <time>2016-02-28T07:44:12Z</time>
      </trkpt>
      <trkpt lat="41.658096320" lon="2.541597950">
        <ele>419.27</ele>
        <time>2016-02-28T07:44:13Z</time>
      </trkpt>
      <trkpt lat="41.658183150" lon="2.541673220">
        <ele>418.79</ele>
        <time>2016-02-28T07:44:15Z</time>
      </trkpt>
      <trkpt lat="41.658230590" lon="2.541717900">
        <ele>417.83</ele>
        <time>2016-02-28T07:44:16Z</time>
      </trkpt>
      <trkpt lat="41.658334530" lon="2.541794840">
        <ele>417.35</ele>
        <time>2016-02-28T07:44:18Z</time>
      </trkpt>
      <trkpt lat="41.658413570" lon="2.541844290">
        <ele>416.39</ele>
        <time>2016-02-28T07:44:20Z</time>
      </trkpt>
      <trkpt lat="41.658462350" lon="2.541899450">
        <ele>415.91</ele>
        <time>2016-02-28T07:44:22Z</time>
      </trkpt>
      <trkpt lat="41.658615990" lon="2.542082170">
        <ele>415.43</ele>
        <time>2016-02-28T07:44:28Z</time>
      </trkpt>
      <trkpt lat="41.658766870" lon="2.542039590">
        <ele>410.14</ele>
        <time>2016-02-28T07:44:33Z</time>
      </trkpt>
      <trkpt lat="41.658766450" lon="2.541786960">
        <ele>410.62</ele>
        <time>2016-02-28T07:44:41Z</time>
      </trkpt>
      <trkpt lat="41.658750360" lon="2.541701550">
        <ele>411.58</ele>
        <time>2016-02-28T07:44:44Z</time>
      </trkpt>
      <trkpt lat="41.658688250" lon="2.541473730">
        <ele>412.54</ele>
        <time>2016-02-28T07:44:52Z</time>
      </trkpt>
      <trkpt lat="41.658690510" lon="2.541401560">
        <ele>412.54</ele>
        <time>2016-02-28T07:44:55Z</time>
      </trkpt>
      <trkpt lat="41.658736530" lon="2.541287400">
        <ele>413.02</ele>
        <time>2016-02-28T07:45:02Z</time>
      </trkpt>
      <trkpt lat="41.658789580" lon="2.541234260">
        <ele>413.02</ele>
        <time>2016-02-28T07:45:06Z</time>
      </trkpt>
      <trkpt lat="41.658806180" lon="2.541092860">
        <ele>413.50</ele>
        <time>2016-02-28T07:45:13Z</time>
      </trkpt>
      <trkpt lat="41.658780950" lon="2.540993530">
        <ele>414.47</ele>
        <time>2016-02-28T07:45:17Z</time>
      </trkpt>
      <trkpt lat="41.658705680" lon="2.540833440">
        <ele>415.91</ele>
        <time>2016-02-28T07:45:24Z</time>
      </trkpt>
      <trkpt lat="41.658685820" lon="2.540795550">
        <ele>416.39</ele>
        <time>2016-02-28T07:45:26Z</time>
      </trkpt>
      <trkpt lat="41.658593700" lon="2.540625570">
        <ele>418.31</ele>
        <time>2016-02-28T07:45:34Z</time>
      </trkpt>
      <trkpt lat="41.658572160" lon="2.540598490">
        <ele>419.27</ele>
        <time>2016-02-28T07:45:36Z</time>
      </trkpt>
      <trkpt lat="41.658504010" lon="2.540467060">
        <ele>420.23</ele>
        <time>2016-02-28T07:45:44Z</time>
      </trkpt>
      <trkpt lat="41.658484400" lon="2.540390200">
        <ele>421.19</ele>
        <time>2016-02-28T07:45:48Z</time>
      </trkpt>
      <trkpt lat="41.658527570" lon="2.540240250">
        <ele>423.12</ele>
        <time>2016-02-28T07:45:58Z</time>
      </trkpt>
      <trkpt lat="41.658593620" lon="2.540159950">
        <ele>423.60</ele>
        <time>2016-02-28T07:46:06Z</time>
      </trkpt>
      <trkpt lat="41.658681210" lon="2.540054840">
        <ele>425.52</ele>
        <time>2016-02-28T07:46:14Z</time>
      </trkpt>
      <trkpt lat="41.658723620" lon="2.540003040">
        <ele>426.48</ele>
        <time>2016-02-28T07:46:18Z</time>
      </trkpt>
      <trkpt lat="41.658830990" lon="2.539876640">
        <ele>427.92</ele>
        <time>2016-02-28T07:46:27Z</time>
      </trkpt>
      <trkpt lat="41.658873320" lon="2.539749660">
        <ele>429.85</ele>
        <time>2016-02-28T07:46:35Z</time>
      </trkpt>
      <trkpt lat="41.658860580" lon="2.539687040">
        <ele>430.33</ele>
        <time>2016-02-28T07:46:38Z</time>
      </trkpt>
      <trkpt lat="41.658748680" lon="2.539638930">
        <ele>430.33</ele>
        <time>2016-02-28T07:46:47Z</time>
      </trkpt>
      <trkpt lat="41.658637540" lon="2.539606070">
        <ele>430.33</ele>
        <time>2016-02-28T07:46:52Z</time>
      </trkpt>
      <trkpt lat="41.658525220" lon="2.539470120">
        <ele>430.33</ele>
        <time>2016-02-28T07:46:58Z</time>
      </trkpt>
      <trkpt lat="41.658350120" lon="2.539421000">
        <ele>430.33</ele>
        <time>2016-02-28T07:47:05Z</time>
      </trkpt>
      <trkpt lat="41.658197150" lon="2.539357720">
        <ele>430.81</ele>
        <time>2016-02-28T07:47:12Z</time>
      </trkpt>
      <trkpt lat="41.658056080" lon="2.539223860">
        <ele>432.25</ele>
        <time>2016-02-28T07:47:19Z</time>
      </trkpt>
      <trkpt lat="41.658081650" lon="2.539071980">
        <ele>432.73</ele>
        <time>2016-02-28T07:47:25Z</time>
      </trkpt>
      <trkpt lat="41.658165640" lon="2.538907610">
        <ele>434.17</ele>
        <time>2016-02-28T07:47:33Z</time>
      </trkpt>
      <trkpt lat="41.658243250" lon="2.538758660">
        <ele>435.61</ele>
        <time>2016-02-28T07:47:40Z</time>
      </trkpt>
      <trkpt lat="41.658260600" lon="2.538572920">
        <ele>438.02</ele>
        <time>2016-02-28T07:47:47Z</time>
      </trkpt>
      <trkpt lat="41.658221370" lon="2.538383490">
        <ele>439.46</ele>
        <time>2016-02-28T07:47:54Z</time>
      </trkpt>
      <trkpt lat="41.658177200" lon="2.538179060">
        <ele>440.90</ele>
        <time>2016-02-28T07:48:02Z</time>
      </trkpt>
      <trkpt lat="41.658188850" lon="2.537864320">
        <ele>441.38</ele>
        <time>2016-02-28T07:48:10Z</time>
      </trkpt>
      <trkpt lat="41.658271750" lon="2.537663820">
        <ele>441.38</ele>
        <time>2016-02-28T07:48:16Z</time>
      </trkpt>
      <trkpt lat="41.658286330" lon="2.537594250">
        <ele>441.38</ele>
        <time>2016-02-28T07:48:18Z</time>
      </trkpt>
      <trkpt lat="41.658250710" lon="2.537466430">
        <ele>441.38</ele>
        <time>2016-02-28T07:48:22Z</time>
      </trkpt>
      <trkpt lat="41.658155660" lon="2.537255870">
        <ele>442.34</ele>
        <time>2016-02-28T07:48:30Z</time>
      </trkpt>
      <trkpt lat="41.658108640" lon="2.537048420">
        <ele>445.23</ele>
        <time>2016-02-28T07:48:40Z</time>
      </trkpt>
      <trkpt lat="41.658090780" lon="2.536895200">
        <ele>448.11</ele>
        <time>2016-02-28T07:48:48Z</time>
      </trkpt>
      <trkpt lat="41.658073850" lon="2.536753630">
        <ele>449.07</ele>
        <time>2016-02-28T07:48:55Z</time>
      </trkpt>
      <trkpt lat="41.658065470" lon="2.536611640">
        <ele>450.52</ele>
        <time>2016-02-28T07:49:02Z</time>
      </trkpt>
      <trkpt lat="41.658114840" lon="2.536435950">
        <ele>451.48</ele>
        <time>2016-02-28T07:49:11Z</time>
      </trkpt>
      <trkpt lat="41.658214080" lon="2.536321960">
        <ele>451.00</ele>
        <time>2016-02-28T07:49:16Z</time>
      </trkpt>
      <trkpt lat="41.658266050" lon="2.536116860">
        <ele>450.03</ele>
        <time>2016-02-28T07:49:20Z</time>
      </trkpt>
      <trkpt lat="41.658252140" lon="2.535786190">
        <ele>449.07</ele>
        <time>2016-02-28T07:49:27Z</time>
      </trkpt>
      <trkpt lat="41.658187010" lon="2.535565490">
        <ele>448.59</ele>
        <time>2016-02-28T07:49:33Z</time>
      </trkpt>
      <trkpt lat="41.658015010" lon="2.535177240">
        <ele>447.15</ele>
        <time>2016-02-28T07:49:41Z</time>
      </trkpt>
      <trkpt lat="41.657989950" lon="2.535116640">
        <ele>446.67</ele>
        <time>2016-02-28T07:49:42Z</time>
      </trkpt>
      <trkpt lat="41.657811000" lon="2.534896370">
        <ele>443.31</ele>
        <time>2016-02-28T07:49:47Z</time>
      </trkpt>
      <trkpt lat="41.657672440" lon="2.534773490">
        <ele>439.94</ele>
        <time>2016-02-28T07:49:51Z</time>
      </trkpt>
      <trkpt lat="41.657413690" lon="2.534621780">
        <ele>437.06</ele>
        <time>2016-02-28T07:49:55Z</time>
      </trkpt>
      <trkpt lat="41.657242620" lon="2.534535690">
        <ele>435.13</ele>
        <time>2016-02-28T07:49:57Z</time>
      </trkpt>
      <trkpt lat="41.657022090" lon="2.534331010">
        <ele>432.73</ele>
        <time>2016-02-28T07:50:00Z</time>
      </trkpt>
      <trkpt lat="41.656769290" lon="2.533868830">
        <ele>431.77</ele>
        <time>2016-02-28T07:50:05Z</time>
      </trkpt>
      <trkpt lat="41.656731070" lon="2.533782750">
        <ele>431.77</ele>
        <time>2016-02-28T07:50:06Z</time>
      </trkpt>
      <trkpt lat="41.656706350" lon="2.533357030">
        <ele>431.29</ele>
        <time>2016-02-28T07:50:11Z</time>
      </trkpt>
      <trkpt lat="41.656709450" lon="2.533281840">
        <ele>430.81</ele>
        <time>2016-02-28T07:50:12Z</time>
      </trkpt>
      <trkpt lat="41.656707270" lon="2.533037760">
        <ele>428.40</ele>
        <time>2016-02-28T07:50:17Z</time>
      </trkpt>
      <trkpt lat="41.656746580" lon="2.533039190">
        <ele>428.40</ele>
        <time>2016-02-28T07:50:20Z</time>
      </trkpt>
      <trkpt lat="41.656869460" lon="2.533173970">
        <ele>428.40</ele>
        <time>2016-02-28T07:50:26Z</time>
      </trkpt>
      <trkpt lat="41.656890080" lon="2.533286120">
        <ele>427.44</ele>
        <time>2016-02-28T07:50:28Z</time>
      </trkpt>
      <trkpt lat="41.656990240" lon="2.533596590">
        <ele>425.04</ele>
        <time>2016-02-28T07:50:33Z</time>
      </trkpt>
      <trkpt lat="41.657078750" lon="2.533822980">
        <ele>423.60</ele>
        <time>2016-02-28T07:50:38Z</time>
      </trkpt>
      <trkpt lat="41.657099370" lon="2.533858940">
        <ele>423.60</ele>
        <time>2016-02-28T07:50:40Z</time>
      </trkpt>
      <trkpt lat="41.657143630" lon="2.533901690">
        <ele>423.60</ele>
        <time>2016-02-28T07:50:43Z</time>
      </trkpt>
      <trkpt lat="41.657271620" lon="2.533888690">
        <ele>425.04</ele>
        <time>2016-02-28T07:50:50Z</time>
      </trkpt>
      <trkpt lat="41.657293250" lon="2.533884250">
        <ele>425.04</ele>
        <time>2016-02-28T07:50:51Z</time>
      </trkpt>
      <trkpt lat="41.657463730" lon="2.533846950">
        <ele>425.52</ele>
        <time>2016-02-28T07:50:58Z</time>
      </trkpt>
      <trkpt lat="41.657598930" lon="2.533838400">
        <ele>426.96</ele>
        <time>2016-02-28T07:51:05Z</time>
      </trkpt>
      <trkpt lat="41.657735730" lon="2.533880820">
        <ele>428.40</ele>
        <time>2016-02-28T07:51:12Z</time>
      </trkpt>
      <trkpt lat="41.657826250" lon="2.533998670">
        <ele>429.85</ele>
        <time>2016-02-28T07:51:19Z</time>
      </trkpt>
      <trkpt lat="41.657849550" lon="2.534058090">
        <ele>429.85</ele>
        <time>2016-02-28T07:51:21Z</time>
      </trkpt>
      <trkpt lat="41.657915440" lon="2.534201760">
        <ele>428.40</ele>
        <time>2016-02-28T07:51:25Z</time>
      </trkpt>
      <trkpt lat="41.658095390" lon="2.534319780">
        <ele>428.40</ele>
        <time>2016-02-28T07:51:32Z</time>
      </trkpt>
      <trkpt lat="41.658276780" lon="2.534491100">
        <ele>426.96</ele>
        <time>2016-02-28T07:51:38Z</time>
      </trkpt>
      <trkpt lat="41.658421790" lon="2.534599140">
        <ele>424.08</ele>
        <time>2016-02-28T07:51:43Z</time>
      </trkpt>
      <trkpt lat="41.658439810" lon="2.534602500">
        <ele>423.60</ele>
        <time>2016-02-28T07:51:44Z</time>
      </trkpt>
      <trkpt lat="41.658532510" lon="2.534583470">
        <ele>420.71</ele>
        <time>2016-02-28T07:51:49Z</time>
      </trkpt>
      <trkpt lat="41.658593280" lon="2.534581710">
        <ele>419.27</ele>
        <time>2016-02-28T07:51:53Z</time>
      </trkpt>
      <trkpt lat="41.658709200" lon="2.534634100">
        <ele>417.83</ele>
        <time>2016-02-28T07:51:59Z</time>
      </trkpt>
      <trkpt lat="41.658792770" lon="2.534646250">
        <ele>415.43</ele>
        <time>2016-02-28T07:52:03Z</time>
      </trkpt>
      <trkpt lat="41.658892430" lon="2.534798630">
        <ele>413.98</ele>
        <time>2016-02-28T07:52:08Z</time>
      </trkpt>
      <trkpt lat="41.659011370" lon="2.535060650">
        <ele>413.50</ele>
        <time>2016-02-28T07:52:14Z</time>
      </trkpt>
      <trkpt lat="41.659134500" lon="2.535231310">
        <ele>412.06</ele>
        <time>2016-02-28T07:52:19Z</time>
      </trkpt>
      <trkpt lat="41.659371620" lon="2.535317470">
        <ele>408.70</ele>
        <time>2016-02-28T07:52:25Z</time>
      </trkpt>
      <trkpt lat="41.659456360" lon="2.535350410">
        <ele>408.22</ele>
        <time>2016-02-28T07:52:29Z</time>
      </trkpt>
      <trkpt lat="41.659506570" lon="2.535371370">
        <ele>407.74</ele>
        <time>2016-02-28T07:52:41Z</time>
      </trkpt>
      <trkpt lat="41.659601790" lon="2.535418220">
        <ele>407.74</ele>
        <time>2016-02-28T07:52:46Z</time>
      </trkpt>
      <trkpt lat="41.659728780" lon="2.535521910">
        <ele>406.77</ele>
        <time>2016-02-28T07:52:51Z</time>
      </trkpt>
      <trkpt lat="41.659822230" lon="2.535643280">
        <ele>405.81</ele>
        <time>2016-02-28T07:52:56Z</time>
      </trkpt>
      <trkpt lat="41.659926510" lon="2.535778980">
        <ele>405.33</ele>
        <time>2016-02-28T07:53:02Z</time>
      </trkpt>
      <trkpt lat="41.660059780" lon="2.535852660">
        <ele>405.33</ele>
        <time>2016-02-28T07:53:07Z</time>
      </trkpt>
      <trkpt lat="41.660253060" lon="2.535967910">
        <ele>404.85</ele>
        <time>2016-02-28T07:53:13Z</time>
      </trkpt>
      <trkpt lat="41.660355490" lon="2.536106460">
        <ele>404.37</ele>
        <time>2016-02-28T07:53:18Z</time>
      </trkpt>
      <trkpt lat="41.660408720" lon="2.536315670">
        <ele>404.37</ele>
        <time>2016-02-28T07:53:24Z</time>
      </trkpt>
      <trkpt lat="41.660413750" lon="2.536452380">
        <ele>404.85</ele>
        <time>2016-02-28T07:53:27Z</time>
      </trkpt>
      <trkpt lat="41.660506530" lon="2.536596550">
        <ele>404.85</ele>
        <time>2016-02-28T07:53:31Z</time>
      </trkpt>
      <trkpt lat="41.660581220" lon="2.536612730">
        <ele>404.37</ele>
        <time>2016-02-28T07:53:33Z</time>
      </trkpt>
      <trkpt lat="41.660645000" lon="2.536682220">
        <ele>403.89</ele>
        <time>2016-02-28T07:53:37Z</time>
      </trkpt>
      <trkpt lat="41.660737370" lon="2.536862010">
        <ele>403.89</ele>
        <time>2016-02-28T07:53:45Z</time>
      </trkpt>
      <trkpt lat="41.660842810" lon="2.536788160">
        <ele>403.89</ele>
        <time>2016-02-28T07:53:51Z</time>
      </trkpt>
      <trkpt lat="41.660903000" lon="2.536672160">
        <ele>400.53</ele>
        <time>2016-02-28T07:53:54Z</time>
      </trkpt>
      <trkpt lat="41.660994700" lon="2.536524550">
        <ele>398.12</ele>
        <time>2016-02-28T07:54:00Z</time>
      </trkpt>
      <trkpt lat="41.661007600" lon="2.536503680">
        <ele>397.16</ele>
        <time>2016-02-28T07:54:01Z</time>
      </trkpt>
      <trkpt lat="41.661210280" lon="2.536487420">
        <ele>395.24</ele>
        <time>2016-02-28T07:54:05Z</time>
      </trkpt>
      <trkpt lat="41.661315050" lon="2.536465790">
        <ele>394.76</ele>
        <time>2016-02-28T07:54:07Z</time>
      </trkpt>
      <trkpt lat="41.661367100" lon="2.536334790">
        <ele>394.76</ele>
        <time>2016-02-28T07:54:10Z</time>
      </trkpt>
      <trkpt lat="41.661352850" lon="2.536098250">
        <ele>394.76</ele>
        <time>2016-02-28T07:54:16Z</time>
      </trkpt>
      <trkpt lat="41.661332650" lon="2.535882580">
        <ele>392.36</ele>
        <time>2016-02-28T07:54:20Z</time>
      </trkpt>
      <trkpt lat="41.661387390" lon="2.535647640">
        <ele>390.91</ele>
        <time>2016-02-28T07:54:24Z</time>
      </trkpt>
      <trkpt lat="41.661512700" lon="2.535397020">
        <ele>390.91</ele>
        <time>2016-02-28T07:54:31Z</time>
      </trkpt>
      <trkpt lat="41.661536000" lon="2.535329710">
        <ele>392.36</ele>
        <time>2016-02-28T07:54:33Z</time>
      </trkpt>
      <trkpt lat="41.661562570" lon="2.535272460">
        <ele>392.84</ele>
        <time>2016-02-28T07:54:35Z</time>
      </trkpt>
      <trkpt lat="41.661703640" lon="2.535192500">
        <ele>393.80</ele>
        <time>2016-02-28T07:54:42Z</time>
      </trkpt>
      <trkpt lat="41.661844450" lon="2.535357290">
        <ele>393.80</ele>
        <time>2016-02-28T07:54:48Z</time>
      </trkpt>
      <trkpt lat="41.661957190" lon="2.535463820">
        <ele>393.80</ele>
        <time>2016-02-28T07:54:54Z</time>
      </trkpt>
      <trkpt lat="41.662047290" lon="2.535492570">
        <ele>392.36</ele>
        <time>2016-02-28T07:54:58Z</time>
      </trkpt>
      <trkpt lat="41.662099850" lon="2.535531720">
        <ele>392.36</ele>
        <time>2016-02-28T07:55:01Z</time>
      </trkpt>
      <trkpt lat="41.662185760" lon="2.535450830">
        <ele>392.36</ele>
        <time>2016-02-28T07:55:06Z</time>
      </trkpt>
      <trkpt lat="41.662193220" lon="2.535406990">
        <ele>392.36</ele>
        <time>2016-02-28T07:55:07Z</time>
      </trkpt>
      <trkpt lat="41.662269750" lon="2.535203400">
        <ele>393.80</ele>
        <time>2016-02-28T07:55:13Z</time>
      </trkpt>
      <trkpt lat="41.662403440" lon="2.535104910">
        <ele>395.72</ele>
        <time>2016-02-28T07:55:19Z</time>
      </trkpt>
      <trkpt lat="41.662529420" lon="2.535121670">
        <ele>397.16</ele>
        <time>2016-02-28T07:55:26Z</time>
      </trkpt>
      <trkpt lat="41.662561440" lon="2.535121500">
        <ele>398.12</ele>
        <time>2016-02-28T07:55:29Z</time>
      </trkpt>
      <trkpt lat="41.662627150" lon="2.535127620">
        <ele>399.57</ele>
        <time>2016-02-28T07:55:35Z</time>
      </trkpt>
      <trkpt lat="41.662724970" lon="2.535131140">
        <ele>400.53</ele>
        <time>2016-02-28T07:55:40Z</time>
      </trkpt>
      <trkpt lat="41.662866630" lon="2.535258300">
        <ele>401.01</ele>
        <time>2016-02-28T07:55:47Z</time>
      </trkpt>
      <trkpt lat="41.662890430" lon="2.535275560">
        <ele>401.01</ele>
        <time>2016-02-28T07:55:48Z</time>
      </trkpt>
      <trkpt lat="41.662973240" lon="2.535398950">
        <ele>401.01</ele>
        <time>2016-02-28T07:55:53Z</time>
      </trkpt>
      <trkpt lat="41.663128390" lon="2.535608830">
        <ele>401.97</ele>
        <time>2016-02-28T07:56:01Z</time>
      </trkpt>
      <trkpt lat="41.663268030" lon="2.535782750">
        <ele>402.93</ele>
        <time>2016-02-28T07:56:08Z</time>
      </trkpt>
      <trkpt lat="41.663350600" lon="2.535890710">
        <ele>403.89</ele>
        <time>2016-02-28T07:56:14Z</time>
      </trkpt>
      <trkpt lat="41.663392840" lon="2.535949800">
        <ele>404.85</ele>
        <time>2016-02-28T07:56:17Z</time>
      </trkpt>
      <trkpt lat="41.663477580" lon="2.536069670">
        <ele>406.77</ele>
        <time>2016-02-28T07:56:23Z</time>
      </trkpt>
      <trkpt lat="41.663558050" lon="2.536240490">
        <ele>407.26</ele>
        <time>2016-02-28T07:56:30Z</time>
      </trkpt>
      <trkpt lat="41.663640780" lon="2.536393120">
        <ele>408.22</ele>
        <time>2016-02-28T07:56:37Z</time>
      </trkpt>
      <trkpt lat="41.663743880" lon="2.536566460">
        <ele>409.18</ele>
        <time>2016-02-28T07:56:44Z</time>
      </trkpt>
      <trkpt lat="41.663784360" lon="2.536582810">
        <ele>409.66</ele>
        <time>2016-02-28T07:56:47Z</time>
      </trkpt>
      <trkpt lat="41.663877320" lon="2.536538130">
        <ele>410.62</ele>
        <time>2016-02-28T07:56:53Z</time>
      </trkpt>
      <trkpt lat="41.663952420" lon="2.536439890">
        <ele>411.58</ele>
        <time>2016-02-28T07:56:59Z</time>
      </trkpt>
      <trkpt lat="41.664046040" lon="2.536469150">
        <ele>412.54</ele>
        <time>2016-02-28T07:57:05Z</time>
      </trkpt>
      <trkpt lat="41.664087870" lon="2.536530420">
        <ele>412.54</ele>
        <time>2016-02-28T07:57:08Z</time>
      </trkpt>
      <trkpt lat="41.664221390" lon="2.536696300">
        <ele>412.54</ele>
        <time>2016-02-28T07:57:15Z</time>
      </trkpt>
      <trkpt lat="41.664271180" lon="2.536937700">
        <ele>412.54</ele>
        <time>2016-02-28T07:57:22Z</time>
      </trkpt>
      <trkpt lat="41.664281160" lon="2.536993270">
        <ele>412.54</ele>
        <time>2016-02-28T07:57:23Z</time>
      </trkpt>
      <trkpt lat="41.664316860" lon="2.537134750">
        <ele>411.10</ele>
        <time>2016-02-28T07:57:26Z</time>
      </trkpt>
      <trkpt lat="41.664406800" lon="2.537369030">
        <ele>411.10</ele>
        <time>2016-02-28T07:57:32Z</time>
      </trkpt>
      <trkpt lat="41.664495060" lon="2.537686030">
        <ele>409.66</ele>
        <time>2016-02-28T07:57:39Z</time>
      </trkpt>
      <trkpt lat="41.664524230" lon="2.537848310">
        <ele>409.18</ele>
        <time>2016-02-28T07:57:44Z</time>
      </trkpt>
      <trkpt lat="41.664616520" lon="2.538032040">
        <ele>409.18</ele>
        <time>2016-02-28T07:57:49Z</time>
      </trkpt>
      <trkpt lat="41.664696980" lon="2.538284840">
        <ele>408.70</ele>
        <time>2016-02-28T07:57:56Z</time>
      </trkpt>
      <trkpt lat="41.664719530" lon="2.538528160">
        <ele>408.70</ele>
        <time>2016-02-28T07:58:02Z</time>
      </trkpt>
      <trkpt lat="41.664735450" lon="2.538551970">
        <ele>408.70</ele>
        <time>2016-02-28T07:58:03Z</time>
      </trkpt>
      <trkpt lat="41.664890940" lon="2.538675180">
        <ele>408.70</ele>
        <time>2016-02-28T07:58:09Z</time>
      </trkpt>
      <trkpt lat="41.664922370" lon="2.538843410">
        <ele>408.70</ele>
        <time>2016-02-28T07:58:14Z</time>
      </trkpt>
      <trkpt lat="41.664919350" lon="2.538930330">
        <ele>408.70</ele>
        <time>2016-02-28T07:58:19Z</time>
      </trkpt>
      <trkpt lat="41.664896390" lon="2.539069300">
        <ele>408.22</ele>
        <time>2016-02-28T07:58:24Z</time>
      </trkpt>
      <trkpt lat="41.665023290" lon="2.539282870">
        <ele>407.26</ele>
        <time>2016-02-28T07:58:30Z</time>
      </trkpt>
      <trkpt lat="41.665239040" lon="2.539375400">
        <ele>405.81</ele>
        <time>2016-02-28T07:58:35Z</time>
      </trkpt>
      <trkpt lat="41.665395610" lon="2.539424860">
        <ele>404.37</ele>
        <time>2016-02-28T07:58:38Z</time>
      </trkpt>
      <trkpt lat="41.665501390" lon="2.539445230">
        <ele>403.89</ele>
        <time>2016-02-28T07:58:40Z</time>
      </trkpt>
      <trkpt lat="41.665670710" lon="2.539391250">
        <ele>403.41</ele>
        <time>2016-02-28T07:58:44Z</time>
      </trkpt>
      <trkpt lat="41.665868520" lon="2.539271890">
        <ele>401.97</ele>
        <time>2016-02-28T07:58:49Z</time>
      </trkpt>
      <trkpt lat="41.666041190" lon="2.539321590">
        <ele>400.53</ele>
        <time>2016-02-28T07:58:53Z</time>
      </trkpt>
      <trkpt lat="41.666156100" lon="2.539369030">
        <ele>399.08</ele>
        <time>2016-02-28T07:58:56Z</time>
      </trkpt>
      <trkpt lat="41.666383840" lon="2.539351850">
        <ele>397.64</ele>
        <time>2016-02-28T07:59:02Z</time>
      </trkpt>
      <trkpt lat="41.666418790" lon="2.539352770">
        <ele>398.60</ele>
        <time>2016-02-28T07:59:04Z</time>
      </trkpt>
      <trkpt lat="41.666571180" lon="2.539367610">
        <ele>400.53</ele>
        <time>2016-02-28T07:59:11Z</time>
      </trkpt>
      <trkpt lat="41.666668240" lon="2.539423270">
        <ele>401.97</ele>
        <time>2016-02-28T07:59:18Z</time>
      </trkpt>
      <trkpt lat="41.666787510" lon="2.539440620">
        <ele>402.93</ele>
        <time>2016-02-28T07:59:25Z</time>
      </trkpt>
      <trkpt lat="41.666894550" lon="2.539349000">
        <ele>403.89</ele>
        <time>2016-02-28T07:59:31Z</time>
      </trkpt>
      <trkpt lat="41.667050370" lon="2.539227040">
        <ele>405.33</ele>
        <time>2016-02-28T07:59:39Z</time>
      </trkpt>
      <trkpt lat="41.667189760" lon="2.539157640">
        <ele>406.77</ele>
        <time>2016-02-28T07:59:47Z</time>
      </trkpt>
      <trkpt lat="41.667286650" lon="2.539047590">
        <ele>407.26</ele>
        <time>2016-02-28T07:59:53Z</time>
      </trkpt>
      <trkpt lat="41.667410370" lon="2.538868130">
        <ele>409.66</ele>
        <time>2016-02-28T08:00:03Z</time>
      </trkpt>
      <trkpt lat="41.667438200" lon="2.538801580">
        <ele>410.14</ele>
        <time>2016-02-28T08:00:06Z</time>
      </trkpt>
      <trkpt lat="41.667573060" lon="2.538732260">
        <ele>412.06</ele>
        <time>2016-02-28T08:00:15Z</time>
      </trkpt>
      <trkpt lat="41.667659060" lon="2.538678700">
        <ele>412.54</ele>
        <time>2016-02-28T08:00:21Z</time>
      </trkpt>
      <trkpt lat="41.667778250" lon="2.538600750">
        <ele>414.47</ele>
        <time>2016-02-28T08:00:29Z</time>
      </trkpt>
      <trkpt lat="41.667791330" lon="2.538588340">
        <ele>414.47</ele>
        <time>2016-02-28T08:00:30Z</time>
      </trkpt>
      <trkpt lat="41.667897110" lon="2.538540570">
        <ele>415.91</ele>
        <time>2016-02-28T08:00:37Z</time>
      </trkpt>
      <trkpt lat="41.668039430" lon="2.538494050">
        <ele>418.31</ele>
        <time>2016-02-28T08:00:46Z</time>
      </trkpt>
      <trkpt lat="41.668167170" lon="2.538464380">
        <ele>419.27</ele>
        <time>2016-02-28T08:00:54Z</time>
      </trkpt>
      <trkpt lat="41.668308240" lon="2.538465970">
        <ele>421.19</ele>
        <time>2016-02-28T08:01:02Z</time>
      </trkpt>
      <trkpt lat="41.668441680" lon="2.538443590">
        <ele>421.68</ele>
        <time>2016-02-28T08:01:09Z</time>
      </trkpt>
      <trkpt lat="41.668588620" lon="2.538432780">
        <ele>420.71</ele>
        <time>2016-02-28T08:01:15Z</time>
      </trkpt>
      <trkpt lat="41.668663380" lon="2.538448370">
        <ele>419.75</ele>
        <time>2016-02-28T08:01:17Z</time>
      </trkpt>
      <trkpt lat="41.668810900" lon="2.538421040">
        <ele>418.79</ele>
        <time>2016-02-28T08:01:20Z</time>
      </trkpt>
      <trkpt lat="41.668861450" lon="2.538393380">
        <ele>417.83</ele>
        <time>2016-02-28T08:01:21Z</time>
      </trkpt>
      <trkpt lat="41.669061270" lon="2.538428750">
        <ele>417.35</ele>
        <time>2016-02-28T08:01:25Z</time>
      </trkpt>
      <trkpt lat="41.669162190" lon="2.538549120">
        <ele>416.87</ele>
        <time>2016-02-28T08:01:29Z</time>
      </trkpt>
      <trkpt lat="41.669319940" lon="2.538699660">
        <ele>416.87</ele>
        <time>2016-02-28T08:01:36Z</time>
      </trkpt>
      <trkpt lat="41.669364360" lon="2.538900990">
        <ele>415.43</ele>
        <time>2016-02-28T08:01:40Z</time>
      </trkpt>
      <trkpt lat="41.669341230" lon="2.539117490">
        <ele>413.98</ele>
        <time>2016-02-28T08:01:45Z</time>
      </trkpt>
      <trkpt lat="41.669408620" lon="2.539211120">
        <ele>411.58</ele>
        <time>2016-02-28T08:01:48Z</time>
      </trkpt>
      <trkpt lat="41.669557730" lon="2.539300470">
        <ele>410.62</ele>
        <time>2016-02-28T08:01:52Z</time>
      </trkpt>
      <trkpt lat="41.669660660" lon="2.539400630">
        <ele>408.70</ele>
        <time>2016-02-28T08:01:55Z</time>
      </trkpt>
      <trkpt lat="41.669712380" lon="2.539467350">
        <ele>407.26</ele>
        <time>2016-02-28T08:01:57Z</time>
      </trkpt>
      <trkpt lat="41.669875070" lon="2.539400550">
        <ele>404.85</ele>
        <time>2016-02-28T08:02:02Z</time>
      </trkpt>
      <trkpt lat="41.670011360" lon="2.539217490">
        <ele>403.40</ele>
        <time>2016-02-28T08:02:06Z</time>
      </trkpt>
      <trkpt lat="41.670103810" lon="2.539164010">
        <ele>402.50</ele>
        <time>2016-02-28T08:02:08Z</time>
      </trkpt>
      <trkpt lat="41.670373210" lon="2.539181870">
        <ele>400.10</ele>
        <time>2016-02-28T08:02:14Z</time>
      </trkpt>
      <trkpt lat="41.670384690" lon="2.539204160">
        <ele>400.10</ele>
        <time>2016-02-28T08:02:15Z</time>
      </trkpt>
      <trkpt lat="41.670420560" lon="2.539284960">
        <ele>403.40</ele>
        <time>2016-02-28T08:02:20Z</time>
      </trkpt>
      <trkpt lat="41.670435570" lon="2.539317320">
        <ele>404.40</ele>
        <time>2016-02-28T08:02:22Z</time>
      </trkpt>
      <trkpt lat="41.670457860" lon="2.539376410">
        <ele>405.30</ele>
        <time>2016-02-28T08:02:26Z</time>
      </trkpt>
      <trkpt lat="41.670516290" lon="2.539501050">
        <ele>407.70</ele>
        <time>2016-02-28T08:02:35Z</time>
      </trkpt>
      <trkpt lat="41.670552160" lon="2.539555700">
        <ele>409.20</ele>
        <time>2016-02-28T08:02:40Z</time>
      </trkpt>
      <trkpt lat="41.670583930" lon="2.539672210">
        <ele>411.60</ele>
        <time>2016-02-28T08:02:48Z</time>
      </trkpt>
      <trkpt lat="41.670616530" lon="2.539747480">
        <ele>413.00</ele>
        <time>2016-02-28T08:02:53Z</time>
      </trkpt>
      <trkpt lat="41.670637490" lon="2.539799780">
        <ele>413.50</ele>
        <time>2016-02-28T08:02:56Z</time>
      </trkpt>
      <trkpt lat="41.670806720" lon="2.539928610">
        <ele>414.00</ele>
        <time>2016-02-28T08:03:06Z</time>
      </trkpt>
      <trkpt lat="41.671047530" lon="2.539987280">
        <ele>412.10</ele>
        <time>2016-02-28T08:03:13Z</time>
      </trkpt>
      <trkpt lat="41.671186750" lon="2.539975880">
        <ele>410.60</ele>
        <time>2016-02-28T08:03:16Z</time>
      </trkpt>
      <trkpt lat="41.671327820" lon="2.539887960">
        <ele>409.20</ele>
        <time>2016-02-28T08:03:19Z</time>
      </trkpt>
      <trkpt lat="41.671415080" lon="2.539825680">
        <ele>408.20</ele>
        <time>2016-02-28T08:03:21Z</time>
      </trkpt>
      <trkpt lat="41.671598140" lon="2.539767590">
        <ele>409.20</ele>
        <time>2016-02-28T08:03:27Z</time>
      </trkpt>
      <trkpt lat="41.671784300" lon="2.539905310">
        <ele>410.60</ele>
        <time>2016-02-28T08:03:35Z</time>
      </trkpt>
      <trkpt lat="41.671903910" lon="2.540015950">
        <ele>411.10</ele>
        <time>2016-02-28T08:03:42Z</time>
      </trkpt>
      <trkpt lat="41.672065760" lon="2.540137570">
        <ele>411.60</ele>
        <time>2016-02-28T08:03:49Z</time>
      </trkpt>
      <trkpt lat="41.672233320" lon="2.540159280">
        <ele>412.50</ele>
        <time>2016-02-28T08:03:56Z</time>
      </trkpt>
      <trkpt lat="41.672458460" lon="2.540106390">
        <ele>410.60</ele>
        <time>2016-02-28T08:04:04Z</time>
      </trkpt>
      <trkpt lat="41.672690300" lon="2.540068590">
        <ele>410.10</ele>
        <time>2016-02-28T08:04:10Z</time>
      </trkpt>
      <trkpt lat="41.672811000" lon="2.539929360">
        <ele>409.70</ele>
        <time>2016-02-28T08:04:14Z</time>
      </trkpt>
      <trkpt lat="41.672909910" lon="2.539708840">
        <ele>407.30</ele>
        <time>2016-02-28T08:04:18Z</time>
      </trkpt>
      <trkpt lat="41.672898000" lon="2.539345820">
        <ele>404.40</ele>
        <time>2016-02-28T08:04:23Z</time>
      </trkpt>
      <trkpt lat="41.672775120" lon="2.539004340">
        <ele>400.50</ele>
        <time>2016-02-28T08:04:29Z</time>
      </trkpt>
      <trkpt lat="41.672734890" lon="2.538876680">
        <ele>399.60</ele>
        <time>2016-02-28T08:04:31Z</time>
      </trkpt>
      <trkpt lat="41.672738910" lon="2.538691360">
        <ele>397.60</ele>
        <time>2016-02-28T08:04:34Z</time>
      </trkpt>
      <trkpt lat="41.672705300" lon="2.538539900">
        <ele>395.70</ele>
        <time>2016-02-28T08:04:37Z</time>
      </trkpt>
      <trkpt lat="41.672718970" lon="2.538363710">
        <ele>394.30</ele>
        <time>2016-02-28T08:04:40Z</time>
      </trkpt>
      <trkpt lat="41.672793650" lon="2.538294220">
        <ele>394.30</ele>
        <time>2016-02-28T08:04:42Z</time>
      </trkpt>
      <trkpt lat="41.673021970" lon="2.538146950">
        <ele>393.30</ele>
        <time>2016-02-28T08:04:49Z</time>
      </trkpt>
      <trkpt lat="41.673121630" lon="2.538086850">
        <ele>392.40</ele>
        <time>2016-02-28T08:04:52Z</time>
      </trkpt>
      <trkpt lat="41.673159180" lon="2.537884600">
        <ele>392.40</ele>
        <time>2016-02-28T08:04:57Z</time>
      </trkpt>
      <trkpt lat="41.673149290" lon="2.537843280">
        <ele>392.40</ele>
        <time>2016-02-28T08:04:58Z</time>
      </trkpt>
      <trkpt lat="41.673126750" lon="2.537766080">
        <ele>392.40</ele>
        <time>2016-02-28T08:05:00Z</time>
      </trkpt>
      <trkpt lat="41.673189020" lon="2.537629870">
        <ele>392.40</ele>
        <time>2016-02-28T08:05:05Z</time>
      </trkpt>
      <trkpt lat="41.673363950" lon="2.537534740">
        <ele>391.90</ele>
        <time>2016-02-28T08:05:10Z</time>
      </trkpt>
      <trkpt lat="41.673408040" lon="2.537462570">
        <ele>390.90</ele>
        <time>2016-02-28T08:05:12Z</time>
      </trkpt>
      <trkpt lat="41.673365040" lon="2.537291830">
        <ele>390.40</ele>
        <time>2016-02-28T08:05:17Z</time>
      </trkpt>
      <trkpt lat="41.673294890" lon="2.537205580">
        <ele>390.40</ele>
        <time>2016-02-28T08:05:20Z</time>
      </trkpt>
      <trkpt lat="41.673194640" lon="2.536936860">
        <ele>390.40</ele>
        <time>2016-02-28T08:05:27Z</time>
      </trkpt>
      <trkpt lat="41.673276030" lon="2.536776180">
        <ele>390.40</ele>
        <time>2016-02-28T08:05:31Z</time>
      </trkpt>
      <trkpt lat="41.673333690" lon="2.536737030">
        <ele>391.90</ele>
        <time>2016-02-28T08:05:33Z</time>
      </trkpt>
      <trkpt lat="41.673379120" lon="2.536682720">
        <ele>392.40</ele>
        <time>2016-02-28T08:05:35Z</time>
      </trkpt>
      <trkpt lat="41.673540730" lon="2.536493790">
        <ele>393.80</ele>
        <time>2016-02-28T08:05:42Z</time>
      </trkpt>
      <trkpt lat="41.673678110" lon="2.536371830">
        <ele>395.20</ele>
        <time>2016-02-28T08:05:48Z</time>
      </trkpt>
      <trkpt lat="41.673799640" lon="2.536122470">
        <ele>396.20</ele>
        <time>2016-02-28T08:05:55Z</time>
      </trkpt>
      <trkpt lat="41.673774330" lon="2.535899850">
        <ele>396.20</ele>
        <time>2016-02-28T08:06:00Z</time>
      </trkpt>
      <trkpt lat="41.673757900" lon="2.535817370">
        <ele>396.70</ele>
        <time>2016-02-28T08:06:02Z</time>
      </trkpt>
      <trkpt lat="41.673723620" lon="2.535551410">
        <ele>397.20</ele>
        <time>2016-02-28T08:06:08Z</time>
      </trkpt>
      <trkpt lat="41.673829480" lon="2.535453340">
        <ele>397.20</ele>
        <time>2016-02-28T08:06:12Z</time>
      </trkpt>
      <trkpt lat="41.673948670" lon="2.535464660">
        <ele>397.60</ele>
        <time>2016-02-28T08:06:16Z</time>
      </trkpt>
      <trkpt lat="41.674214050" lon="2.535553680">
        <ele>398.60</ele>
        <time>2016-02-28T08:06:25Z</time>
      </trkpt>
      <trkpt lat="41.674403310" lon="2.535649150">
        <ele>400.10</ele>
        <time>2016-02-28T08:06:32Z</time>
      </trkpt>
      <trkpt lat="41.674423760" lon="2.535651240">
        <ele>400.10</ele>
        <time>2016-02-28T08:06:33Z</time>
      </trkpt>
      <trkpt lat="41.674537840" lon="2.535502380">
        <ele>399.10</ele>
        <time>2016-02-28T08:06:39Z</time>
      </trkpt>
      <trkpt lat="41.674627190" lon="2.535299620">
        <ele>397.20</ele>
        <time>2016-02-28T08:06:43Z</time>
      </trkpt>
      <trkpt lat="41.674622160" lon="2.534970130">
        <ele>394.80</ele>
        <time>2016-02-28T08:06:48Z</time>
      </trkpt>
      <trkpt lat="41.674573960" lon="2.534833170">
        <ele>393.30</ele>
        <time>2016-02-28T08:06:50Z</time>
      </trkpt>
      <trkpt lat="41.674589050" lon="2.534573660">
        <ele>391.40</ele>
        <time>2016-02-28T08:06:55Z</time>
      </trkpt>
      <trkpt lat="41.674599360" lon="2.534537960">
        <ele>391.40</ele>
        <time>2016-02-28T08:06:56Z</time>
      </trkpt>
      <trkpt lat="41.674700620" lon="2.534310890">
        <ele>390.00</ele>
        <time>2016-02-28T08:07:00Z</time>
      </trkpt>
      <trkpt lat="41.674772110" lon="2.534071670">
        <ele>388.00</ele>
        <time>2016-02-28T08:07:03Z</time>
      </trkpt>
      <trkpt lat="41.674807570" lon="2.533997320">
        <ele>387.60</ele>
        <time>2016-02-28T08:07:04Z</time>
      </trkpt>
      <trkpt lat="41.674961040" lon="2.533711420">
        <ele>383.70</ele>
        <time>2016-02-28T08:07:09Z</time>
      </trkpt>
      <trkpt lat="41.674993060" lon="2.533633630">
        <ele>383.20</ele>
        <time>2016-02-28T08:07:11Z</time>
      </trkpt>
      <trkpt lat="41.674921230" lon="2.533327530">
        <ele>380.30</ele>
        <time>2016-02-28T08:07:16Z</time>
      </trkpt>
      <trkpt lat="41.674738920" lon="2.532870290">
        <ele>376.50</ele>
        <time>2016-02-28T08:07:22Z</time>
      </trkpt>
      <trkpt lat="41.674644540" lon="2.532653120">
        <ele>373.60</ele>
        <time>2016-02-28T08:07:26Z</time>
      </trkpt>
      <trkpt lat="41.674579500" lon="2.532567620">
        <ele>372.70</ele>
        <time>2016-02-28T08:07:28Z</time>
      </trkpt>
      <trkpt lat="41.674406830" lon="2.532476600">
        <ele>372.20</ele>
        <time>2016-02-28T08:07:33Z</time>
      </trkpt>
      <trkpt lat="41.674294600" lon="2.532386320">
        <ele>373.60</ele>
        <time>2016-02-28T08:07:37Z</time>
      </trkpt>
      <trkpt lat="41.674270200" lon="2.532351620">
        <ele>373.60</ele>
        <time>2016-02-28T08:07:38Z</time>
      </trkpt>
      <trkpt lat="41.674265760" lon="2.532114080">
        <ele>371.20</ele>
        <time>2016-02-28T08:07:42Z</time>
      </trkpt>
      <trkpt lat="41.674353860" lon="2.532044590">
        <ele>370.20</ele>
        <time>2016-02-28T08:07:44Z</time>
      </trkpt>
      <trkpt lat="41.674604060" lon="2.531795650">
        <ele>368.80</ele>
        <time>2016-02-28T08:07:50Z</time>
      </trkpt>
      <trkpt lat="41.674687540" lon="2.531697410">
        <ele>368.30</ele>
        <time>2016-02-28T08:07:52Z</time>
      </trkpt>
      <trkpt lat="41.674863980" lon="2.531616530">
        <ele>367.80</ele>
        <time>2016-02-28T08:07:56Z</time>
      </trkpt>
      <trkpt lat="41.675079650" lon="2.531462550">
        <ele>367.80</ele>
        <time>2016-02-28T08:08:01Z</time>
      </trkpt>
      <trkpt lat="41.675341580" lon="2.531410580">
        <ele>367.40</ele>
        <time>2016-02-28T08:08:06Z</time>
      </trkpt>
      <trkpt lat="41.675484990" lon="2.531327270">
        <ele>363.50</ele>
        <time>2016-02-28T08:08:09Z</time>
      </trkpt>
      <trkpt lat="41.675529000" lon="2.531276640">
        <ele>363.00</ele>
        <time>2016-02-28T08:08:10Z</time>
      </trkpt>
      <trkpt lat="41.675827900" lon="2.531078830">
        <ele>359.20</ele>
        <time>2016-02-28T08:08:16Z</time>
      </trkpt>
      <trkpt lat="41.675850030" lon="2.531056450">
        <ele>359.20</ele>
        <time>2016-02-28T08:08:17Z</time>
      </trkpt>
      <trkpt lat="41.675924120" lon="2.530922930">
        <ele>357.80</ele>
        <time>2016-02-28T08:08:20Z</time>
      </trkpt>
      <trkpt lat="41.676002580" lon="2.530792340">
        <ele>356.30</ele>
        <time>2016-02-28T08:08:22Z</time>
      </trkpt>
      <trkpt lat="41.676061420" lon="2.530640620">
        <ele>355.30</ele>
        <time>2016-02-28T08:08:24Z</time>
      </trkpt>
      <trkpt lat="41.676178600" lon="2.530573820">
        <ele>354.90</ele>
        <time>2016-02-28T08:08:27Z</time>
      </trkpt>
      <trkpt lat="41.676282700" lon="2.530713290">
        <ele>354.90</ele>
        <time>2016-02-28T08:08:31Z</time>
      </trkpt>
      <trkpt lat="41.676299800" lon="2.530752100">
        <ele>354.90</ele>
        <time>2016-02-28T08:08:32Z</time>
      </trkpt>
      <trkpt lat="41.676497860" lon="2.530965760">
        <ele>353.90</ele>
        <time>2016-02-28T08:08:38Z</time>
      </trkpt>
      <trkpt lat="41.676549240" lon="2.531013620">
        <ele>353.90</ele>
        <time>2016-02-28T08:08:39Z</time>
      </trkpt>
      <trkpt lat="41.676683190" lon="2.531356770">
        <ele>352.50</ele>
        <time>2016-02-28T08:08:44Z</time>
      </trkpt>
      <trkpt lat="41.676800870" lon="2.531419720">
        <ele>352.50</ele>
        <time>2016-02-28T08:08:47Z</time>
      </trkpt>
      <trkpt lat="41.676839510" lon="2.531399270">
        <ele>352.50</ele>
        <time>2016-02-28T08:08:48Z</time>
      </trkpt>
      <trkpt lat="41.677058190" lon="2.531335570">
        <ele>352.50</ele>
        <time>2016-02-28T08:08:54Z</time>
      </trkpt>
      <trkpt lat="41.677184090" lon="2.531428690">
        <ele>353.90</ele>
        <time>2016-02-28T08:08:58Z</time>
      </trkpt>
      <trkpt lat="41.677344440" lon="2.531544360">
        <ele>354.90</ele>
        <time>2016-02-28T08:09:04Z</time>
      </trkpt>
      <trkpt lat="41.677384580" lon="2.531553920">
        <ele>353.40</ele>
        <time>2016-02-28T08:09:05Z</time>
      </trkpt>
      <trkpt lat="41.677510480" lon="2.531460370">
        <ele>349.60</ele>
        <time>2016-02-28T08:09:09Z</time>
      </trkpt>
      <trkpt lat="41.677550800" lon="2.531357860">
        <ele>348.60</ele>
        <time>2016-02-28T08:09:11Z</time>
      </trkpt>
      <trkpt lat="41.677652390" lon="2.531154520">
        <ele>345.30</ele>
        <time>2016-02-28T08:09:14Z</time>
      </trkpt>
      <trkpt lat="41.677777780" lon="2.531009510">
        <ele>341.90</ele>
        <time>2016-02-28T08:09:16Z</time>
      </trkpt>
      <trkpt lat="41.678012310" lon="2.530828800">
        <ele>338.00</ele>
        <time>2016-02-28T08:09:19Z</time>
      </trkpt>
      <trkpt lat="41.678099560" lon="2.530804570">
        <ele>337.10</ele>
        <time>2016-02-28T08:09:20Z</time>
      </trkpt>
      <trkpt lat="41.678293600" lon="2.530709440">
        <ele>336.10</ele>
        <time>2016-02-28T08:09:24Z</time>
      </trkpt>
      <trkpt lat="41.678312800" lon="2.530558480">
        <ele>336.10</ele>
        <time>2016-02-28T08:09:27Z</time>
      </trkpt>
      <trkpt lat="41.678280360" lon="2.530230080">
        <ele>337.10</ele>
        <time>2016-02-28T08:09:34Z</time>
      </trkpt>
      <trkpt lat="41.678144990" lon="2.530046770">
        <ele>338.50</ele>
        <time>2016-02-28T08:09:40Z</time>
      </trkpt>
      <trkpt lat="41.678015740" lon="2.529943330">
        <ele>340.90</ele>
        <time>2016-02-28T08:09:46Z</time>
      </trkpt>
      <trkpt lat="41.677861600" lon="2.529753400">
        <ele>341.90</ele>
        <time>2016-02-28T08:09:53Z</time>
      </trkpt>
      <trkpt lat="41.677738220" lon="2.529598250">
        <ele>341.90</ele>
        <time>2016-02-28T08:09:58Z</time>
      </trkpt>
      <trkpt lat="41.677559010" lon="2.529414520">
        <ele>341.90</ele>
        <time>2016-02-28T08:10:05Z</time>
      </trkpt>
      <trkpt lat="41.677398830" lon="2.529288790">
        <ele>341.90</ele>
        <time>2016-02-28T08:10:11Z</time>
      </trkpt>
      <trkpt lat="41.677297250" lon="2.529076900">
        <ele>341.90</ele>
        <time>2016-02-28T08:10:17Z</time>
      </trkpt>
      <trkpt lat="41.677145950" lon="2.528884200">
        <ele>341.90</ele>
        <time>2016-02-28T08:10:24Z</time>
      </trkpt>
      <trkpt lat="41.677081830" lon="2.528798030">
        <ele>341.90</ele>
        <time>2016-02-28T08:10:27Z</time>
      </trkpt>
      <trkpt lat="41.677140670" lon="2.528632910">
        <ele>342.40</ele>
        <time>2016-02-28T08:10:32Z</time>
      </trkpt>
      <trkpt lat="41.677272520" lon="2.528441880">
        <ele>343.30</ele>
        <time>2016-02-28T08:10:39Z</time>
      </trkpt>
      <trkpt lat="41.677386340" lon="2.528360080">
        <ele>343.30</ele>
        <time>2016-02-28T08:10:43Z</time>
      </trkpt>
      <trkpt lat="41.677415430" lon="2.528365860">
        <ele>343.30</ele>
        <time>2016-02-28T08:10:44Z</time>
      </trkpt>
      <trkpt lat="41.677502940" lon="2.528403070">
        <ele>341.40</ele>
        <time>2016-02-28T08:10:46Z</time>
      </trkpt>
      <trkpt lat="41.677720360" lon="2.528471640">
        <ele>338.50</ele>
        <time>2016-02-28T08:10:50Z</time>
      </trkpt>
      <trkpt lat="41.677776940" lon="2.528486810">
        <ele>338.50</ele>
        <time>2016-02-28T08:10:51Z</time>
      </trkpt>
      <trkpt lat="41.677945330" lon="2.528467280">
        <ele>335.60</ele>
        <time>2016-02-28T08:10:54Z</time>
      </trkpt>
      <trkpt lat="41.678140300" lon="2.528376340">
        <ele>334.20</ele>
        <time>2016-02-28T08:10:57Z</time>
      </trkpt>
      <trkpt lat="41.678421930" lon="2.528010130">
        <ele>331.80</ele>
        <time>2016-02-28T08:11:02Z</time>
      </trkpt>
      <trkpt lat="41.678467690" lon="2.527920030">
        <ele>331.80</ele>
        <time>2016-02-28T08:11:03Z</time>
      </trkpt>
      <trkpt lat="41.678553940" lon="2.527526240">
        <ele>330.40</ele>
        <time>2016-02-28T08:11:08Z</time>
      </trkpt>
      <trkpt lat="41.678479600" lon="2.527329690">
        <ele>330.40</ele>
        <time>2016-02-28T08:11:11Z</time>
      </trkpt>
      <trkpt lat="41.678415810" lon="2.527227600">
        <ele>330.40</ele>
        <time>2016-02-28T08:11:13Z</time>
      </trkpt>
      <trkpt lat="41.678239120" lon="2.526884610">
        <ele>330.80</ele>
        <time>2016-02-28T08:11:21Z</time>
      </trkpt>
      <trkpt lat="41.678158990" lon="2.526752760">
        <ele>330.80</ele>
        <time>2016-02-28T08:11:24Z</time>
      </trkpt>
      <trkpt lat="41.678027980" lon="2.526516980">
        <ele>330.40</ele>
        <time>2016-02-28T08:11:29Z</time>
      </trkpt>
      <trkpt lat="41.678021190" lon="2.526273650">
        <ele>330.40</ele>
        <time>2016-02-28T08:11:34Z</time>
      </trkpt>
      <trkpt lat="41.678056810" lon="2.526138450">
        <ele>332.30</ele>
        <time>2016-02-28T08:11:38Z</time>
      </trkpt>
      <trkpt lat="41.678124620" lon="2.526082210">
        <ele>332.80</ele>
        <time>2016-02-28T08:11:44Z</time>
      </trkpt>
      <trkpt lat="41.678112550" lon="2.526080280">
        <ele>333.20</ele>
        <time>2016-02-28T08:11:52Z</time>
      </trkpt>
      <trkpt lat="41.678093110" lon="2.526090840">
        <ele>332.80</ele>
        <time>2016-02-28T08:11:57Z</time>
      </trkpt>
      <trkpt lat="41.678113730" lon="2.526160160">
        <ele>331.80</ele>
        <time>2016-02-28T08:12:02Z</time>
      </trkpt>
      <trkpt lat="41.678135850" lon="2.526171560">
        <ele>331.80</ele>
        <time>2016-02-28T08:12:03Z</time>
      </trkpt>
      <trkpt lat="41.678162680" lon="2.526180030">
        <ele>330.80</ele>
        <time>2016-02-28T08:12:04Z</time>
      </trkpt>
      <trkpt lat="41.678387310" lon="2.526300390">
        <ele>329.90</ele>
        <time>2016-02-28T08:12:12Z</time>
      </trkpt>
      <trkpt lat="41.678591490" lon="2.526414550">
        <ele>327.00</ele>
        <time>2016-02-28T08:12:17Z</time>
      </trkpt>
      <trkpt lat="41.678634070" lon="2.526434750">
        <ele>326.50</ele>
        <time>2016-02-28T08:12:18Z</time>
      </trkpt>
      <trkpt lat="41.678746310" lon="2.526475240">
        <ele>326.00</ele>
        <time>2016-02-28T08:12:20Z</time>
      </trkpt>
      <trkpt lat="41.679075470" lon="2.526605070">
        <ele>324.10</ele>
        <time>2016-02-28T08:12:26Z</time>
      </trkpt>
      <trkpt lat="41.679177810" lon="2.526745640">
        <ele>323.10</ele>
        <time>2016-02-28T08:12:29Z</time>
      </trkpt>
      <trkpt lat="41.679187280" lon="2.526801710">
        <ele>323.10</ele>
        <time>2016-02-28T08:12:30Z</time>
      </trkpt>
      <trkpt lat="41.679294650" lon="2.527052750">
        <ele>322.70</ele>
        <time>2016-02-28T08:12:35Z</time>
      </trkpt>
      <trkpt lat="41.679636220" lon="2.527335470">
        <ele>319.80</ele>
        <time>2016-02-28T08:12:43Z</time>
      </trkpt>
      <trkpt lat="41.679860430" lon="2.527393470">
        <ele>316.40</ele>
        <time>2016-02-28T08:12:48Z</time>
      </trkpt>
      <trkpt lat="41.679904940" lon="2.527369920">
        <ele>315.90</ele>
        <time>2016-02-28T08:12:49Z</time>
      </trkpt>
      <trkpt lat="41.680009880" lon="2.527323820">
        <ele>315.50</ele>
        <time>2016-02-28T08:12:52Z</time>
      </trkpt>
      <trkpt lat="41.680122450" lon="2.527345190">
        <ele>314.50</ele>
        <time>2016-02-28T08:12:55Z</time>
      </trkpt>
      <trkpt lat="41.680400810" lon="2.527434040">
        <ele>311.60</ele>
        <time>2016-02-28T08:13:01Z</time>
      </trkpt>
      <trkpt lat="41.680470380" lon="2.527479560">
        <ele>310.60</ele>
        <time>2016-02-28T08:13:04Z</time>
      </trkpt>
      <trkpt lat="41.680508350" lon="2.527328430">
        <ele>310.60</ele>
        <time>2016-02-28T08:13:10Z</time>
      </trkpt>
      <trkpt lat="41.680500390" lon="2.527231790">
        <ele>310.20</ele>
        <time>2016-02-28T08:13:12Z</time>
      </trkpt>
      <trkpt lat="41.680483120" lon="2.526874550">
        <ele>309.20</ele>
        <time>2016-02-28T08:13:18Z</time>
      </trkpt>
      <trkpt lat="41.680533750" lon="2.526654190">
        <ele>309.20</ele>
        <time>2016-02-28T08:13:22Z</time>
      </trkpt>
      <trkpt lat="41.680609690" lon="2.526526200">
        <ele>309.20</ele>
        <time>2016-02-28T08:13:28Z</time>
      </trkpt>
      <trkpt lat="41.680614130" lon="2.526477830">
        <ele>309.20</ele>
        <time>2016-02-28T08:13:44Z</time>
      </trkpt>
      <trkpt lat="41.680642460" lon="2.526479340">
        <ele>309.20</ele>
        <time>2016-02-28T08:14:06Z</time>
      </trkpt>
      <trkpt lat="41.680648410" lon="2.526469450">
        <ele>309.20</ele>
        <time>2016-02-28T08:14:21Z</time>
      </trkpt>
      <trkpt lat="41.680664590" lon="2.526489990">
        <ele>309.20</ele>
        <time>2016-02-28T08:14:41Z</time>
      </trkpt>
      <trkpt lat="41.680666690" lon="2.526472390">
        <ele>309.20</ele>
        <time>2016-02-28T08:14:47Z</time>
      </trkpt>
      <trkpt lat="41.680685210" lon="2.526384040">
        <ele>310.60</ele>
        <time>2016-02-28T08:14:54Z</time>
      </trkpt>
      <trkpt lat="41.680693680" lon="2.526215650">
        <ele>312.60</ele>
        <time>2016-02-28T08:15:01Z</time>
      </trkpt>
      <trkpt lat="41.680677000" lon="2.526145070">
        <ele>314.00</ele>
        <time>2016-02-28T08:15:04Z</time>
      </trkpt>
      <trkpt lat="41.680579100" lon="2.525978780">
        <ele>315.50</ele>
        <time>2016-02-28T08:15:12Z</time>
      </trkpt>
      <trkpt lat="41.680549760" lon="2.525784060">
        <ele>315.90</ele>
        <time>2016-02-28T08:15:18Z</time>
      </trkpt>
      <trkpt lat="41.680577170" lon="2.525630170">
        <ele>318.30</ele>
        <time>2016-02-28T08:15:25Z</time>
      </trkpt>
      <trkpt lat="41.680591840" lon="2.525532190">
        <ele>319.30</ele>
        <time>2016-02-28T08:15:30Z</time>
      </trkpt>
      <trkpt lat="41.680585380" lon="2.525378970">
        <ele>319.80</ele>
        <time>2016-02-28T08:15:36Z</time>
      </trkpt>
      <trkpt lat="41.680441720" lon="2.525219790">
        <ele>319.80</ele>
        <time>2016-02-28T08:15:44Z</time>
      </trkpt>
      <trkpt lat="41.680341970" lon="2.525120390">
        <ele>320.70</ele>
        <time>2016-02-28T08:15:50Z</time>
      </trkpt>
      <trkpt lat="41.680223200" lon="2.525019300">
        <ele>322.70</ele>
        <time>2016-02-28T08:15:58Z</time>
      </trkpt>
      <trkpt lat="41.680198640" lon="2.524883600">
        <ele>324.10</ele>
        <time>2016-02-28T08:16:04Z</time>
      </trkpt>
      <trkpt lat="41.680206860" lon="2.524857950">
        <ele>324.10</ele>
        <time>2016-02-28T08:16:05Z</time>
      </trkpt>
      <trkpt lat="41.680262850" lon="2.524715620">
        <ele>324.60</ele>
        <time>2016-02-28T08:16:11Z</time>
      </trkpt>
      <trkpt lat="41.680310960" lon="2.524599950">
        <ele>326.00</ele>
        <time>2016-02-28T08:16:17Z</time>
      </trkpt>
      <trkpt lat="41.680373660" lon="2.524498450">
        <ele>328.00</ele>
        <time>2016-02-28T08:16:25Z</time>
      </trkpt>
      <trkpt lat="41.680420010" lon="2.524342290">
        <ele>328.90</ele>
        <time>2016-02-28T08:16:33Z</time>
      </trkpt>
      <trkpt lat="41.680428220" lon="2.524221180">
        <ele>329.90</ele>
        <time>2016-02-28T08:16:37Z</time>
      </trkpt>
      <trkpt lat="41.680571050" lon="2.523983130">
        <ele>327.50</ele>
        <time>2016-02-28T08:16:42Z</time>
      </trkpt>
      <trkpt lat="41.680645150" lon="2.523908280">
        <ele>327.00</ele>
        <time>2016-02-28T08:16:44Z</time>
      </trkpt>
      <trkpt lat="41.680676160" lon="2.523802670">
        <ele>328.40</ele>
        <time>2016-02-28T08:16:47Z</time>
      </trkpt>
      <trkpt lat="41.680668610" lon="2.523730580">
        <ele>328.90</ele>
        <time>2016-02-28T08:16:49Z</time>
      </trkpt>
      <trkpt lat="41.680636680" lon="2.523605610">
        <ele>328.90</ele>
        <time>2016-02-28T08:16:52Z</time>
      </trkpt>
      <trkpt lat="41.680576580" lon="2.523255080">
        <ele>326.50</ele>
        <time>2016-02-28T08:16:57Z</time>
      </trkpt>
      <trkpt lat="41.680661910" lon="2.522985510">
        <ele>326.50</ele>
        <time>2016-02-28T08:17:02Z</time>
      </trkpt>
      <trkpt lat="41.680798700" lon="2.522787200">
        <ele>326.50</ele>
        <time>2016-02-28T08:17:08Z</time>
      </trkpt>
      <trkpt lat="41.680988130" lon="2.522665330">
        <ele>324.60</ele>
        <time>2016-02-28T08:17:13Z</time>
      </trkpt>
      <trkpt lat="41.681051500" lon="2.522606740">
        <ele>322.70</ele>
        <time>2016-02-28T08:17:15Z</time>
      </trkpt>
      <trkpt lat="41.681121490" lon="2.522531470">
        <ele>320.30</ele>
        <time>2016-02-28T08:17:17Z</time>
      </trkpt>
      <trkpt lat="41.681328940" lon="2.522481760">
        <ele>315.90</ele>
        <time>2016-02-28T08:17:21Z</time>
      </trkpt>
      <trkpt lat="41.681484840" lon="2.522498020">
        <ele>315.00</ele>
        <time>2016-02-28T08:17:24Z</time>
      </trkpt>
      <trkpt lat="41.681734960" lon="2.522429460">
        <ele>315.50</ele>
        <time>2016-02-28T08:17:31Z</time>
      </trkpt>
      <trkpt lat="41.681761200" lon="2.522423510">
        <ele>315.50</ele>
        <time>2016-02-28T08:17:32Z</time>
      </trkpt>
      <trkpt lat="41.681885250" lon="2.522447980">
        <ele>312.60</ele>
        <time>2016-02-28T08:17:36Z</time>
      </trkpt>
      <trkpt lat="41.681919360" lon="2.522352770">
        <ele>311.60</ele>
        <time>2016-02-28T08:17:41Z</time>
      </trkpt>
      <trkpt lat="41.681833110" lon="2.522199960">
        <ele>310.60</ele>
        <time>2016-02-28T08:17:45Z</time>
      </trkpt>
      <trkpt lat="41.681814420" lon="2.522135510">
        <ele>310.20</ele>
        <time>2016-02-28T08:17:46Z</time>
      </trkpt>
      <trkpt lat="41.681646360" lon="2.521807100">
        <ele>306.80</ele>
        <time>2016-02-28T08:17:51Z</time>
      </trkpt>
      <trkpt lat="41.681314100" lon="2.521644330">
        <ele>303.90</ele>
        <time>2016-02-28T08:17:56Z</time>
      </trkpt>
      <trkpt lat="41.681249230" lon="2.521621190">
        <ele>303.90</ele>
        <time>2016-02-28T08:17:57Z</time>
      </trkpt>
      <trkpt lat="41.681051160" lon="2.521534690">
        <ele>303.90</ele>
        <time>2016-02-28T08:18:01Z</time>
      </trkpt>
      <trkpt lat="41.680959970" lon="2.521415580">
        <ele>304.90</ele>
        <time>2016-02-28T08:18:05Z</time>
      </trkpt>
      <trkpt lat="41.681031630" lon="2.521334530">
        <ele>305.80</ele>
        <time>2016-02-28T08:18:09Z</time>
      </trkpt>
      <trkpt lat="41.681228780" lon="2.521077790">
        <ele>305.40</ele>
        <time>2016-02-28T08:18:17Z</time>
      </trkpt>
      <trkpt lat="41.681223160" lon="2.520807230">
        <ele>305.40</ele>
        <time>2016-02-28T08:18:23Z</time>
      </trkpt>
      <trkpt lat="41.681106230" lon="2.520650400">
        <ele>305.40</ele>
        <time>2016-02-28T08:18:27Z</time>
      </trkpt>
      <trkpt lat="41.680926360" lon="2.520374640">
        <ele>304.40</ele>
        <time>2016-02-28T08:18:32Z</time>
      </trkpt>
      <trkpt lat="41.680727620" lon="2.520239100">
        <ele>304.40</ele>
        <time>2016-02-28T08:18:37Z</time>
      </trkpt>
      <trkpt lat="41.680568120" lon="2.520174980">
        <ele>305.80</ele>
        <time>2016-02-28T08:18:43Z</time>
      </trkpt>
      <trkpt lat="41.680557970" lon="2.519991750">
        <ele>307.30</ele>
        <time>2016-02-28T08:18:48Z</time>
      </trkpt>
      <trkpt lat="41.680522520" lon="2.519798210">
        <ele>308.20</ele>
        <time>2016-02-28T08:18:54Z</time>
      </trkpt>
      <trkpt lat="41.680448590" lon="2.519625960">
        <ele>309.20</ele>
        <time>2016-02-28T08:19:00Z</time>
      </trkpt>
      <trkpt lat="41.680365440" lon="2.519481120">
        <ele>310.20</ele>
        <time>2016-02-28T08:19:06Z</time>
      </trkpt>
      <trkpt lat="41.680442140" lon="2.519317930">
        <ele>311.10</ele>
        <time>2016-02-28T08:19:12Z</time>
      </trkpt>
      <trkpt lat="41.680569540" lon="2.519297390">
        <ele>311.60</ele>
        <time>2016-02-28T08:19:17Z</time>
      </trkpt>
      <trkpt lat="41.680607760" lon="2.519275270">
        <ele>311.60</ele>
        <time>2016-02-28T08:19:19Z</time>
      </trkpt>
      <trkpt lat="41.680753190" lon="2.519119110">
        <ele>311.60</ele>
        <time>2016-02-28T08:19:25Z</time>
      </trkpt>
      <trkpt lat="41.680765170" lon="2.518940660">
        <ele>312.60</ele>
        <time>2016-02-28T08:19:30Z</time>
      </trkpt>
      <trkpt lat="41.680759140" lon="2.518642930">
        <ele>315.50</ele>
        <time>2016-02-28T08:19:40Z</time>
      </trkpt>
      <trkpt lat="41.680696110" lon="2.518499770">
        <ele>317.40</ele>
        <time>2016-02-28T08:19:46Z</time>
      </trkpt>
      <trkpt lat="41.680560150" lon="2.518383770">
        <ele>318.30</ele>
        <time>2016-02-28T08:19:53Z</time>
      </trkpt>
      <trkpt lat="41.680395780" lon="2.518305230">
        <ele>319.80</ele>
        <time>2016-02-28T08:20:01Z</time>
      </trkpt>
      <trkpt lat="41.680305850" lon="2.518227190">
        <ele>321.20</ele>
        <time>2016-02-28T08:20:06Z</time>
      </trkpt>
      <trkpt lat="41.680266450" lon="2.518063750">
        <ele>321.70</ele>
        <time>2016-02-28T08:20:12Z</time>
      </trkpt>
      <trkpt lat="41.680206440" lon="2.517831990">
        <ele>320.30</ele>
        <time>2016-02-28T08:20:17Z</time>
      </trkpt>
      <trkpt lat="41.680221610" lon="2.517738020">
        <ele>320.30</ele>
        <time>2016-02-28T08:20:19Z</time>
      </trkpt>
      <trkpt lat="41.680209790" lon="2.517470390">
        <ele>320.30</ele>
        <time>2016-02-28T08:20:26Z</time>
      </trkpt>
      <trkpt lat="41.680130500" lon="2.517265370">
        <ele>321.70</ele>
        <time>2016-02-28T08:20:34Z</time>
      </trkpt>
      <trkpt lat="41.680037540" lon="2.517097140">
        <ele>323.10</ele>
        <time>2016-02-28T08:20:41Z</time>
      </trkpt>
      <trkpt lat="41.679991610" lon="2.516984990">
        <ele>324.60</ele>
        <time>2016-02-28T08:20:46Z</time>
      </trkpt>
      <trkpt lat="41.679974340" lon="2.516813250">
        <ele>325.50</ele>
        <time>2016-02-28T08:20:52Z</time>
      </trkpt>
      <trkpt lat="41.679965210" lon="2.516637400">
        <ele>327.00</ele>
        <time>2016-02-28T08:20:59Z</time>
      </trkpt>
      <trkpt lat="41.679965540" lon="2.516452410">
        <ele>328.90</ele>
        <time>2016-02-28T08:21:07Z</time>
      </trkpt>
      <trkpt lat="41.679985990" lon="2.516283430">
        <ele>330.80</ele>
        <time>2016-02-28T08:21:16Z</time>
      </trkpt>
      <trkpt lat="41.680002250" lon="2.516101460">
        <ele>330.80</ele>
        <time>2016-02-28T08:21:21Z</time>
      </trkpt>
      <trkpt lat="41.679914490" lon="2.515876490">
        <ele>327.50</ele>
        <time>2016-02-28T08:21:25Z</time>
      </trkpt>
      <trkpt lat="41.679935620" lon="2.515721590">
        <ele>326.00</ele>
        <time>2016-02-28T08:21:28Z</time>
      </trkpt>
      <trkpt lat="41.680100490" lon="2.515481700">
        <ele>322.20</ele>
        <time>2016-02-28T08:21:33Z</time>
      </trkpt>
      <trkpt lat="41.680127390" lon="2.515147850">
        <ele>319.80</ele>
        <time>2016-02-28T08:21:37Z</time>
      </trkpt>
      <trkpt lat="41.680108200" lon="2.514766890">
        <ele>316.40</ele>
        <time>2016-02-28T08:21:41Z</time>
      </trkpt>
      <trkpt lat="41.680124290" lon="2.514474030">
        <ele>315.00</ele>
        <time>2016-02-28T08:21:44Z</time>
      </trkpt>
      <trkpt lat="41.680059670" lon="2.514238330">
        <ele>315.90</ele>
        <time>2016-02-28T08:21:48Z</time>
      </trkpt>
      <trkpt lat="41.679955900" lon="2.514032890">
        <ele>318.80</ele>
        <time>2016-02-28T08:21:55Z</time>
      </trkpt>
      <trkpt lat="41.679863620" lon="2.513814540">
        <ele>319.80</ele>
        <time>2016-02-28T08:22:03Z</time>
      </trkpt>
      <trkpt lat="41.679812740" lon="2.513694260">
        <ele>319.80</ele>
        <time>2016-02-28T08:22:07Z</time>
      </trkpt>
      <trkpt lat="41.679719950" lon="2.513667860">
        <ele>319.80</ele>
        <time>2016-02-28T08:22:11Z</time>
      </trkpt>
      <trkpt lat="41.679634290" lon="2.513667600">
        <ele>319.80</ele>
        <time>2016-02-28T08:22:13Z</time>
      </trkpt>
      <trkpt lat="41.679538990" lon="2.513648830">
        <ele>318.80</ele>
        <time>2016-02-28T08:22:15Z</time>
      </trkpt>
      <trkpt lat="41.679432790" lon="2.513612700">
        <ele>317.90</ele>
        <time>2016-02-28T08:22:17Z</time>
      </trkpt>
      <trkpt lat="41.679252990" lon="2.513490660">
        <ele>315.50</ele>
        <time>2016-02-28T08:22:20Z</time>
      </trkpt>
      <trkpt lat="41.679032800" lon="2.513326630">
        <ele>310.60</ele>
        <time>2016-02-28T08:22:24Z</time>
      </trkpt>
      <trkpt lat="41.678872790" lon="2.513346750">
        <ele>309.20</ele>
        <time>2016-02-28T08:22:28Z</time>
      </trkpt>
      <trkpt lat="41.678743960" lon="2.513490910">
        <ele>306.30</ele>
        <time>2016-02-28T08:22:31Z</time>
      </trkpt>
      <trkpt lat="41.678584120" lon="2.513569870">
        <ele>303.00</ele>
        <time>2016-02-28T08:22:36Z</time>
      </trkpt>
      <trkpt lat="41.678413380" lon="2.513470460">
        <ele>299.60</ele>
        <time>2016-02-28T08:22:40Z</time>
      </trkpt>
      <trkpt lat="41.678295360" lon="2.513425200">
        <ele>297.70</ele>
        <time>2016-02-28T08:22:42Z</time>
      </trkpt>
      <trkpt lat="41.678105680" lon="2.513402650">
        <ele>294.80</ele>
        <time>2016-02-28T08:22:45Z</time>
      </trkpt>
      <trkpt lat="41.677906860" lon="2.513506500">
        <ele>291.40</ele>
        <time>2016-02-28T08:22:49Z</time>
      </trkpt>
      <trkpt lat="41.677693040" lon="2.513662070">
        <ele>288.10</ele>
        <time>2016-02-28T08:22:52Z</time>
      </trkpt>
      <trkpt lat="41.677539400" lon="2.513772970">
        <ele>285.20</ele>
        <time>2016-02-28T08:22:54Z</time>
      </trkpt>
      <trkpt lat="41.677417270" lon="2.513885790">
        <ele>284.20</ele>
        <time>2016-02-28T08:22:56Z</time>
      </trkpt>
      <trkpt lat="41.677373940" lon="2.513926190">
        <ele>283.70</ele>
        <time>2016-02-28T08:22:57Z</time>
      </trkpt>
      <trkpt lat="41.677295900" lon="2.513944380">
        <ele>282.80</ele>
        <time>2016-02-28T08:22:59Z</time>
      </trkpt>
      <trkpt lat="41.677230440" lon="2.513856370">
        <ele>282.30</ele>
        <time>2016-02-28T08:23:02Z</time>
      </trkpt>
      <trkpt lat="41.677150650" lon="2.513636840">
        <ele>283.70</ele>
        <time>2016-02-28T08:23:09Z</time>
      </trkpt>
      <trkpt lat="41.677059370" lon="2.513496530">
        <ele>285.70</ele>
        <time>2016-02-28T08:23:15Z</time>
      </trkpt>
      <trkpt lat="41.676912010" lon="2.513380610">
        <ele>286.60</ele>
        <time>2016-02-28T08:23:22Z</time>
      </trkpt>
      <trkpt lat="41.676721660" lon="2.513318330">
        <ele>288.10</ele>
        <time>2016-02-28T08:23:31Z</time>
      </trkpt>
      <trkpt lat="41.676591150" lon="2.513355210">
        <ele>289.50</ele>
        <time>2016-02-28T08:23:38Z</time>
      </trkpt>
      <trkpt lat="41.676440700" lon="2.513374820">
        <ele>291.40</ele>
        <time>2016-02-28T08:23:46Z</time>
      </trkpt>
      <trkpt lat="41.676338360" lon="2.513413550">
        <ele>291.90</ele>
        <time>2016-02-28T08:23:52Z</time>
      </trkpt>
      <trkpt lat="41.676203660" lon="2.513471300">
        <ele>294.30</ele>
        <time>2016-02-28T08:24:01Z</time>
      </trkpt>
      <trkpt lat="41.676059740" lon="2.513559140">
        <ele>295.30</ele>
        <time>2016-02-28T08:24:11Z</time>
      </trkpt>
      <trkpt lat="41.676029570" lon="2.513579680">
        <ele>295.70</ele>
        <time>2016-02-28T08:24:13Z</time>
      </trkpt>
      <trkpt lat="41.675935440" lon="2.513650090">
        <ele>296.70</ele>
        <time>2016-02-28T08:24:20Z</time>
      </trkpt>
      <trkpt lat="41.675896210" lon="2.513669200">
        <ele>297.20</ele>
        <time>2016-02-28T08:24:23Z</time>
      </trkpt>
      <trkpt lat="41.675870390" lon="2.513665590">
        <ele>297.20</ele>
        <time>2016-02-28T08:24:25Z</time>
      </trkpt>
      <trkpt lat="41.675856980" lon="2.513650250">
        <ele>297.20</ele>
        <time>2016-02-28T08:24:27Z</time>
      </trkpt>
      <trkpt lat="41.675817420" lon="2.513534580">
        <ele>298.20</ele>
        <time>2016-02-28T08:24:33Z</time>
      </trkpt>
      <trkpt lat="41.675772580" lon="2.513406760">
        <ele>299.10</ele>
        <time>2016-02-28T08:24:40Z</time>
      </trkpt>
      <trkpt lat="41.675761350" lon="2.513226880">
        <ele>300.60</ele>
        <time>2016-02-28T08:24:48Z</time>
      </trkpt>
      <trkpt lat="41.675734190" lon="2.513009210">
        <ele>303.00</ele>
        <time>2016-02-28T08:24:58Z</time>
      </trkpt>
      <trkpt lat="41.675672750" lon="2.512828410">
        <ele>304.40</ele>
        <time>2016-02-28T08:25:07Z</time>
      </trkpt>
      <trkpt lat="41.675556240" lon="2.512658760">
        <ele>305.80</ele>
        <time>2016-02-28T08:25:17Z</time>
      </trkpt>
      <trkpt lat="41.675471830" lon="2.512529260">
        <ele>307.30</ele>
        <time>2016-02-28T08:25:25Z</time>
      </trkpt>
      <trkpt lat="41.675380560" lon="2.512449970">
        <ele>305.80</ele>
        <time>2016-02-28T08:25:31Z</time>
      </trkpt>
      <trkpt lat="41.675352310" lon="2.512424820">
        <ele>304.90</ele>
        <time>2016-02-28T08:25:36Z</time>
      </trkpt>
      <trkpt lat="41.675352730" lon="2.512437310">
        <ele>304.90</ele>
        <time>2016-02-28T08:25:52Z</time>
      </trkpt>
      <trkpt lat="41.675347280" lon="2.512423310">
        <ele>304.40</ele>
        <time>2016-02-28T08:26:11Z</time>
      </trkpt>
      <trkpt lat="41.675352390" lon="2.512421380">
        <ele>304.40</ele>
        <time>2016-02-28T08:26:24Z</time>
      </trkpt>
      <trkpt lat="41.675358510" lon="2.512405710">
        <ele>304.40</ele>
        <time>2016-02-28T08:26:35Z</time>
      </trkpt>
      <trkpt lat="41.675230850" lon="2.512376790">
        <ele>303.00</ele>
        <time>2016-02-28T08:26:41Z</time>
      </trkpt>
      <trkpt lat="41.675079230" lon="2.512255760">
        <ele>303.00</ele>
        <time>2016-02-28T08:26:47Z</time>
      </trkpt>
      <trkpt lat="41.674922900" lon="2.512215360">
        <ele>304.40</ele>
        <time>2016-02-28T08:26:55Z</time>
      </trkpt>
      <trkpt lat="41.674902030" lon="2.512208730">
        <ele>304.40</ele>
        <time>2016-02-28T08:26:56Z</time>
      </trkpt>
      <trkpt lat="41.674790130" lon="2.512179820">
        <ele>305.40</ele>
        <time>2016-02-28T08:27:03Z</time>
      </trkpt>
      <trkpt lat="41.674673540" lon="2.512143770">
        <ele>308.70</ele>
        <time>2016-02-28T08:27:11Z</time>
      </trkpt>
      <trkpt lat="41.674526940" lon="2.512074120">
        <ele>311.10</ele>
        <time>2016-02-28T08:27:22Z</time>
      </trkpt>
      <trkpt lat="41.674430050" lon="2.511961300">
        <ele>309.20</ele>
        <time>2016-02-28T08:27:27Z</time>
      </trkpt>
      <trkpt lat="41.674272220" lon="2.511740100">
        <ele>305.40</ele>
        <time>2016-02-28T08:27:31Z</time>
      </trkpt>
      <trkpt lat="41.674092840" lon="2.511350600">
        <ele>302.50</ele>
        <time>2016-02-28T08:27:36Z</time>
      </trkpt>
      <trkpt lat="41.673927640" lon="2.511042980">
        <ele>302.50</ele>
        <time>2016-02-28T08:27:42Z</time>
      </trkpt>
      <trkpt lat="41.673826380" lon="2.510924380">
        <ele>303.90</ele>
        <time>2016-02-28T08:27:48Z</time>
      </trkpt>
      <trkpt lat="41.673810370" lon="2.510908700">
        <ele>303.90</ele>
        <time>2016-02-28T08:27:49Z</time>
      </trkpt>
      <trkpt lat="41.673694120" lon="2.510763110">
        <ele>306.80</ele>
        <time>2016-02-28T08:27:58Z</time>
      </trkpt>
      <trkpt lat="41.673600660" lon="2.510605860">
        <ele>309.70</ele>
        <time>2016-02-28T08:28:07Z</time>
      </trkpt>
      <trkpt lat="41.673523130" lon="2.510489860">
        <ele>311.60</ele>
        <time>2016-02-28T08:28:14Z</time>
      </trkpt>
      <trkpt lat="41.673459340" lon="2.510296650">
        <ele>313.50</ele>
        <time>2016-02-28T08:28:24Z</time>
      </trkpt>
      <trkpt lat="41.673437970" lon="2.510150560">
        <ele>315.90</ele>
        <time>2016-02-28T08:28:32Z</time>
      </trkpt>
      <trkpt lat="41.673445930" lon="2.510074620">
        <ele>315.90</ele>
        <time>2016-02-28T08:28:35Z</time>
      </trkpt>
      <trkpt lat="41.673467720" lon="2.509954840">
        <ele>315.50</ele>
        <time>2016-02-28T08:28:41Z</time>
      </trkpt>
      <trkpt lat="41.673469230" lon="2.509906810">
        <ele>315.50</ele>
        <time>2016-02-28T08:28:43Z</time>
      </trkpt>
      <trkpt lat="41.673483140" lon="2.509673540">
        <ele>315.90</ele>
        <time>2016-02-28T08:28:53Z</time>
      </trkpt>
      <trkpt lat="41.673486580" lon="2.509529290">
        <ele>316.40</ele>
        <time>2016-02-28T08:28:59Z</time>
      </trkpt>
      <trkpt lat="41.673494710" lon="2.509350670">
        <ele>316.40</ele>
        <time>2016-02-28T08:29:07Z</time>
      </trkpt>
      <trkpt lat="41.673476520" lon="2.509227040">
        <ele>317.90</ele>
        <time>2016-02-28T08:29:14Z</time>
      </trkpt>
      <trkpt lat="41.673431090" lon="2.509102320">
        <ele>319.80</ele>
        <time>2016-02-28T08:29:22Z</time>
      </trkpt>
      <trkpt lat="41.673465880" lon="2.508985560">
        <ele>321.20</ele>
        <time>2016-02-28T08:29:30Z</time>
      </trkpt>
      <trkpt lat="41.673486250" lon="2.508967450">
        <ele>321.20</ele>
        <time>2016-02-28T08:29:32Z</time>
      </trkpt>
      <trkpt lat="41.673599480" lon="2.508911630">
        <ele>321.70</ele>
        <time>2016-02-28T08:29:39Z</time>
      </trkpt>
      <trkpt lat="41.673725880" lon="2.508780870">
        <ele>321.70</ele>
        <time>2016-02-28T08:29:47Z</time>
      </trkpt>
      <trkpt lat="41.673766960" lon="2.508715740">
        <ele>320.30</ele>
        <time>2016-02-28T08:29:50Z</time>
      </trkpt>
      <trkpt lat="41.673925210" lon="2.508578870">
        <ele>320.30</ele>
        <time>2016-02-28T08:29:58Z</time>
      </trkpt>
      <trkpt lat="41.673989750" lon="2.508536540">
        <ele>319.80</ele>
        <time>2016-02-28T08:30:00Z</time>
      </trkpt>
      <trkpt lat="41.674060660" lon="2.508353560">
        <ele>318.80</ele>
        <time>2016-02-28T08:30:04Z</time>
      </trkpt>
      <trkpt lat="41.674208260" lon="2.507965560">
        <ele>318.80</ele>
        <time>2016-02-28T08:30:12Z</time>
      </trkpt>
      <trkpt lat="41.674314290" lon="2.507811250">
        <ele>318.80</ele>
        <time>2016-02-28T08:30:17Z</time>
      </trkpt>
      <trkpt lat="41.674487210" lon="2.507663980">
        <ele>315.00</ele>
        <time>2016-02-28T08:30:22Z</time>
      </trkpt>
      <trkpt lat="41.674551170" lon="2.507612600">
        <ele>313.50</ele>
        <time>2016-02-28T08:30:24Z</time>
      </trkpt>
      <trkpt lat="41.674657200" lon="2.507372540">
        <ele>311.10</ele>
        <time>2016-02-28T08:30:31Z</time>
      </trkpt>
      <trkpt lat="41.674693740" lon="2.507249830">
        <ele>307.80</ele>
        <time>2016-02-28T08:30:36Z</time>
      </trkpt>
      <trkpt lat="41.674775880" lon="2.507037520">
        <ele>305.40</ele>
        <time>2016-02-28T08:30:39Z</time>
      </trkpt>
      <trkpt lat="41.674793490" lon="2.506919420">
        <ele>302.00</ele>
        <time>2016-02-28T08:30:43Z</time>
      </trkpt>
      <trkpt lat="41.674841100" lon="2.506540390">
        <ele>299.60</ele>
        <time>2016-02-28T08:30:48Z</time>
      </trkpt>
      <trkpt lat="41.674865320" lon="2.506467970">
        <ele>299.60</ele>
        <time>2016-02-28T08:30:49Z</time>
      </trkpt>
      <trkpt lat="41.674943360" lon="2.506231850">
        <ele>299.60</ele>
        <time>2016-02-28T08:30:54Z</time>
      </trkpt>
      <trkpt lat="41.674955010" lon="2.506161950">
        <ele>301.00</ele>
        <time>2016-02-28T08:30:56Z</time>
      </trkpt>
      <trkpt lat="41.674945450" lon="2.505917190">
        <ele>302.50</ele>
        <time>2016-02-28T08:31:03Z</time>
      </trkpt>
      <trkpt lat="41.674865660" lon="2.505654090">
        <ele>302.50</ele>
        <time>2016-02-28T08:31:09Z</time>
      </trkpt>
      <trkpt lat="41.674853750" lon="2.505493660">
        <ele>301.00</ele>
        <time>2016-02-28T08:31:12Z</time>
      </trkpt>
      <trkpt lat="41.674883340" lon="2.505161900">
        <ele>300.60</ele>
        <time>2016-02-28T08:31:19Z</time>
      </trkpt>
      <trkpt lat="41.674890550" lon="2.504881110">
        <ele>297.70</ele>
        <time>2016-02-28T08:31:24Z</time>
      </trkpt>
      <trkpt lat="41.674885860" lon="2.504772560">
        <ele>296.70</ele>
        <time>2016-02-28T08:31:26Z</time>
      </trkpt>
      <trkpt lat="41.674841180" lon="2.504577600">
        <ele>292.90</ele>
        <time>2016-02-28T08:31:30Z</time>
      </trkpt>
      <trkpt lat="41.674790550" lon="2.504369140">
        <ele>289.50</ele>
        <time>2016-02-28T08:31:34Z</time>
      </trkpt>
      <trkpt lat="41.674747550" lon="2.504195300">
        <ele>286.10</ele>
        <time>2016-02-28T08:31:38Z</time>
      </trkpt>
      <trkpt lat="41.674698690" lon="2.503996480">
        <ele>282.80</ele>
        <time>2016-02-28T08:31:42Z</time>
      </trkpt>
      <trkpt lat="41.674658040" lon="2.503806710">
        <ele>279.40</ele>
        <time>2016-02-28T08:31:45Z</time>
      </trkpt>
      <trkpt lat="41.674651500" lon="2.503633540">
        <ele>277.00</ele>
        <time>2016-02-28T08:31:49Z</time>
      </trkpt>
      <trkpt lat="41.674648730" lon="2.503447630">
        <ele>274.60</ele>
        <time>2016-02-28T08:31:52Z</time>
      </trkpt>
      <trkpt lat="41.674622580" lon="2.503124760">
        <ele>270.80</ele>
        <time>2016-02-28T08:31:58Z</time>
      </trkpt>
      <trkpt lat="41.674599870" lon="2.503012110">
        <ele>269.30</ele>
        <time>2016-02-28T08:32:00Z</time>
      </trkpt>
      <trkpt lat="41.674528540" lon="2.502794680">
        <ele>265.90</ele>
        <time>2016-02-28T08:32:04Z</time>
      </trkpt>
      <trkpt lat="41.674484450" lon="2.502731400">
        <ele>264.50</ele>
        <time>2016-02-28T08:32:06Z</time>
      </trkpt>
      <trkpt lat="41.674410180" lon="2.502561160">
        <ele>262.60</ele>
        <time>2016-02-28T08:32:09Z</time>
      </trkpt>
      <trkpt lat="41.674263500" lon="2.502454880">
        <ele>262.10</ele>
        <time>2016-02-28T08:32:13Z</time>
      </trkpt>
      <trkpt lat="41.674108010" lon="2.502517410">
        <ele>262.10</ele>
        <time>2016-02-28T08:32:17Z</time>
      </trkpt>
      <trkpt lat="41.673885810" lon="2.502633420">
        <ele>261.10</ele>
        <time>2016-02-28T08:32:22Z</time>
      </trkpt>
      <trkpt lat="41.673689930" lon="2.502600310">
        <ele>258.70</ele>
        <time>2016-02-28T08:32:27Z</time>
      </trkpt>
      <trkpt lat="41.673620100" lon="2.502554370">
        <ele>257.80</ele>
        <time>2016-02-28T08:32:29Z</time>
      </trkpt>
      <trkpt lat="41.673523880" lon="2.502408110">
        <ele>256.30</ele>
        <time>2016-02-28T08:32:33Z</time>
      </trkpt>
      <trkpt lat="41.673405280" lon="2.502233350">
        <ele>255.40</ele>
        <time>2016-02-28T08:32:36Z</time>
      </trkpt>
      <trkpt lat="41.673355150" lon="2.502178030">
        <ele>254.90</ele>
        <time>2016-02-28T08:32:37Z</time>
      </trkpt>
      <trkpt lat="41.673159180" lon="2.501827830">
        <ele>251.00</ele>
        <time>2016-02-28T08:32:43Z</time>
      </trkpt>
      <trkpt lat="41.673099090" lon="2.501716940">
        <ele>249.60</ele>
        <time>2016-02-28T08:32:45Z</time>
      </trkpt>
      <trkpt lat="41.673005960" lon="2.501531030">
        <ele>248.20</ele>
        <time>2016-02-28T08:32:49Z</time>
      </trkpt>
      <trkpt lat="41.672958190" lon="2.501405300">
        <ele>247.20</ele>
        <time>2016-02-28T08:32:51Z</time>
      </trkpt>
      <trkpt lat="41.672902110" lon="2.501229030">
        <ele>244.80</ele>
        <time>2016-02-28T08:32:54Z</time>
      </trkpt>
      <trkpt lat="41.672838910" lon="2.501133640">
        <ele>243.40</ele>
        <time>2016-02-28T08:32:56Z</time>
      </trkpt>
      <trkpt lat="41.672731290" lon="2.500997940">
        <ele>241.00</ele>
        <time>2016-02-28T08:32:58Z</time>
      </trkpt>
      <trkpt lat="41.672606400" lon="2.500735080">
        <ele>237.10</ele>
        <time>2016-02-28T08:33:02Z</time>
      </trkpt>
      <trkpt lat="41.672487370" lon="2.500252540">
        <ele>232.80</ele>
        <time>2016-02-28T08:33:08Z</time>
      </trkpt>
      <trkpt lat="41.672537580" lon="2.499980630">
        <ele>231.30</ele>
        <time>2016-02-28T08:33:13Z</time>
      </trkpt>
      <trkpt lat="41.672577980" lon="2.499930170">
        <ele>230.90</ele>
        <time>2016-02-28T08:33:15Z</time>
      </trkpt>
      <trkpt lat="41.672696330" lon="2.499463880">
        <ele>226.50</ele>
        <time>2016-02-28T08:33:21Z</time>
      </trkpt>
      <trkpt lat="41.672708740" lon="2.499154340">
        <ele>224.60</ele>
        <time>2016-02-28T08:33:25Z</time>
      </trkpt>
      <trkpt lat="41.672631710" lon="2.498743370">
        <ele>222.70</ele>
        <time>2016-02-28T08:33:30Z</time>
      </trkpt>
      <trkpt lat="41.672628690" lon="2.498660310">
        <ele>222.20</ele>
        <time>2016-02-28T08:33:31Z</time>
      </trkpt>
      <trkpt lat="41.672610920" lon="2.498310620">
        <ele>219.80</ele>
        <time>2016-02-28T08:33:35Z</time>
      </trkpt>
      <trkpt lat="41.672632460" lon="2.498105760">
        <ele>217.40</ele>
        <time>2016-02-28T08:33:38Z</time>
      </trkpt>
      <trkpt lat="41.672716870" lon="2.497945580">
        <ele>215.50</ele>
        <time>2016-02-28T08:33:42Z</time>
      </trkpt>
      <trkpt lat="41.672759280" lon="2.497818100">
        <ele>214.00</ele>
        <time>2016-02-28T08:33:44Z</time>
      </trkpt>
      <trkpt lat="41.672852660" lon="2.497696220">
        <ele>212.60</ele>
        <time>2016-02-28T08:33:47Z</time>
      </trkpt>
      <trkpt lat="41.672875460" lon="2.497550630">
        <ele>210.70</ele>
        <time>2016-02-28T08:33:51Z</time>
      </trkpt>
      <trkpt lat="41.672748890" lon="2.497478460">
        <ele>207.80</ele>
        <time>2016-02-28T08:33:55Z</time>
      </trkpt>
      <trkpt lat="41.672719130" lon="2.497481310">
        <ele>206.80</ele>
        <time>2016-02-28T08:33:56Z</time>
      </trkpt>
      <trkpt lat="41.672647300" lon="2.497492960">
        <ele>206.30</ele>
        <time>2016-02-28T08:33:58Z</time>
      </trkpt>
      <trkpt lat="41.672450070" lon="2.497534540">
        <ele>202.00</ele>
        <time>2016-02-28T08:34:02Z</time>
      </trkpt>
      <trkpt lat="41.672357620" lon="2.497561780">
        <ele>200.60</ele>
        <time>2016-02-28T08:34:04Z</time>
      </trkpt>
      <trkpt lat="41.672219570" lon="2.497641740">
        <ele>200.60</ele>
        <time>2016-02-28T08:34:10Z</time>
      </trkpt>
      <trkpt lat="41.672013630" lon="2.497692700">
        <ele>200.60</ele>
        <time>2016-02-28T08:34:18Z</time>
      </trkpt>
      <trkpt lat="41.671791010" lon="2.497765880">
        <ele>200.10</ele>
        <time>2016-02-28T08:34:24Z</time>
      </trkpt>
      <trkpt lat="41.671587330" lon="2.497831510">
        <ele>197.20</ele>
        <time>2016-02-28T08:34:29Z</time>
      </trkpt>
      <trkpt lat="41.671551280" lon="2.497836120">
        <ele>196.70</ele>
        <time>2016-02-28T08:34:30Z</time>
      </trkpt>
      <trkpt lat="41.671445840" lon="2.497886070">
        <ele>195.30</ele>
        <time>2016-02-28T08:34:33Z</time>
      </trkpt>
      <trkpt lat="41.671365040" lon="2.497925220">
        <ele>193.80</ele>
        <time>2016-02-28T08:34:35Z</time>
      </trkpt>
      <trkpt lat="41.671172170" lon="2.498191760">
        <ele>193.80</ele>
        <time>2016-02-28T08:34:43Z</time>
      </trkpt>
      <trkpt lat="41.671102680" lon="2.498237440">
        <ele>193.80</ele>
        <time>2016-02-28T08:34:45Z</time>
      </trkpt>
      <trkpt lat="41.670965640" lon="2.498295530">
        <ele>193.40</ele>
        <time>2016-02-28T08:34:48Z</time>
      </trkpt>
      <trkpt lat="41.670873190" lon="2.498352530">
        <ele>192.90</ele>
        <time>2016-02-28T08:34:50Z</time>
      </trkpt>
      <trkpt lat="41.670726080" lon="2.498408600">
        <ele>191.90</ele>
        <time>2016-02-28T08:34:53Z</time>
      </trkpt>
      <trkpt lat="41.670547630" lon="2.498318830">
        <ele>191.40</ele>
        <time>2016-02-28T08:34:57Z</time>
      </trkpt>
      <trkpt lat="41.670459790" lon="2.498263260">
        <ele>191.00</ele>
        <time>2016-02-28T08:34:59Z</time>
      </trkpt>
      <trkpt lat="41.670254440" lon="2.498257140">
        <ele>190.00</ele>
        <time>2016-02-28T08:35:03Z</time>
      </trkpt>
      <trkpt lat="41.670004990" lon="2.498345820">
        <ele>189.50</ele>
        <time>2016-02-28T08:35:09Z</time>
      </trkpt>
      <trkpt lat="41.669896360" lon="2.498379100">
        <ele>189.52</ele>
        <time>2016-02-28T08:35:12Z</time>
      </trkpt>
      <trkpt lat="41.669801390" lon="2.498403910">
        <ele>189.52</ele>
        <time>2016-02-28T08:35:15Z</time>
      </trkpt>
      <trkpt lat="41.669642300" lon="2.498404830">
        <ele>190.96</ele>
        <time>2016-02-28T08:35:21Z</time>
      </trkpt>
      <trkpt lat="41.669609870" lon="2.498406510">
        <ele>190.96</ele>
        <time>2016-02-28T08:35:22Z</time>
      </trkpt>
      <trkpt lat="41.669395460" lon="2.498408940">
        <ele>190.96</ele>
        <time>2016-02-28T08:35:29Z</time>
      </trkpt>
      <trkpt lat="41.669210470" lon="2.498435090">
        <ele>190.96</ele>
        <time>2016-02-28T08:35:35Z</time>
      </trkpt>
      <trkpt lat="41.668964460" lon="2.498484460">
        <ele>191.92</ele>
        <time>2016-02-28T08:35:42Z</time>
      </trkpt>
      <trkpt lat="41.668833120" lon="2.498528880">
        <ele>192.40</ele>
        <time>2016-02-28T08:35:47Z</time>
      </trkpt>
      <trkpt lat="41.668683670" lon="2.498603730">
        <ele>192.40</ele>
        <time>2016-02-28T08:35:52Z</time>
      </trkpt>
      <trkpt lat="41.668529440" lon="2.498646140">
        <ele>194.32</ele>
        <time>2016-02-28T08:35:57Z</time>
      </trkpt>
      <trkpt lat="41.668328360" lon="2.498794090">
        <ele>194.32</ele>
        <time>2016-02-28T08:36:05Z</time>
      </trkpt>
      <trkpt lat="41.668184440" lon="2.498896340">
        <ele>194.32</ele>
        <time>2016-02-28T08:36:10Z</time>
      </trkpt>
      <trkpt lat="41.668131800" lon="2.498948400">
        <ele>194.80</ele>
        <time>2016-02-28T08:36:12Z</time>
      </trkpt>
      <trkpt lat="41.668101120" lon="2.499102790">
        <ele>194.80</ele>
        <time>2016-02-28T08:36:16Z</time>
      </trkpt>
      <trkpt lat="41.668122920" lon="2.499217540">
        <ele>193.84</ele>
        <time>2016-02-28T08:36:18Z</time>
      </trkpt>
      <trkpt lat="41.668122670" lon="2.499417780">
        <ele>193.84</ele>
        <time>2016-02-28T08:36:23Z</time>
      </trkpt>
      <trkpt lat="41.668123340" lon="2.499547700">
        <ele>194.80</ele>
        <time>2016-02-28T08:36:27Z</time>
      </trkpt>
      <trkpt lat="41.668124840" lon="2.499592630">
        <ele>194.80</ele>
        <time>2016-02-28T08:36:28Z</time>
      </trkpt>
      <trkpt lat="41.668187790" lon="2.499905780">
        <ele>195.77</ele>
        <time>2016-02-28T08:36:35Z</time>
      </trkpt>
      <trkpt lat="41.668214450" lon="2.500211460">
        <ele>196.25</ele>
        <time>2016-02-28T08:36:42Z</time>
      </trkpt>
      <trkpt lat="41.668234060" lon="2.500593010">
        <ele>197.69</ele>
        <time>2016-02-28T08:36:51Z</time>
      </trkpt>
      <trkpt lat="41.668294830" lon="2.500928960">
        <ele>197.69</ele>
        <time>2016-02-28T08:36:59Z</time>
      </trkpt>
      <trkpt lat="41.668361800" lon="2.501259710">
        <ele>198.17</ele>
        <time>2016-02-28T08:37:07Z</time>
      </trkpt>
      <trkpt lat="41.668436150" lon="2.501578220">
        <ele>199.13</ele>
        <time>2016-02-28T08:37:15Z</time>
      </trkpt>
      <trkpt lat="41.668488450" lon="2.501811650">
        <ele>199.13</ele>
        <time>2016-02-28T08:37:20Z</time>
      </trkpt>
      <trkpt lat="41.668529690" lon="2.502091020">
        <ele>199.13</ele>
        <time>2016-02-28T08:37:26Z</time>
      </trkpt>
      <trkpt lat="41.668614430" lon="2.502377600">
        <ele>199.13</ele>
        <time>2016-02-28T08:37:32Z</time>
      </trkpt>
      <trkpt lat="41.668675870" lon="2.502706760">
        <ele>199.61</ele>
        <time>2016-02-28T08:37:39Z</time>
      </trkpt>
      <trkpt lat="41.668756000" lon="2.503038510">
        <ele>201.05</ele>
        <time>2016-02-28T08:37:47Z</time>
      </trkpt>
      <trkpt lat="41.668875700" lon="2.503456520">
        <ele>201.53</ele>
        <time>2016-02-28T08:37:56Z</time>
      </trkpt>
      <trkpt lat="41.668898830" lon="2.503748540">
        <ele>201.53</ele>
        <time>2016-02-28T08:38:02Z</time>
      </trkpt>
      <trkpt lat="41.668865470" lon="2.503960520">
        <ele>201.53</ele>
        <time>2016-02-28T08:38:07Z</time>
      </trkpt>
      <trkpt lat="41.668780310" lon="2.504294710">
        <ele>201.53</ele>
        <time>2016-02-28T08:38:15Z</time>
      </trkpt>
      <trkpt lat="41.668732280" lon="2.504528230">
        <ele>202.98</ele>
        <time>2016-02-28T08:38:22Z</time>
      </trkpt>
      <trkpt lat="41.668751220" lon="2.504729230">
        <ele>205.38</ele>
        <time>2016-02-28T08:38:29Z</time>
      </trkpt>
      <trkpt lat="41.668791630" lon="2.504933490">
        <ele>207.78</ele>
        <time>2016-02-28T08:38:38Z</time>
      </trkpt>
      <trkpt lat="41.668807630" lon="2.505096770">
        <ele>209.70</ele>
        <time>2016-02-28T08:38:45Z</time>
      </trkpt>
      <trkpt lat="41.668792210" lon="2.505275390">
        <ele>210.67</ele>
        <time>2016-02-28T08:38:53Z</time>
      </trkpt>
      <trkpt lat="41.668781400" lon="2.505494240">
        <ele>212.59</ele>
        <time>2016-02-28T08:39:02Z</time>
      </trkpt>
      <trkpt lat="41.668816690" lon="2.505719550">
        <ele>213.55</ele>
        <time>2016-02-28T08:39:11Z</time>
      </trkpt>
      <trkpt lat="41.668864210" lon="2.506007550">
        <ele>215.47</ele>
        <time>2016-02-28T08:39:22Z</time>
      </trkpt>
      <trkpt lat="41.668882740" lon="2.506217520">
        <ele>216.91</ele>
        <time>2016-02-28T08:39:31Z</time>
      </trkpt>
      <trkpt lat="41.668879300" lon="2.506300670">
        <ele>217.88</ele>
        <time>2016-02-28T08:39:35Z</time>
      </trkpt>
      <trkpt lat="41.668850050" lon="2.506394630">
        <ele>218.36</ele>
        <time>2016-02-28T08:39:40Z</time>
      </trkpt>
      <trkpt lat="41.668796820" lon="2.506551700">
        <ele>218.36</ele>
        <time>2016-02-28T08:39:44Z</time>
      </trkpt>
      <trkpt lat="41.668804870" lon="2.506681040">
        <ele>217.40</ele>
        <time>2016-02-28T08:39:46Z</time>
      </trkpt>
      <trkpt lat="41.668867060" lon="2.506783040">
        <ele>216.43</ele>
        <time>2016-02-28T08:39:48Z</time>
      </trkpt>
      <trkpt lat="41.669015000" lon="2.507046660">
        <ele>216.43</ele>
        <time>2016-02-28T08:39:55Z</time>
      </trkpt>
      <trkpt lat="41.669050880" lon="2.507165510">
        <ele>216.43</ele>
        <time>2016-02-28T08:39:58Z</time>
      </trkpt>
      <trkpt lat="41.669035370" lon="2.507448570">
        <ele>215.47</ele>
        <time>2016-02-28T08:40:02Z</time>
      </trkpt>
      <trkpt lat="41.668933870" lon="2.507945280">
        <ele>213.07</ele>
        <time>2016-02-28T08:40:08Z</time>
      </trkpt>
      <trkpt lat="41.668990950" lon="2.508155500">
        <ele>212.11</ele>
        <time>2016-02-28T08:40:12Z</time>
      </trkpt>
      <trkpt lat="41.669070910" lon="2.508335620">
        <ele>211.63</ele>
        <time>2016-02-28T08:40:18Z</time>
      </trkpt>
      <trkpt lat="41.669101170" lon="2.508494290">
        <ele>212.11</ele>
        <time>2016-02-28T08:40:23Z</time>
      </trkpt>
      <trkpt lat="41.669132680" lon="2.508676270">
        <ele>212.11</ele>
        <time>2016-02-28T08:40:28Z</time>
      </trkpt>
      <trkpt lat="41.669164700" lon="2.508948090">
        <ele>212.11</ele>
        <time>2016-02-28T08:40:34Z</time>
      </trkpt>
      <trkpt lat="41.669134950" lon="2.509219660">
        <ele>211.63</ele>
        <time>2016-02-28T08:40:40Z</time>
      </trkpt>
      <trkpt lat="41.669098490" lon="2.509451510">
        <ele>214.03</ele>
        <time>2016-02-28T08:40:47Z</time>
      </trkpt>
      <trkpt lat="41.669113910" lon="2.509644630">
        <ele>214.99</ele>
        <time>2016-02-28T08:40:54Z</time>
      </trkpt>
      <trkpt lat="41.669115840" lon="2.509698770">
        <ele>215.47</ele>
        <time>2016-02-28T08:40:56Z</time>
      </trkpt>
      <trkpt lat="41.669100500" lon="2.509803970">
        <ele>216.43</ele>
        <time>2016-02-28T08:41:00Z</time>
      </trkpt>
      <trkpt lat="41.669088600" lon="2.509886280">
        <ele>216.43</ele>
        <time>2016-02-28T08:41:03Z</time>
      </trkpt>
      <trkpt lat="41.669059760" lon="2.509920390">
        <ele>216.91</ele>
        <time>2016-02-28T08:41:08Z</time>
      </trkpt>
      <trkpt lat="41.669089430" lon="2.509947880">
        <ele>216.91</ele>
        <time>2016-02-28T08:41:11Z</time>
      </trkpt>
      <trkpt lat="41.669112990" lon="2.509974620">
        <ele>216.91</ele>
        <time>2016-02-28T08:41:18Z</time>
      </trkpt>
      <trkpt lat="41.669106700" lon="2.509967250">
        <ele>216.91</ele>
        <time>2016-02-28T08:41:29Z</time>
      </trkpt>
      <trkpt lat="41.669081220" lon="2.509956940">
        <ele>217.40</ele>
        <time>2016-02-28T08:41:48Z</time>
      </trkpt>
      <trkpt lat="41.669082640" lon="2.509948720">
        <ele>217.40</ele>
        <time>2016-02-28T08:42:06Z</time>
      </trkpt>
      <trkpt lat="41.669028330" lon="2.509956940">
        <ele>217.40</ele>
        <time>2016-02-28T08:42:21Z</time>
      </trkpt>
      <trkpt lat="41.669030170" lon="2.509915610">
        <ele>217.40</ele>
        <time>2016-02-28T08:42:40Z</time>
      </trkpt>
      <trkpt lat="41.669068650" lon="2.509934810">
        <ele>217.88</ele>
        <time>2016-02-28T08:42:56Z</time>
      </trkpt>
      <trkpt lat="41.669082140" lon="2.509929110">
        <ele>217.88</ele>
        <time>2016-02-28T08:43:10Z</time>
      </trkpt>
      <trkpt lat="41.669085580" lon="2.509934220">
        <ele>217.88</ele>
        <time>2016-02-28T08:43:26Z</time>
      </trkpt>
      <trkpt lat="41.669092870" lon="2.509965150">
        <ele>217.88</ele>
        <time>2016-02-28T08:43:40Z</time>
      </trkpt>
      <trkpt lat="41.669077950" lon="2.509966160">
        <ele>217.88</ele>
        <time>2016-02-28T08:43:55Z</time>
      </trkpt>
      <trkpt lat="41.669086170" lon="2.509960540">
        <ele>218.36</ele>
        <time>2016-02-28T08:44:11Z</time>
      </trkpt>
      <trkpt lat="41.669114920" lon="2.509977050">
        <ele>218.36</ele>
        <time>2016-02-28T08:44:30Z</time>
      </trkpt>
      <trkpt lat="41.669132350" lon="2.509975380">
        <ele>218.36</ele>
        <time>2016-02-28T08:44:46Z</time>
      </trkpt>
      <trkpt lat="41.669116840" lon="2.509966070">
        <ele>218.36</ele>
        <time>2016-02-28T08:45:06Z</time>
      </trkpt>
      <trkpt lat="41.669118520" lon="2.509932630">
        <ele>218.84</ele>
        <time>2016-02-28T08:45:25Z</time>
      </trkpt>
      <trkpt lat="41.669107200" lon="2.509950150">
        <ele>218.84</ele>
        <time>2016-02-28T08:45:41Z</time>
      </trkpt>
      <trkpt lat="41.669110560" lon="2.509953250">
        <ele>217.88</ele>
        <time>2016-02-28T08:45:58Z</time>
      </trkpt>
      <trkpt lat="41.669129750" lon="2.509922150">
        <ele>217.88</ele>
        <time>2016-02-28T08:46:13Z</time>
      </trkpt>
      <trkpt lat="41.669108040" lon="2.509896170">
        <ele>217.88</ele>
        <time>2016-02-28T08:46:31Z</time>
      </trkpt>
      <trkpt lat="41.669098400" lon="2.509920560">
        <ele>217.88</ele>
        <time>2016-02-28T08:46:49Z</time>
      </trkpt>
      <trkpt lat="41.669097400" lon="2.509953250">
        <ele>218.36</ele>
        <time>2016-02-28T08:47:06Z</time>
      </trkpt>
      <trkpt lat="41.669106620" lon="2.509934390">
        <ele>218.36</ele>
        <time>2016-02-28T08:47:20Z</time>
      </trkpt>
      <trkpt lat="41.669136620" lon="2.509915610">
        <ele>217.88</ele>
        <time>2016-02-28T08:47:33Z</time>
      </trkpt>
      <trkpt lat="41.669137630" lon="2.509922650">
        <ele>217.88</ele>
        <time>2016-02-28T08:47:51Z</time>
      </trkpt>
      <trkpt lat="41.669135280" lon="2.509940840">
        <ele>217.88</ele>
        <time>2016-02-28T08:48:03Z</time>
      </trkpt>
      <trkpt lat="41.669111560" lon="2.509958440">
        <ele>217.88</ele>
        <time>2016-02-28T08:48:20Z</time>
      </trkpt>
      <trkpt lat="41.669093210" lon="2.509955850">
        <ele>217.88</ele>
        <time>2016-02-28T08:48:35Z</time>
      </trkpt>
      <trkpt lat="41.669112990" lon="2.509988620">
        <ele>217.88</ele>
        <time>2016-02-28T08:48:52Z</time>
      </trkpt>
      <trkpt lat="41.669123460" lon="2.510019300">
        <ele>217.88</ele>
        <time>2016-02-28T08:49:07Z</time>
      </trkpt>
      <trkpt lat="41.669117600" lon="2.510040590">
        <ele>217.88</ele>
        <time>2016-02-28T08:49:27Z</time>
      </trkpt>
      <trkpt lat="41.669115000" lon="2.510024660">
        <ele>217.88</ele>
        <time>2016-02-28T08:49:46Z</time>
      </trkpt>
      <trkpt lat="41.669106700" lon="2.510021730">
        <ele>217.88</ele>
        <time>2016-02-28T08:50:00Z</time>
      </trkpt>
      <trkpt lat="41.669128240" lon="2.510015270">
        <ele>217.40</ele>
        <time>2016-02-28T08:50:14Z</time>
      </trkpt>
      <trkpt lat="41.669111650" lon="2.510022150">
        <ele>217.40</ele>
        <time>2016-02-28T08:50:31Z</time>
      </trkpt>
      <trkpt lat="41.669068310" lon="2.509998510">
        <ele>217.40</ele>
        <time>2016-02-28T08:50:39Z</time>
      </trkpt>
      <trkpt lat="41.669062190" lon="2.510000270">
        <ele>217.40</ele>
        <time>2016-02-28T08:50:42Z</time>
      </trkpt>
      <trkpt lat="41.669038140" lon="2.509986520">
        <ele>217.40</ele>
        <time>2016-02-28T08:50:45Z</time>
      </trkpt>
      <trkpt lat="41.668976110" lon="2.509949140">
        <ele>217.40</ele>
        <time>2016-02-28T08:50:52Z</time>
      </trkpt>
      <trkpt lat="41.668973090" lon="2.509943780">
        <ele>217.40</ele>
        <time>2016-02-28T08:50:57Z</time>
      </trkpt>
      <trkpt lat="41.668914340" lon="2.510007810">
        <ele>218.84</ele>
        <time>2016-02-28T08:51:04Z</time>
      </trkpt>
      <trkpt lat="41.668853820" lon="2.510095570">
        <ele>219.32</ele>
        <time>2016-02-28T08:51:10Z</time>
      </trkpt>
      <trkpt lat="41.668724740" lon="2.510240830">
        <ele>220.76</ele>
        <time>2016-02-28T08:51:20Z</time>
      </trkpt>
      <trkpt lat="41.668656840" lon="2.510288860">
        <ele>223.16</ele>
        <time>2016-02-28T08:51:25Z</time>
      </trkpt>
      <trkpt lat="41.668534800" lon="2.510363040">
        <ele>223.16</ele>
        <time>2016-02-28T08:51:33Z</time>
      </trkpt>
      <trkpt lat="41.668418710" lon="2.510458260">
        <ele>224.12</ele>
        <time>2016-02-28T08:51:40Z</time>
      </trkpt>
      <trkpt lat="41.668325840" lon="2.510541990">
        <ele>223.16</ele>
        <time>2016-02-28T08:51:46Z</time>
      </trkpt>
      <trkpt lat="41.668252920" lon="2.510578790">
        <ele>224.12</ele>
        <time>2016-02-28T08:51:50Z</time>
      </trkpt>
      <trkpt lat="41.668152090" lon="2.510629160">
        <ele>224.61</ele>
        <time>2016-02-28T08:51:58Z</time>
      </trkpt>
      <trkpt lat="41.668015630" lon="2.510660930">
        <ele>226.53</ele>
        <time>2016-02-28T08:52:06Z</time>
      </trkpt>
      <trkpt lat="41.667884370" lon="2.510654480">
        <ele>227.49</ele>
        <time>2016-02-28T08:52:13Z</time>
      </trkpt>
      <trkpt lat="41.667745310" lon="2.510666130">
        <ele>228.45</ele>
        <time>2016-02-28T08:52:21Z</time>
      </trkpt>
      <trkpt lat="41.667604830" lon="2.510648780">
        <ele>229.89</ele>
        <time>2016-02-28T08:52:29Z</time>
      </trkpt>
      <trkpt lat="41.667513130" lon="2.510583900">
        <ele>230.85</ele>
        <time>2016-02-28T08:52:36Z</time>
      </trkpt>
      <trkpt lat="41.667443820" lon="2.510487930">
        <ele>231.81</ele>
        <time>2016-02-28T08:52:44Z</time>
      </trkpt>
      <trkpt lat="41.667373910" lon="2.510388020">
        <ele>233.26</ele>
        <time>2016-02-28T08:52:51Z</time>
      </trkpt>
      <trkpt lat="41.667295040" lon="2.510239990">
        <ele>234.22</ele>
        <time>2016-02-28T08:53:00Z</time>
      </trkpt>
      <trkpt lat="41.667228570" lon="2.510098590">
        <ele>235.66</ele>
        <time>2016-02-28T08:53:09Z</time>
      </trkpt>
      <trkpt lat="41.667161350" lon="2.509961880">
        <ele>237.10</ele>
        <time>2016-02-28T08:53:18Z</time>
      </trkpt>
      <trkpt lat="41.667088670" lon="2.509842440">
        <ele>239.02</ele>
        <time>2016-02-28T08:53:26Z</time>
      </trkpt>
      <trkpt lat="41.667015670" lon="2.509742690">
        <ele>240.95</ele>
        <time>2016-02-28T08:53:34Z</time>
      </trkpt>
      <trkpt lat="41.666954980" lon="2.509633390">
        <ele>241.91</ele>
        <time>2016-02-28T08:53:41Z</time>
      </trkpt>
      <trkpt lat="41.666932350" lon="2.509590900">
        <ele>242.87</ele>
        <time>2016-02-28T08:53:44Z</time>
      </trkpt>
      <trkpt lat="41.666874010" lon="2.509489560">
        <ele>244.79</ele>
        <time>2016-02-28T08:53:51Z</time>
      </trkpt>
      <trkpt lat="41.666808220" lon="2.509460900">
        <ele>246.23</ele>
        <time>2016-02-28T08:53:56Z</time>
      </trkpt>
      <trkpt lat="41.666715760" lon="2.509493250">
        <ele>248.64</ele>
        <time>2016-02-28T08:54:05Z</time>
      </trkpt>
      <trkpt lat="41.666626160" lon="2.509502970">
        <ele>251.04</ele>
        <time>2016-02-28T08:54:13Z</time>
      </trkpt>
      <trkpt lat="41.666607550" lon="2.509511940">
        <ele>251.52</ele>
        <time>2016-02-28T08:54:15Z</time>
      </trkpt>
      <trkpt lat="41.666520630" lon="2.509575060">
        <ele>252.96</ele>
        <time>2016-02-28T08:54:24Z</time>
      </trkpt>
      <trkpt lat="41.666442010" lon="2.509639180">
        <ele>255.85</ele>
        <time>2016-02-28T08:54:33Z</time>
      </trkpt>
      <trkpt lat="41.666362720" lon="2.509710260">
        <ele>256.81</ele>
        <time>2016-02-28T08:54:41Z</time>
      </trkpt>
      <trkpt lat="41.666263560" lon="2.509798270">
        <ele>258.73</ele>
        <time>2016-02-28T08:54:50Z</time>
      </trkpt>
      <trkpt lat="41.666174120" lon="2.509869010">
        <ele>259.69</ele>
        <time>2016-02-28T08:54:58Z</time>
      </trkpt>
      <trkpt lat="41.666153170" lon="2.509938660">
        <ele>261.14</ele>
        <time>2016-02-28T08:55:03Z</time>
      </trkpt>
      <trkpt lat="41.666162890" lon="2.510064060">
        <ele>262.58</ele>
        <time>2016-02-28T08:55:12Z</time>
      </trkpt>
      <trkpt lat="41.666190550" lon="2.510209820">
        <ele>264.98</ele>
        <time>2016-02-28T08:55:22Z</time>
      </trkpt>
      <trkpt lat="41.666199350" lon="2.510363040">
        <ele>265.94</ele>
        <time>2016-02-28T08:55:31Z</time>
      </trkpt>
      <trkpt lat="41.666163140" lon="2.510519450">
        <ele>268.35</ele>
        <time>2016-02-28T08:55:41Z</time>
      </trkpt>
      <trkpt lat="41.666080500" lon="2.510615080">
        <ele>268.83</ele>
        <time>2016-02-28T08:55:49Z</time>
      </trkpt>
      <trkpt lat="41.665990310" lon="2.510634780">
        <ele>270.75</ele>
        <time>2016-02-28T08:55:57Z</time>
      </trkpt>
      <trkpt lat="41.665899530" lon="2.510599070">
        <ele>271.23</ele>
        <time>2016-02-28T08:56:04Z</time>
      </trkpt>
      <trkpt lat="41.665821920" lon="2.510527740">
        <ele>273.15</ele>
        <time>2016-02-28T08:56:12Z</time>
      </trkpt>
      <trkpt lat="41.665728290" lon="2.510431270">
        <ele>274.11</ele>
        <time>2016-02-28T08:56:21Z</time>
      </trkpt>
      <trkpt lat="41.665625860" lon="2.510306210">
        <ele>275.56</ele>
        <time>2016-02-28T08:56:31Z</time>
      </trkpt>
      <trkpt lat="41.665547330" lon="2.510186940">
        <ele>277.00</ele>
        <time>2016-02-28T08:56:40Z</time>
      </trkpt>
      <trkpt lat="41.665468120" lon="2.510070340">
        <ele>278.92</ele>
        <time>2016-02-28T08:56:49Z</time>
      </trkpt>
      <trkpt lat="41.665428550" lon="2.509997420">
        <ele>280.36</ele>
        <time>2016-02-28T08:56:55Z</time>
      </trkpt>
      <trkpt lat="41.665362340" lon="2.509788120">
        <ele>281.32</ele>
        <time>2016-02-28T08:57:05Z</time>
      </trkpt>
      <trkpt lat="41.665315310" lon="2.509633810">
        <ele>282.77</ele>
        <time>2016-02-28T08:57:12Z</time>
      </trkpt>
      <trkpt lat="41.665258150" lon="2.509401720">
        <ele>284.21</ele>
        <time>2016-02-28T08:57:23Z</time>
      </trkpt>
      <trkpt lat="41.665219170" lon="2.509169040">
        <ele>285.65</ele>
        <time>2016-02-28T08:57:34Z</time>
      </trkpt>
      <trkpt lat="41.665186740" lon="2.508988570">
        <ele>287.57</ele>
        <time>2016-02-28T08:57:43Z</time>
      </trkpt>
      <trkpt lat="41.665171060" lon="2.508793780">
        <ele>289.49</ele>
        <time>2016-02-28T08:57:52Z</time>
      </trkpt>
      <trkpt lat="41.665142560" lon="2.508583810">
        <ele>290.46</ele>
        <time>2016-02-28T08:58:01Z</time>
      </trkpt>
      <trkpt lat="41.665103590" lon="2.508387680">
        <ele>290.94</ele>
        <time>2016-02-28T08:58:08Z</time>
      </trkpt>
      <trkpt lat="41.665041810" lon="2.508148290">
        <ele>291.42</ele>
        <time>2016-02-28T08:58:16Z</time>
      </trkpt>
      <trkpt lat="41.665013060" lon="2.508037060">
        <ele>291.90</ele>
        <time>2016-02-28T08:58:20Z</time>
      </trkpt>
      <trkpt lat="41.665069720" lon="2.507797090">
        <ele>292.86</ele>
        <time>2016-02-28T08:58:28Z</time>
      </trkpt>
      <trkpt lat="41.665215230" lon="2.507558450">
        <ele>293.34</ele>
        <time>2016-02-28T08:58:38Z</time>
      </trkpt>
      <trkpt lat="41.665273070" lon="2.507322000">
        <ele>294.30</ele>
        <time>2016-02-28T08:58:46Z</time>
      </trkpt>
      <trkpt lat="41.665230830" lon="2.507190150">
        <ele>296.70</ele>
        <time>2016-02-28T08:58:52Z</time>
      </trkpt>
      <trkpt lat="41.665085820" lon="2.507078090">
        <ele>298.15</ele>
        <time>2016-02-28T08:59:00Z</time>
      </trkpt>
      <trkpt lat="41.664932760" lon="2.506948670">
        <ele>298.63</ele>
        <time>2016-02-28T08:59:07Z</time>
      </trkpt>
      <trkpt lat="41.664863700" lon="2.506745070">
        <ele>299.11</ele>
        <time>2016-02-28T08:59:14Z</time>
      </trkpt>
      <trkpt lat="41.664769070" lon="2.506516670">
        <ele>300.55</ele>
        <time>2016-02-28T08:59:23Z</time>
      </trkpt>
      <trkpt lat="41.664677790" lon="2.506339980">
        <ele>301.51</ele>
        <time>2016-02-28T08:59:30Z</time>
      </trkpt>
      <trkpt lat="41.664558340" lon="2.506196980">
        <ele>302.95</ele>
        <time>2016-02-28T08:59:37Z</time>
      </trkpt>
      <trkpt lat="41.664418200" lon="2.506098160">
        <ele>304.39</ele>
        <time>2016-02-28T08:59:44Z</time>
      </trkpt>
      <trkpt lat="41.664395480" lon="2.506087430">
        <ele>304.88</ele>
        <time>2016-02-28T08:59:45Z</time>
      </trkpt>
      <trkpt lat="41.664292890" lon="2.506113830">
        <ele>304.88</ele>
        <time>2016-02-28T08:59:49Z</time>
      </trkpt>
      <trkpt lat="41.664091140" lon="2.506243670">
        <ele>304.88</ele>
        <time>2016-02-28T08:59:57Z</time>
      </trkpt>
      <trkpt lat="41.663844370" lon="2.506363360">
        <ele>304.88</ele>
        <time>2016-02-28T09:00:05Z</time>
      </trkpt>
      <trkpt lat="41.663677740" lon="2.506323460">
        <ele>304.88</ele>
        <time>2016-02-28T09:00:11Z</time>
      </trkpt>
      <trkpt lat="41.663474150" lon="2.506297230">
        <ele>305.84</ele>
        <time>2016-02-28T09:00:19Z</time>
      </trkpt>
      <trkpt lat="41.663273060" lon="2.506355400">
        <ele>306.32</ele>
        <time>2016-02-28T09:00:27Z</time>
      </trkpt>
      <trkpt lat="41.663110790" lon="2.506347350">
        <ele>308.24</ele>
        <time>2016-02-28T09:00:34Z</time>
      </trkpt>
      <trkpt lat="41.662946420" lon="2.506294040">
        <ele>308.72</ele>
        <time>2016-02-28T09:00:41Z</time>
      </trkpt>
      <trkpt lat="41.662771570" lon="2.506239060">
        <ele>309.68</ele>
        <time>2016-02-28T09:00:48Z</time>
      </trkpt>
      <trkpt lat="41.662496650" lon="2.506217430">
        <ele>310.64</ele>
        <time>2016-02-28T09:00:59Z</time>
      </trkpt>
      <trkpt lat="41.662295060" lon="2.506246600">
        <ele>311.12</ele>
        <time>2016-02-28T09:01:06Z</time>
      </trkpt>
      <trkpt lat="41.662114270" lon="2.506133950">
        <ele>311.12</ele>
        <time>2016-02-28T09:01:12Z</time>
      </trkpt>
      <trkpt lat="41.662010830" lon="2.505940660">
        <ele>311.60</ele>
        <time>2016-02-28T09:01:18Z</time>
      </trkpt>
      <trkpt lat="41.661886950" lon="2.505628350">
        <ele>312.09</ele>
        <time>2016-02-28T09:01:27Z</time>
      </trkpt>
      <trkpt lat="41.661735570" lon="2.505439510">
        <ele>312.57</ele>
        <time>2016-02-28T09:01:35Z</time>
      </trkpt>
      <trkpt lat="41.661587130" lon="2.505278740">
        <ele>313.05</ele>
        <time>2016-02-28T09:01:42Z</time>
      </trkpt>
      <trkpt lat="41.661423430" lon="2.505155110">
        <ele>314.97</ele>
        <time>2016-02-28T09:01:50Z</time>
      </trkpt>
      <trkpt lat="41.661250510" lon="2.505149910">
        <ele>315.45</ele>
        <time>2016-02-28T09:01:57Z</time>
      </trkpt>
      <trkpt lat="41.660955720" lon="2.505160890">
        <ele>315.45</ele>
        <time>2016-02-28T09:02:05Z</time>
      </trkpt>
      <trkpt lat="41.660768800" lon="2.505106830">
        <ele>315.45</ele>
        <time>2016-02-28T09:02:11Z</time>
      </trkpt>
      <trkpt lat="41.660560430" lon="2.505066430">
        <ele>315.45</ele>
        <time>2016-02-28T09:02:18Z</time>
      </trkpt>
      <trkpt lat="41.660348700" lon="2.505113370">
        <ele>315.45</ele>
        <time>2016-02-28T09:02:25Z</time>
      </trkpt>
      <trkpt lat="41.660150050" lon="2.505166760">
        <ele>315.45</ele>
        <time>2016-02-28T09:02:32Z</time>
      </trkpt>
      <trkpt lat="41.659947800" lon="2.505164080">
        <ele>315.93</ele>
        <time>2016-02-28T09:02:39Z</time>
      </trkpt>
      <trkpt lat="41.659781330" lon="2.505149580">
        <ele>315.93</ele>
        <time>2016-02-28T09:02:45Z</time>
      </trkpt>
      <trkpt lat="41.659632720" lon="2.505237420">
        <ele>316.41</ele>
        <time>2016-02-28T09:02:51Z</time>
      </trkpt>
      <trkpt lat="41.659516040" lon="2.505360800">
        <ele>317.37</ele>
        <time>2016-02-28T09:02:57Z</time>
      </trkpt>
      <trkpt lat="41.659393580" lon="2.505592400">
        <ele>318.33</ele>
        <time>2016-02-28T09:03:06Z</time>
      </trkpt>
      <trkpt lat="41.659150680" lon="2.505652070">
        <ele>318.33</ele>
        <time>2016-02-28T09:03:14Z</time>
      </trkpt>
      <trkpt lat="41.658958480" lon="2.505567000">
        <ele>318.33</ele>
        <time>2016-02-28T09:03:21Z</time>
      </trkpt>
      <trkpt lat="41.658807690" lon="2.505419060">
        <ele>318.81</ele>
        <time>2016-02-28T09:03:28Z</time>
      </trkpt>
      <trkpt lat="41.658650030" lon="2.505304060">
        <ele>320.26</ele>
        <time>2016-02-28T09:03:35Z</time>
      </trkpt>
      <trkpt lat="41.658584480" lon="2.505235410">
        <ele>320.26</ele>
        <time>2016-02-28T09:03:41Z</time>
      </trkpt>
      <trkpt lat="41.658557910" lon="2.505210430">
        <ele>320.26</ele>
        <time>2016-02-28T09:03:47Z</time>
      </trkpt>
      <trkpt lat="41.658505100" lon="2.505173380">
        <ele>320.26</ele>
        <time>2016-02-28T09:03:53Z</time>
      </trkpt>
      <trkpt lat="41.658358920" lon="2.504980940">
        <ele>319.78</ele>
        <time>2016-02-28T09:04:00Z</time>
      </trkpt>
      <trkpt lat="41.658212410" lon="2.504918830">
        <ele>318.33</ele>
        <time>2016-02-28T09:04:03Z</time>
      </trkpt>
      <trkpt lat="41.657704630" lon="2.504862000">
        <ele>316.41</ele>
        <time>2016-02-28T09:04:12Z</time>
      </trkpt>
      <trkpt lat="41.657474880" lon="2.504892090">
        <ele>315.93</ele>
        <time>2016-02-28T09:04:16Z</time>
      </trkpt>
      <trkpt lat="41.657221410" lon="2.505078920">
        <ele>315.45</ele>
        <time>2016-02-28T09:04:21Z</time>
      </trkpt>
      <trkpt lat="41.656961570" lon="2.505466420">
        <ele>314.49</ele>
        <time>2016-02-28T09:04:27Z</time>
      </trkpt>
      <trkpt lat="41.656794440" lon="2.505912160">
        <ele>312.09</ele>
        <time>2016-02-28T09:04:32Z</time>
      </trkpt>
      <trkpt lat="41.656448100" lon="2.506341570">
        <ele>308.72</ele>
        <time>2016-02-28T09:04:37Z</time>
      </trkpt>
      <trkpt lat="41.656269400" lon="2.506481550">
        <ele>306.32</ele>
        <time>2016-02-28T09:04:39Z</time>
      </trkpt>
      <trkpt lat="41.656090020" lon="2.506582630">
        <ele>305.36</ele>
        <time>2016-02-28T09:04:41Z</time>
      </trkpt>
      <trkpt lat="41.655727930" lon="2.506687070">
        <ele>302.95</ele>
        <time>2016-02-28T09:04:45Z</time>
      </trkpt>
      <trkpt lat="41.655448980" lon="2.506669050">
        <ele>304.39</ele>
        <time>2016-02-28T09:04:50Z</time>
      </trkpt>
      <trkpt lat="41.655303720" lon="2.506667120">
        <ele>305.84</ele>
        <time>2016-02-28T09:04:56Z</time>
      </trkpt>
      <trkpt lat="41.655188800" lon="2.506607860">
        <ele>307.28</ele>
        <time>2016-02-28T09:05:01Z</time>
      </trkpt>
      <trkpt lat="41.655000800" lon="2.506538630">
        <ele>308.72</ele>
        <time>2016-02-28T09:05:09Z</time>
      </trkpt>
      <trkpt lat="41.654811950" lon="2.506469560">
        <ele>308.72</ele>
        <time>2016-02-28T09:05:17Z</time>
      </trkpt>
      <trkpt lat="41.654787980" lon="2.506481460">
        <ele>308.72</ele>
        <time>2016-02-28T09:05:18Z</time>
      </trkpt>
      <trkpt lat="41.654690080" lon="2.506706850">
        <ele>308.72</ele>
        <time>2016-02-28T09:05:24Z</time>
      </trkpt>
      <trkpt lat="41.654641880" lon="2.506871050">
        <ele>308.72</ele>
        <time>2016-02-28T09:05:27Z</time>
      </trkpt>
      <trkpt lat="41.654503920" lon="2.507319740">
        <ele>306.80</ele>
        <time>2016-02-28T09:05:35Z</time>
      </trkpt>
      <trkpt lat="41.654496370" lon="2.507358290">
        <ele>306.80</ele>
        <time>2016-02-28T09:05:36Z</time>
      </trkpt>
      <trkpt lat="41.654593270" lon="2.507459800">
        <ele>306.32</ele>
        <time>2016-02-28T09:05:41Z</time>
      </trkpt>
      <trkpt lat="41.654675330" lon="2.507483180">
        <ele>308.72</ele>
        <time>2016-02-28T09:05:46Z</time>
      </trkpt>
      <trkpt lat="41.654799460" lon="2.507502880">
        <ele>311.60</ele>
        <time>2016-02-28T09:05:54Z</time>
      </trkpt>
      <trkpt lat="41.654970710" lon="2.507470530">
        <ele>311.60</ele>
        <time>2016-02-28T09:06:02Z</time>
      </trkpt>
      <trkpt lat="41.655148150" lon="2.507368270">
        <ele>309.20</ele>
        <time>2016-02-28T09:06:08Z</time>
      </trkpt>
      <trkpt lat="41.655222500" lon="2.507319230">
        <ele>309.20</ele>
        <time>2016-02-28T09:06:10Z</time>
      </trkpt>
      <trkpt lat="41.655385690" lon="2.507313700">
        <ele>308.24</ele>
        <time>2016-02-28T09:06:14Z</time>
      </trkpt>
      <trkpt lat="41.655477140" lon="2.507423510">
        <ele>307.28</ele>
        <time>2016-02-28T09:06:17Z</time>
      </trkpt>
      <trkpt lat="41.655519470" lon="2.507529700">
        <ele>307.28</ele>
        <time>2016-02-28T09:06:19Z</time>
      </trkpt>
      <trkpt lat="41.655567660" lon="2.507696590">
        <ele>306.32</ele>
        <time>2016-02-28T09:06:22Z</time>
      </trkpt>
      <trkpt lat="41.655680150" lon="2.507935140">
        <ele>305.84</ele>
        <time>2016-02-28T09:06:27Z</time>
      </trkpt>
      <trkpt lat="41.655905710" lon="2.507999510">
        <ele>303.91</ele>
        <time>2016-02-28T09:06:32Z</time>
      </trkpt>
      <trkpt lat="41.656034700" lon="2.507877130">
        <ele>302.47</ele>
        <time>2016-02-28T09:06:36Z</time>
      </trkpt>
      <trkpt lat="41.656098570" lon="2.507688210">
        <ele>301.51</ele>
        <time>2016-02-28T09:06:40Z</time>
      </trkpt>
      <trkpt lat="41.656310130" lon="2.507571610">
        <ele>300.55</ele>
        <time>2016-02-28T09:06:45Z</time>
      </trkpt>
      <trkpt lat="41.656399320" lon="2.507592320">
        <ele>300.55</ele>
        <time>2016-02-28T09:06:47Z</time>
      </trkpt>
      <trkpt lat="41.656602410" lon="2.507773620">
        <ele>299.11</ele>
        <time>2016-02-28T09:06:52Z</time>
      </trkpt>
      <trkpt lat="41.656707600" lon="2.508096070">
        <ele>297.18</ele>
        <time>2016-02-28T09:06:57Z</time>
      </trkpt>
      <trkpt lat="41.656717490" lon="2.508343250">
        <ele>296.22</ele>
        <time>2016-02-28T09:07:00Z</time>
      </trkpt>
      <trkpt lat="41.656687490" lon="2.508636790">
        <ele>294.78</ele>
        <time>2016-02-28T09:07:03Z</time>
      </trkpt>
      <trkpt lat="41.656695620" lon="2.508877010">
        <ele>292.86</ele>
        <time>2016-02-28T09:07:06Z</time>
      </trkpt>
      <trkpt lat="41.656710450" lon="2.508959070">
        <ele>290.94</ele>
        <time>2016-02-28T09:07:07Z</time>
      </trkpt>
      <trkpt lat="41.656732410" lon="2.509097620">
        <ele>289.49</ele>
        <time>2016-02-28T09:07:09Z</time>
      </trkpt>
      <trkpt lat="41.656702320" lon="2.509193430">
        <ele>289.01</ele>
        <time>2016-02-28T09:07:11Z</time>
      </trkpt>
      <trkpt lat="41.656601570" lon="2.509229220">
        <ele>287.57</ele>
        <time>2016-02-28T09:07:13Z</time>
      </trkpt>
      <trkpt lat="41.656338720" lon="2.509230900">
        <ele>284.21</ele>
        <time>2016-02-28T09:07:17Z</time>
      </trkpt>
      <trkpt lat="41.656196640" lon="2.509025460">
        <ele>281.32</ele>
        <time>2016-02-28T09:07:21Z</time>
      </trkpt>
      <trkpt lat="41.656124050" lon="2.508871310">
        <ele>279.88</ele>
        <time>2016-02-28T09:07:24Z</time>
      </trkpt>
      <trkpt lat="41.655983160" lon="2.508851700">
        <ele>277.96</ele>
        <time>2016-02-28T09:07:27Z</time>
      </trkpt>
      <trkpt lat="41.655642510" lon="2.508925290">
        <ele>274.11</ele>
        <time>2016-02-28T09:07:32Z</time>
      </trkpt>
      <trkpt lat="41.655580570" lon="2.508935600">
        <ele>273.63</ele>
        <time>2016-02-28T09:07:33Z</time>
      </trkpt>
      <trkpt lat="41.655456100" lon="2.509137190">
        <ele>271.71</ele>
        <time>2016-02-28T09:07:37Z</time>
      </trkpt>
      <trkpt lat="41.655436320" lon="2.509310610">
        <ele>271.23</ele>
        <time>2016-02-28T09:07:39Z</time>
      </trkpt>
      <trkpt lat="41.655294750" lon="2.509575730">
        <ele>270.27</ele>
        <time>2016-02-28T09:07:43Z</time>
      </trkpt>
      <trkpt lat="41.655102130" lon="2.509616130">
        <ele>270.27</ele>
        <time>2016-02-28T09:07:46Z</time>
      </trkpt>
      <trkpt lat="41.654831900" lon="2.509750570">
        <ele>268.83</ele>
        <time>2016-02-28T09:07:51Z</time>
      </trkpt>
      <trkpt lat="41.654532580" lon="2.509789970">
        <ele>267.86</ele>
        <time>2016-02-28T09:07:56Z</time>
      </trkpt>
      <trkpt lat="41.654310290" lon="2.509775380">
        <ele>266.42</ele>
        <time>2016-02-28T09:08:00Z</time>
      </trkpt>
      <trkpt lat="41.654252120" lon="2.509929860">
        <ele>265.94</ele>
        <time>2016-02-28T09:08:03Z</time>
      </trkpt>
      <trkpt lat="41.654223540" lon="2.510085930">
        <ele>264.98</ele>
        <time>2016-02-28T09:08:05Z</time>
      </trkpt>
      <trkpt lat="41.654012900" lon="2.510525900">
        <ele>261.62</ele>
        <time>2016-02-28T09:08:11Z</time>
      </trkpt>
      <trkpt lat="41.653943590" lon="2.510607120">
        <ele>260.65</ele>
        <time>2016-02-28T09:08:12Z</time>
      </trkpt>
      <trkpt lat="41.653740160" lon="2.510835950">
        <ele>257.29</ele>
        <time>2016-02-28T09:08:15Z</time>
      </trkpt>
      <trkpt lat="41.653581740" lon="2.511071810">
        <ele>255.37</ele>
        <time>2016-02-28T09:08:18Z</time>
      </trkpt>
      <trkpt lat="41.653469670" lon="2.511207770">
        <ele>253.93</ele>
        <time>2016-02-28T09:08:20Z</time>
      </trkpt>
      <trkpt lat="41.653400270" lon="2.511259990">
        <ele>252.96</ele>
        <time>2016-02-28T09:08:21Z</time>
      </trkpt>
      <trkpt lat="41.653258790" lon="2.511345730">
        <ele>251.04</ele>
        <time>2016-02-28T09:08:23Z</time>
      </trkpt>
      <trkpt lat="41.652973800" lon="2.511373230">
        <ele>248.64</ele>
        <time>2016-02-28T09:08:27Z</time>
      </trkpt>
      <trkpt lat="41.652705500" lon="2.511287230">
        <ele>244.79</ele>
        <time>2016-02-28T09:08:30Z</time>
      </trkpt>
      <trkpt lat="41.652521010" lon="2.511230900">
        <ele>242.87</ele>
        <time>2016-02-28T09:08:32Z</time>
      </trkpt>
      <trkpt lat="41.652320260" lon="2.511210450">
        <ele>241.43</ele>
        <time>2016-02-28T09:08:34Z</time>
      </trkpt>
      <trkpt lat="41.651902430" lon="2.511104330">
        <ele>239.99</ele>
        <time>2016-02-28T09:08:38Z</time>
      </trkpt>
      <trkpt lat="41.651418450" lon="2.510985810">
        <ele>236.62</ele>
        <time>2016-02-28T09:08:43Z</time>
      </trkpt>
      <trkpt lat="41.651263810" lon="2.510998890">
        <ele>235.66</ele>
        <time>2016-02-28T09:08:45Z</time>
      </trkpt>
      <trkpt lat="41.651138670" lon="2.511089750">
        <ele>235.66</ele>
        <time>2016-02-28T09:08:47Z</time>
      </trkpt>
      <trkpt lat="41.650783690" lon="2.511234250">
        <ele>232.78</ele>
        <time>2016-02-28T09:08:52Z</time>
      </trkpt>
      <trkpt lat="41.650685540" lon="2.511191340">
        <ele>230.85</ele>
        <time>2016-02-28T09:08:54Z</time>
      </trkpt>
      <trkpt lat="41.650588980" lon="2.511127130">
        <ele>230.85</ele>
        <time>2016-02-28T09:08:56Z</time>
      </trkpt>
      <trkpt lat="41.650443220" lon="2.510986400">
        <ele>229.89</ele>
        <time>2016-02-28T09:08:59Z</time>
      </trkpt>
      <trkpt lat="41.650120180" lon="2.510835950">
        <ele>228.93</ele>
        <time>2016-02-28T09:09:04Z</time>
      </trkpt>
      <trkpt lat="41.649787500" lon="2.510748770">
        <ele>226.05</ele>
        <time>2016-02-28T09:09:08Z</time>
      </trkpt>
      <trkpt lat="41.649694130" lon="2.510713150">
        <ele>226.05</ele>
        <time>2016-02-28T09:09:09Z</time>
      </trkpt>
      <trkpt lat="41.649338650" lon="2.510518270">
        <ele>223.16</ele>
        <time>2016-02-28T09:09:13Z</time>
      </trkpt>
      <trkpt lat="41.649108320" lon="2.510481730">
        <ele>220.76</ele>
        <time>2016-02-28T09:09:16Z</time>
      </trkpt>
      <trkpt lat="41.648997510" lon="2.510584490">
        <ele>220.28</ele>
        <time>2016-02-28T09:09:18Z</time>
      </trkpt>
      <trkpt lat="41.648713200" lon="2.510810800">
        <ele>219.32</ele>
        <time>2016-02-28T09:09:23Z</time>
      </trkpt>
      <trkpt lat="41.648618900" lon="2.510788670">
        <ele>220.76</ele>
        <time>2016-02-28T09:09:25Z</time>
      </trkpt>
      <trkpt lat="41.648358310" lon="2.510648860">
        <ele>221.24</ele>
        <time>2016-02-28T09:09:32Z</time>
      </trkpt>
      <trkpt lat="41.648082120" lon="2.510450380">
        <ele>221.72</ele>
        <time>2016-02-28T09:09:40Z</time>
      </trkpt>
      <trkpt lat="41.647885230" lon="2.510310990">
        <ele>221.72</ele>
        <time>2016-02-28T09:09:47Z</time>
      </trkpt>
      <trkpt lat="41.647775600" lon="2.510182330">
        <ele>221.72</ele>
        <time>2016-02-28T09:09:54Z</time>
      </trkpt>
      <trkpt lat="41.647643410" lon="2.510212840">
        <ele>221.72</ele>
        <time>2016-02-28T09:09:59Z</time>
      </trkpt>
      <trkpt lat="41.647581720" lon="2.510289450">
        <ele>221.72</ele>
        <time>2016-02-28T09:10:03Z</time>
      </trkpt>
      <trkpt lat="41.647468060" lon="2.510447700">
        <ele>221.72</ele>
        <time>2016-02-28T09:10:10Z</time>
      </trkpt>
      <trkpt lat="41.647383910" lon="2.510575600">
        <ele>221.72</ele>
        <time>2016-02-28T09:10:15Z</time>
      </trkpt>
      <trkpt lat="41.647372510" lon="2.510594630">
        <ele>221.72</ele>
        <time>2016-02-28T09:10:16Z</time>
      </trkpt>
      <trkpt lat="41.647314340" lon="2.510548360">
        <ele>220.76</ele>
        <time>2016-02-28T09:10:21Z</time>
      </trkpt>
      <trkpt lat="41.647322720" lon="2.510528080">
        <ele>220.76</ele>
        <time>2016-02-28T09:10:22Z</time>
      </trkpt>
      <trkpt lat="41.647362200" lon="2.510485420">
        <ele>220.76</ele>
        <time>2016-02-28T09:10:25Z</time>
      </trkpt>
      <trkpt lat="41.647320630" lon="2.510481480">
        <ele>220.28</ele>
        <time>2016-02-28T09:10:29Z</time>
      </trkpt>
      <trkpt lat="41.647307050" lon="2.510508550">
        <ele>220.28</ele>
        <time>2016-02-28T09:10:30Z</time>
      </trkpt>
      <trkpt lat="41.647206210" lon="2.510809630">
        <ele>220.28</ele>
        <time>2016-02-28T09:10:39Z</time>
      </trkpt>
      <trkpt lat="41.647161790" lon="2.511002830">
        <ele>221.72</ele>
        <time>2016-02-28T09:10:44Z</time>
      </trkpt>
      <trkpt lat="41.647103530" lon="2.511377920">
        <ele>222.68</ele>
        <time>2016-02-28T09:10:53Z</time>
      </trkpt>
      <trkpt lat="41.647056850" lon="2.511816710">
        <ele>224.12</ele>
        <time>2016-02-28T09:11:03Z</time>
      </trkpt>
      <trkpt lat="41.647038070" lon="2.512228430">
        <ele>224.61</ele>
        <time>2016-02-28T09:11:12Z</time>
      </trkpt>
      <trkpt lat="41.647014940" lon="2.512647780">
        <ele>226.05</ele>
        <time>2016-02-28T09:11:21Z</time>
      </trkpt>
      <trkpt lat="41.647002030" lon="2.513080030">
        <ele>227.01</ele>
        <time>2016-02-28T09:11:31Z</time>
      </trkpt>
      <trkpt lat="41.647003870" lon="2.513119850">
        <ele>227.01</ele>
        <time>2016-02-28T09:11:32Z</time>
      </trkpt>
      <trkpt lat="41.646938410" lon="2.513100650">
        <ele>225.57</ele>
        <time>2016-02-28T09:11:36Z</time>
      </trkpt>
      <trkpt lat="41.646890970" lon="2.512935780">
        <ele>222.68</ele>
        <time>2016-02-28T09:11:40Z</time>
      </trkpt>
      <trkpt lat="41.646852160" lon="2.512941820">
        <ele>222.68</ele>
        <time>2016-02-28T09:11:41Z</time>
      </trkpt>
      <trkpt lat="41.646572710" lon="2.513220430">
        <ele>222.20</ele>
        <time>2016-02-28T09:11:49Z</time>
      </trkpt>
      <trkpt lat="41.646450750" lon="2.513499380">
        <ele>222.20</ele>
        <time>2016-02-28T09:11:55Z</time>
      </trkpt>
      <trkpt lat="41.646399710" lon="2.513805820">
        <ele>224.12</ele>
        <time>2016-02-28T09:12:02Z</time>
      </trkpt>
      <trkpt lat="41.646292420" lon="2.514077140">
        <ele>225.09</ele>
        <time>2016-02-28T09:12:09Z</time>
      </trkpt>
      <trkpt lat="41.646235760" lon="2.514235900">
        <ele>225.09</ele>
        <time>2016-02-28T09:12:13Z</time>
      </trkpt>
      <trkpt lat="41.646150260" lon="2.514345450">
        <ele>225.57</ele>
        <time>2016-02-28T09:12:17Z</time>
      </trkpt>
      <trkpt lat="41.645963510" lon="2.514675530">
        <ele>225.57</ele>
        <time>2016-02-28T09:12:25Z</time>
      </trkpt>
      <trkpt lat="41.645848930" lon="2.515000910">
        <ele>225.57</ele>
        <time>2016-02-28T09:12:32Z</time>
      </trkpt>
      <trkpt lat="41.645658330" lon="2.515256900">
        <ele>226.05</ele>
        <time>2016-02-28T09:12:40Z</time>
      </trkpt>
      <trkpt lat="41.645501250" lon="2.515450440">
        <ele>226.53</ele>
        <time>2016-02-28T09:12:47Z</time>
      </trkpt>
      <trkpt lat="41.645367390" lon="2.515385480">
        <ele>227.49</ele>
        <time>2016-02-28T09:12:53Z</time>
      </trkpt>
      <trkpt lat="41.645260270" lon="2.515230410">
        <ele>229.41</ele>
        <time>2016-02-28T09:13:00Z</time>
      </trkpt>
      <trkpt lat="41.645166810" lon="2.515044840">
        <ele>230.85</ele>
        <time>2016-02-28T09:13:07Z</time>
      </trkpt>
      <trkpt lat="41.645019710" lon="2.514870320">
        <ele>232.78</ele>
        <time>2016-02-28T09:13:16Z</time>
      </trkpt>
      <trkpt lat="41.644942260" lon="2.514789440">
        <ele>234.22</ele>
        <time>2016-02-28T09:13:22Z</time>
      </trkpt>
      <trkpt lat="41.644854000" lon="2.514720540">
        <ele>236.14</ele>
        <time>2016-02-28T09:13:29Z</time>
      </trkpt>
      <trkpt lat="41.644735980" lon="2.514650970">
        <ele>237.58</ele>
        <time>2016-02-28T09:13:38Z</time>
      </trkpt>
      <trkpt lat="41.644631210" lon="2.514621880">
        <ele>238.54</ele>
        <time>2016-02-28T09:13:45Z</time>
      </trkpt>
      <trkpt lat="41.644511010" lon="2.514609060">
        <ele>239.51</ele>
        <time>2016-02-28T09:13:52Z</time>
      </trkpt>
      <trkpt lat="41.644373880" lon="2.514625910">
        <ele>240.47</ele>
        <time>2016-02-28T09:14:00Z</time>
      </trkpt>
      <trkpt lat="41.644227200" lon="2.514609310">
        <ele>241.43</ele>
        <time>2016-02-28T09:14:10Z</time>
      </trkpt>
      <trkpt lat="41.644074310" lon="2.514582240">
        <ele>242.87</ele>
        <time>2016-02-28T09:14:19Z</time>
      </trkpt>
      <trkpt lat="41.643916320" lon="2.514554490">
        <ele>245.27</ele>
        <time>2016-02-28T09:14:29Z</time>
      </trkpt>
      <trkpt lat="41.643775670" lon="2.514523400">
        <ele>247.68</ele>
        <time>2016-02-28T09:14:38Z</time>
      </trkpt>
      <trkpt lat="41.643648600" lon="2.514486770">
        <ele>248.16</ele>
        <time>2016-02-28T09:14:46Z</time>
      </trkpt>
      <trkpt lat="41.643509960" lon="2.514477040">
        <ele>249.12</ele>
        <time>2016-02-28T09:14:54Z</time>
      </trkpt>
      <trkpt lat="41.643375260" lon="2.514446950">
        <ele>251.04</ele>
        <time>2016-02-28T09:15:03Z</time>
      </trkpt>
      <trkpt lat="41.643361520" lon="2.514445190">
        <ele>251.04</ele>
        <time>2016-02-28T09:15:04Z</time>
      </trkpt>
      <trkpt lat="41.643308630" lon="2.514414430">
        <ele>251.52</ele>
        <time>2016-02-28T09:15:08Z</time>
      </trkpt>
      <trkpt lat="41.643193290" lon="2.514352570">
        <ele>252.96</ele>
        <time>2016-02-28T09:15:17Z</time>
      </trkpt>
      <trkpt lat="41.643056920" lon="2.514335470">
        <ele>254.89</ele>
        <time>2016-02-28T09:15:25Z</time>
      </trkpt>
      <trkpt lat="41.642917950" lon="2.514305300">
        <ele>255.85</ele>
        <time>2016-02-28T09:15:33Z</time>
      </trkpt>
      <trkpt lat="41.642821300" lon="2.514257190">
        <ele>257.29</ele>
        <time>2016-02-28T09:15:39Z</time>
      </trkpt>
      <trkpt lat="41.642771100" lon="2.514215700">
        <ele>257.77</ele>
        <time>2016-02-28T09:15:43Z</time>
      </trkpt>
      <trkpt lat="41.642684340" lon="2.514173620">
        <ele>258.73</ele>
        <time>2016-02-28T09:15:49Z</time>
      </trkpt>
      <trkpt lat="41.642661800" lon="2.514146380">
        <ele>258.73</ele>
        <time>2016-02-28T09:15:51Z</time>
      </trkpt>
      <trkpt lat="41.642531460" lon="2.514039510">
        <ele>261.14</ele>
        <time>2016-02-28T09:16:01Z</time>
      </trkpt>
      <trkpt lat="41.642429370" lon="2.513958290">
        <ele>262.58</ele>
        <time>2016-02-28T09:16:09Z</time>
      </trkpt>
      <trkpt lat="41.642341690" lon="2.513933900">
        <ele>263.54</ele>
        <time>2016-02-28T09:16:15Z</time>
      </trkpt>
      <trkpt lat="41.642275060" lon="2.513942870">
        <ele>263.54</ele>
        <time>2016-02-28T09:16:20Z</time>
      </trkpt>
      <trkpt lat="41.642240350" lon="2.514126850">
        <ele>263.54</ele>
        <time>2016-02-28T09:16:28Z</time>
      </trkpt>
      <trkpt lat="41.642326690" lon="2.514293980">
        <ele>264.98</ele>
        <time>2016-02-28T09:16:37Z</time>
      </trkpt>
      <trkpt lat="41.642398350" lon="2.514448460">
        <ele>266.90</ele>
        <time>2016-02-28T09:16:46Z</time>
      </trkpt>
      <trkpt lat="41.642464910" lon="2.514582820">
        <ele>268.35</ele>
        <time>2016-02-28T09:16:54Z</time>
      </trkpt>
      <trkpt lat="41.642546210" lon="2.514717270">
        <ele>269.79</ele>
        <time>2016-02-28T09:17:02Z</time>
      </trkpt>
      <trkpt lat="41.642647210" lon="2.514873840">
        <ele>270.27</ele>
        <time>2016-02-28T09:17:11Z</time>
      </trkpt>
      <trkpt lat="41.642658610" lon="2.514895390">
        <ele>270.75</ele>
        <time>2016-02-28T09:17:12Z</time>
      </trkpt>
      <trkpt lat="41.642649560" lon="2.515078110">
        <ele>272.67</ele>
        <time>2016-02-28T09:17:22Z</time>
      </trkpt>
      <trkpt lat="41.642554340" lon="2.515197890">
        <ele>273.15</ele>
        <time>2016-02-28T09:17:30Z</time>
      </trkpt>
      <trkpt lat="41.642435900" lon="2.515232760">
        <ele>274.59</ele>
        <time>2016-02-28T09:17:38Z</time>
      </trkpt>
      <trkpt lat="41.642290230" lon="2.515229660">
        <ele>277.96</ele>
        <time>2016-02-28T09:17:49Z</time>
      </trkpt>
      <trkpt lat="41.642171710" lon="2.515212640">
        <ele>279.40</ele>
        <time>2016-02-28T09:17:58Z</time>
      </trkpt>
      <trkpt lat="41.642051170" lon="2.515155220">
        <ele>280.84</ele>
        <time>2016-02-28T09:18:07Z</time>
      </trkpt>
      <trkpt lat="41.641957470" lon="2.515080210">
        <ele>282.28</ele>
        <time>2016-02-28T09:18:16Z</time>
      </trkpt>
      <trkpt lat="41.641937680" lon="2.515065370">
        <ele>282.77</ele>
        <time>2016-02-28T09:18:23Z</time>
      </trkpt>
      <trkpt lat="41.641917990" lon="2.515074760">
        <ele>282.77</ele>
        <time>2016-02-28T09:18:38Z</time>
      </trkpt>
      <trkpt lat="41.641908600" lon="2.515075680">
        <ele>282.77</ele>
        <time>2016-02-28T09:18:59Z</time>
      </trkpt>
      <trkpt lat="41.641931900" lon="2.515056400">
        <ele>283.25</ele>
        <time>2016-02-28T09:19:18Z</time>
      </trkpt>
      <trkpt lat="41.641922600" lon="2.515073750">
        <ele>283.25</ele>
        <time>2016-02-28T09:19:35Z</time>
      </trkpt>
      <trkpt lat="41.641909270" lon="2.515085650">
        <ele>283.25</ele>
        <time>2016-02-28T09:19:53Z</time>
      </trkpt>
      <trkpt lat="41.641907510" lon="2.515084570">
        <ele>283.25</ele>
        <time>2016-02-28T09:20:15Z</time>
      </trkpt>
      <trkpt lat="41.641905830" lon="2.515071150">
        <ele>283.25</ele>
        <time>2016-02-28T09:20:30Z</time>
      </trkpt>
      <trkpt lat="41.641897790" lon="2.515067050">
        <ele>283.73</ele>
        <time>2016-02-28T09:20:48Z</time>
      </trkpt>
      <trkpt lat="41.641887140" lon="2.515061680">
        <ele>283.73</ele>
        <time>2016-02-28T09:21:03Z</time>
      </trkpt>
      <trkpt lat="41.641866770" lon="2.515007700">
        <ele>284.21</ele>
        <time>2016-02-28T09:21:09Z</time>
      </trkpt>
      <trkpt lat="41.641837690" lon="2.514973670">
        <ele>284.69</ele>
        <time>2016-02-28T09:21:13Z</time>
      </trkpt>
      <trkpt lat="41.641795190" lon="2.514947350">
        <ele>285.17</ele>
        <time>2016-02-28T09:21:17Z</time>
      </trkpt>
      <trkpt lat="41.641682790" lon="2.514898240">
        <ele>287.57</ele>
        <time>2016-02-28T09:21:26Z</time>
      </trkpt>
      <trkpt lat="41.641544490" lon="2.514858510">
        <ele>289.97</ele>
        <time>2016-02-28T09:21:36Z</time>
      </trkpt>
      <trkpt lat="41.641461680" lon="2.514815670">
        <ele>290.94</ele>
        <time>2016-02-28T09:21:43Z</time>
      </trkpt>
      <trkpt lat="41.641419180" lon="2.514818520">
        <ele>291.90</ele>
        <time>2016-02-28T09:21:46Z</time>
      </trkpt>
      <trkpt lat="41.641329830" lon="2.514784330">
        <ele>293.34</ele>
        <time>2016-02-28T09:21:54Z</time>
      </trkpt>
      <trkpt lat="41.641229160" lon="2.514773680">
        <ele>295.26</ele>
        <time>2016-02-28T09:22:02Z</time>
      </trkpt>
      <trkpt lat="41.641170820" lon="2.514763790">
        <ele>296.22</ele>
        <time>2016-02-28T09:22:06Z</time>
      </trkpt>
      <trkpt lat="41.641116680" lon="2.514798570">
        <ele>297.18</ele>
        <time>2016-02-28T09:22:11Z</time>
      </trkpt>
      <trkpt lat="41.641059600" lon="2.514938380">
        <ele>298.63</ele>
        <time>2016-02-28T09:22:20Z</time>
      </trkpt>
      <trkpt lat="41.641013660" lon="2.515073750">
        <ele>299.59</ele>
        <time>2016-02-28T09:22:28Z</time>
      </trkpt>
      <trkpt lat="41.640936130" lon="2.515244740">
        <ele>300.55</ele>
        <time>2016-02-28T09:22:37Z</time>
      </trkpt>
      <trkpt lat="41.640831270" lon="2.515353880">
        <ele>301.99</ele>
        <time>2016-02-28T09:22:45Z</time>
      </trkpt>
      <trkpt lat="41.640694900" lon="2.515340050">
        <ele>303.43</ele>
        <time>2016-02-28T09:22:54Z</time>
      </trkpt>
      <trkpt lat="41.640629350" lon="2.515233430">
        <ele>304.88</ele>
        <time>2016-02-28T09:23:01Z</time>
      </trkpt>
      <trkpt lat="41.640564730" lon="2.515124800">
        <ele>306.80</ele>
        <time>2016-02-28T09:23:09Z</time>
      </trkpt>
      <trkpt lat="41.640521390" lon="2.515008790">
        <ele>308.72</ele>
        <time>2016-02-28T09:23:17Z</time>
      </trkpt>
      <trkpt lat="41.640455090" lon="2.514862030">
        <ele>310.64</ele>
        <time>2016-02-28T09:23:26Z</time>
      </trkpt>
      <trkpt lat="41.640361380" lon="2.514680470">
        <ele>311.60</ele>
        <time>2016-02-28T09:23:36Z</time>
      </trkpt>
      <trkpt lat="41.640267760" lon="2.514493810">
        <ele>312.57</ele>
        <time>2016-02-28T09:23:46Z</time>
      </trkpt>
      <trkpt lat="41.640170950" lon="2.514382410">
        <ele>313.05</ele>
        <time>2016-02-28T09:23:53Z</time>
      </trkpt>
      <trkpt lat="41.640098690" lon="2.514331370">
        <ele>314.01</ele>
        <time>2016-02-28T09:23:58Z</time>
      </trkpt>
      <trkpt lat="41.639968100" lon="2.514302530">
        <ele>315.45</ele>
        <time>2016-02-28T09:24:06Z</time>
      </trkpt>
      <trkpt lat="41.639873390" lon="2.514360370">
        <ele>316.89</ele>
        <time>2016-02-28T09:24:14Z</time>
      </trkpt>
      <trkpt lat="41.639800970" lon="2.514450060">
        <ele>318.81</ele>
        <time>2016-02-28T09:24:22Z</time>
      </trkpt>
      <trkpt lat="41.639690580" lon="2.514596070">
        <ele>320.26</ele>
        <time>2016-02-28T09:24:31Z</time>
      </trkpt>
      <trkpt lat="41.639583960" lon="2.514752730">
        <ele>321.22</ele>
        <time>2016-02-28T09:24:40Z</time>
      </trkpt>
      <trkpt lat="41.639480360" lon="2.514947690">
        <ele>322.66</ele>
        <time>2016-02-28T09:24:50Z</time>
      </trkpt>
      <trkpt lat="41.639320270" lon="2.514971330">
        <ele>323.62</ele>
        <time>2016-02-28T09:24:59Z</time>
      </trkpt>
      <trkpt lat="41.639152960" lon="2.514911060">
        <ele>324.10</ele>
        <time>2016-02-28T09:25:07Z</time>
      </trkpt>
      <trkpt lat="41.639114990" lon="2.514904100">
        <ele>324.10</ele>
        <time>2016-02-28T09:25:09Z</time>
      </trkpt>
      <trkpt lat="41.639044420" lon="2.514944670">
        <ele>324.58</ele>
        <time>2016-02-28T09:25:13Z</time>
      </trkpt>
      <trkpt lat="41.638892370" lon="2.515104680">
        <ele>326.99</ele>
        <time>2016-02-28T09:25:23Z</time>
      </trkpt>
      <trkpt lat="41.638802010" lon="2.515241640">
        <ele>327.95</ele>
        <time>2016-02-28T09:25:30Z</time>
      </trkpt>
      <trkpt lat="41.638700590" lon="2.515434590">
        <ele>328.91</ele>
        <time>2016-02-28T09:25:39Z</time>
      </trkpt>
      <trkpt lat="41.638567400" lon="2.515569120">
        <ele>330.35</ele>
        <time>2016-02-28T09:25:47Z</time>
      </trkpt>
      <trkpt lat="41.638454580" lon="2.515484380">
        <ele>330.83</ele>
        <time>2016-02-28T09:25:53Z</time>
      </trkpt>
      <trkpt lat="41.638290720" lon="2.515326550">
        <ele>330.83</ele>
        <time>2016-02-28T09:26:00Z</time>
      </trkpt>
      <trkpt lat="41.638083180" lon="2.515192190">
        <ele>331.31</ele>
        <time>2016-02-28T09:26:08Z</time>
      </trkpt>
      <trkpt lat="41.637849410" lon="2.515096050">
        <ele>331.79</ele>
        <time>2016-02-28T09:26:16Z</time>
      </trkpt>
      <trkpt lat="41.637575660" lon="2.515105690">
        <ele>332.75</ele>
        <time>2016-02-28T09:26:26Z</time>
      </trkpt>
      <trkpt lat="41.637514720" lon="2.515120270">
        <ele>332.75</ele>
        <time>2016-02-28T09:26:28Z</time>
      </trkpt>
      <trkpt lat="41.637295370" lon="2.515285310">
        <ele>331.31</ele>
        <time>2016-02-28T09:26:33Z</time>
      </trkpt>
      <trkpt lat="41.637196290" lon="2.515356140">
        <ele>331.31</ele>
        <time>2016-02-28T09:26:35Z</time>
      </trkpt>
      <trkpt lat="41.636909970" lon="2.515426380">
        <ele>330.83</ele>
        <time>2016-02-28T09:26:42Z</time>
      </trkpt>
      <trkpt lat="41.636698240" lon="2.515393940">
        <ele>332.27</ele>
        <time>2016-02-28T09:26:49Z</time>
      </trkpt>
      <trkpt lat="41.636544680" lon="2.515367040">
        <ele>332.75</ele>
        <time>2016-02-28T09:26:56Z</time>
      </trkpt>
      <trkpt lat="41.636410320" lon="2.515338540">
        <ele>334.20</ele>
        <time>2016-02-28T09:27:04Z</time>
      </trkpt>
      <trkpt lat="41.636319710" lon="2.515282880">
        <ele>334.68</ele>
        <time>2016-02-28T09:27:10Z</time>
      </trkpt>
      <trkpt lat="41.636201610" lon="2.515158160">
        <ele>336.12</ele>
        <time>2016-02-28T09:27:19Z</time>
      </trkpt>
      <trkpt lat="41.636071860" lon="2.515041230">
        <ele>337.56</ele>
        <time>2016-02-28T09:27:29Z</time>
      </trkpt>
      <trkpt lat="41.635949400" lon="2.515006780">
        <ele>339.00</ele>
        <time>2016-02-28T09:27:38Z</time>
      </trkpt>
      <trkpt lat="41.635839680" lon="2.514987080">
        <ele>341.41</ele>
        <time>2016-02-28T09:27:46Z</time>
      </trkpt>
      <trkpt lat="41.635732230" lon="2.514988510">
        <ele>341.41</ele>
        <time>2016-02-28T09:27:53Z</time>
      </trkpt>
      <trkpt lat="41.635601050" lon="2.515016920">
        <ele>342.85</ele>
        <time>2016-02-28T09:28:02Z</time>
      </trkpt>
      <trkpt lat="41.635510020" lon="2.515070990">
        <ele>343.33</ele>
        <time>2016-02-28T09:28:09Z</time>
      </trkpt>
      <trkpt lat="41.635446150" lon="2.515156310">
        <ele>346.21</ele>
        <time>2016-02-28T09:28:16Z</time>
      </trkpt>
      <trkpt lat="41.635440620" lon="2.515183640">
        <ele>346.69</ele>
        <time>2016-02-28T09:28:18Z</time>
      </trkpt>
      <trkpt lat="41.635384290" lon="2.515312220">
        <ele>348.13</ele>
        <time>2016-02-28T09:28:26Z</time>
      </trkpt>
      <trkpt lat="41.635348420" lon="2.515357480">
        <ele>349.10</ele>
        <time>2016-02-28T09:28:30Z</time>
      </trkpt>
      <trkpt lat="41.635303740" lon="2.515372990">
        <ele>350.06</ele>
        <time>2016-02-28T09:28:34Z</time>
      </trkpt>
      <trkpt lat="41.635235430" lon="2.515284730">
        <ele>351.98</ele>
        <time>2016-02-28T09:28:43Z</time>
      </trkpt>
      <trkpt lat="41.635248760" lon="2.515149530">
        <ele>354.38</ele>
        <time>2016-02-28T09:28:53Z</time>
      </trkpt>
      <trkpt lat="41.635256800" lon="2.515027480">
        <ele>356.31</ele>
        <time>2016-02-28T09:29:01Z</time>
      </trkpt>
      <trkpt lat="41.635250010" lon="2.515000580">
        <ele>356.79</ele>
        <time>2016-02-28T09:29:03Z</time>
      </trkpt>
      <trkpt lat="41.635226960" lon="2.514922960">
        <ele>358.23</ele>
        <time>2016-02-28T09:29:08Z</time>
      </trkpt>
      <trkpt lat="41.635151020" lon="2.514813330">
        <ele>360.15</ele>
        <time>2016-02-28T09:29:18Z</time>
      </trkpt>
      <trkpt lat="41.635065780" lon="2.514736800">
        <ele>363.04</ele>
        <time>2016-02-28T09:29:27Z</time>
      </trkpt>
      <trkpt lat="41.634984060" lon="2.514729260">
        <ele>364.48</ele>
        <time>2016-02-28T09:29:35Z</time>
      </trkpt>
      <trkpt lat="41.634885320" lon="2.514720120">
        <ele>365.44</ele>
        <time>2016-02-28T09:29:44Z</time>
      </trkpt>
      <trkpt lat="41.634835610" lon="2.514711070">
        <ele>366.40</ele>
        <time>2016-02-28T09:29:48Z</time>
      </trkpt>
      <trkpt lat="41.634789430" lon="2.514699840">
        <ele>366.88</ele>
        <time>2016-02-28T09:29:52Z</time>
      </trkpt>
      <trkpt lat="41.634691780" lon="2.514668070">
        <ele>368.32</ele>
        <time>2016-02-28T09:30:01Z</time>
      </trkpt>
      <trkpt lat="41.634571330" lon="2.514670000">
        <ele>369.28</ele>
        <time>2016-02-28T09:30:10Z</time>
      </trkpt>
      <trkpt lat="41.634484410" lon="2.514720540">
        <ele>370.24</ele>
        <time>2016-02-28T09:30:18Z</time>
      </trkpt>
      <trkpt lat="41.634435800" lon="2.514769820">
        <ele>370.73</ele>
        <time>2016-02-28T09:30:22Z</time>
      </trkpt>
      <trkpt lat="41.634315600" lon="2.514841660">
        <ele>372.17</ele>
        <time>2016-02-28T09:30:31Z</time>
      </trkpt>
      <trkpt lat="41.634167990" lon="2.514851880">
        <ele>373.13</ele>
        <time>2016-02-28T09:30:41Z</time>
      </trkpt>
      <trkpt lat="41.634050310" lon="2.514842160">
        <ele>373.61</ele>
        <time>2016-02-28T09:30:49Z</time>
      </trkpt>
      <trkpt lat="41.633950650" lon="2.514821880">
        <ele>375.05</ele>
        <time>2016-02-28T09:30:56Z</time>
      </trkpt>
      <trkpt lat="41.633842860" lon="2.514797990">
        <ele>376.49</ele>
        <time>2016-02-28T09:31:04Z</time>
      </trkpt>
      <trkpt lat="41.633709090" lon="2.514854480">
        <ele>377.94</ele>
        <time>2016-02-28T09:31:14Z</time>
      </trkpt>
      <trkpt lat="41.633654690" lon="2.514934860">
        <ele>378.90</ele>
        <time>2016-02-28T09:31:20Z</time>
      </trkpt>
      <trkpt lat="41.633558970" lon="2.515027230">
        <ele>379.38</ele>
        <time>2016-02-28T09:31:27Z</time>
      </trkpt>
      <trkpt lat="41.633448410" lon="2.515067300">
        <ele>380.34</ele>
        <time>2016-02-28T09:31:34Z</time>
      </trkpt>
      <trkpt lat="41.633399540" lon="2.515076180">
        <ele>380.34</ele>
        <time>2016-02-28T09:31:37Z</time>
      </trkpt>
      <trkpt lat="41.633297870" lon="2.515074840">
        <ele>380.82</ele>
        <time>2016-02-28T09:31:44Z</time>
      </trkpt>
      <trkpt lat="41.633279600" lon="2.515067380">
        <ele>381.30</ele>
        <time>2016-02-28T09:31:45Z</time>
      </trkpt>
      <trkpt lat="41.633162170" lon="2.515042070">
        <ele>381.78</ele>
        <time>2016-02-28T09:31:52Z</time>
      </trkpt>
      <trkpt lat="41.633086810" lon="2.515055820">
        <ele>382.26</ele>
        <time>2016-02-28T09:31:56Z</time>
      </trkpt>
      <trkpt lat="41.632903920" lon="2.515016340">
        <ele>383.22</ele>
        <time>2016-02-28T09:32:06Z</time>
      </trkpt>
      <trkpt lat="41.632755140" lon="2.514933190">
        <ele>384.18</ele>
        <time>2016-02-28T09:32:15Z</time>
      </trkpt>
      <trkpt lat="41.632631170" lon="2.514848280">
        <ele>384.66</ele>
        <time>2016-02-28T09:32:23Z</time>
      </trkpt>
      <trkpt lat="41.632486500" lon="2.514718190">
        <ele>385.63</ele>
        <time>2016-02-28T09:32:34Z</time>
      </trkpt>
      <trkpt lat="41.632383660" lon="2.514669910">
        <ele>387.07</ele>
        <time>2016-02-28T09:32:41Z</time>
      </trkpt>
      <trkpt lat="41.632275440" lon="2.514625910">
        <ele>388.99</ele>
        <time>2016-02-28T09:32:48Z</time>
      </trkpt>
      <trkpt lat="41.632222220" lon="2.514597910">
        <ele>389.95</ele>
        <time>2016-02-28T09:32:52Z</time>
      </trkpt>
      <trkpt lat="41.632184840" lon="2.514596240">
        <ele>390.43</ele>
        <time>2016-02-28T09:32:55Z</time>
      </trkpt>
      <trkpt lat="41.632057350" lon="2.514618200">
        <ele>391.87</ele>
        <time>2016-02-28T09:33:03Z</time>
      </trkpt>
      <trkpt lat="41.631952910" lon="2.514636220">
        <ele>393.32</ele>
        <time>2016-02-28T09:33:10Z</time>
      </trkpt>
      <trkpt lat="41.631820220" lon="2.514655240">
        <ele>393.80</ele>
        <time>2016-02-28T09:33:18Z</time>
      </trkpt>
      <trkpt lat="41.631711760" lon="2.514701930">
        <ele>395.24</ele>
        <time>2016-02-28T09:33:26Z</time>
      </trkpt>
      <trkpt lat="41.631616710" lon="2.514753140">
        <ele>397.16</ele>
        <time>2016-02-28T09:33:34Z</time>
      </trkpt>
      <trkpt lat="41.631532050" lon="2.514807540">
        <ele>397.64</ele>
        <time>2016-02-28T09:33:41Z</time>
      </trkpt>
      <trkpt lat="41.631519820" lon="2.514813910">
        <ele>397.64</ele>
        <time>2016-02-28T09:33:42Z</time>
      </trkpt>
      <trkpt lat="41.631428710" lon="2.514883820">
        <ele>399.08</ele>
        <time>2016-02-28T09:33:51Z</time>
      </trkpt>
      <trkpt lat="41.631339610" lon="2.514923470">
        <ele>401.01</ele>
        <time>2016-02-28T09:34:00Z</time>
      </trkpt>
      <trkpt lat="41.631299790" lon="2.514947520">
        <ele>401.97</ele>
        <time>2016-02-28T09:34:04Z</time>
      </trkpt>
      <trkpt lat="41.631237350" lon="2.515015250">
        <ele>404.37</ele>
        <time>2016-02-28T09:34:12Z</time>
      </trkpt>
      <trkpt lat="41.631193340" lon="2.515060260">
        <ele>405.33</ele>
        <time>2016-02-28T09:34:18Z</time>
      </trkpt>
      <trkpt lat="41.631171550" lon="2.515083640">
        <ele>406.29</ele>
        <time>2016-02-28T09:34:20Z</time>
      </trkpt>
      <trkpt lat="41.631105160" lon="2.515223960">
        <ele>406.29</ele>
        <time>2016-02-28T09:34:28Z</time>
      </trkpt>
      <trkpt lat="41.631064680" lon="2.515349100">
        <ele>407.26</ele>
        <time>2016-02-28T09:34:37Z</time>
      </trkpt>
      <trkpt lat="41.631047750" lon="2.515398380">
        <ele>407.74</ele>
        <time>2016-02-28T09:34:40Z</time>
      </trkpt>
      <trkpt lat="41.631002070" lon="2.515497880">
        <ele>408.70</ele>
        <time>2016-02-28T09:34:48Z</time>
      </trkpt>
      <trkpt lat="41.630991170" lon="2.515526380">
        <ele>409.18</ele>
        <time>2016-02-28T09:34:50Z</time>
      </trkpt>
      <trkpt lat="41.630929140" lon="2.515627210">
        <ele>411.10</ele>
        <time>2016-02-28T09:34:59Z</time>
      </trkpt>
      <trkpt lat="41.630867200" lon="2.515740280">
        <ele>413.02</ele>
        <time>2016-02-28T09:35:09Z</time>
      </trkpt>
      <trkpt lat="41.630775590" lon="2.515851090">
        <ele>413.98</ele>
        <time>2016-02-28T09:35:19Z</time>
      </trkpt>
      <trkpt lat="41.630746170" lon="2.515876240">
        <ele>415.43</ele>
        <time>2016-02-28T09:35:22Z</time>
      </trkpt>
      <trkpt lat="41.630671400" lon="2.515922840">
        <ele>416.87</ele>
        <time>2016-02-28T09:35:28Z</time>
      </trkpt>
      <trkpt lat="41.630594040" lon="2.515939100">
        <ele>418.31</ele>
        <time>2016-02-28T09:35:33Z</time>
      </trkpt>
      <trkpt lat="41.630503510" lon="2.515973800">
        <ele>419.27</ele>
        <time>2016-02-28T09:35:41Z</time>
      </trkpt>
      <trkpt lat="41.630406360" lon="2.516000620">
        <ele>420.71</ele>
        <time>2016-02-28T09:35:50Z</time>
      </trkpt>
      <trkpt lat="41.630339980" lon="2.515946390">
        <ele>422.64</ele>
        <time>2016-02-28T09:35:58Z</time>
      </trkpt>
      <trkpt lat="41.630319530" lon="2.515911100">
        <ele>423.12</ele>
        <time>2016-02-28T09:36:01Z</time>
      </trkpt>
      <trkpt lat="41.630244170" lon="2.515775570">
        <ele>425.04</ele>
        <time>2016-02-28T09:36:12Z</time>
      </trkpt>
      <trkpt lat="41.630180300" lon="2.515643390">
        <ele>427.92</ele>
        <time>2016-02-28T09:36:22Z</time>
      </trkpt>
      <trkpt lat="41.630091620" lon="2.515554370">
        <ele>428.89</ele>
        <time>2016-02-28T09:36:31Z</time>
      </trkpt>
      <trkpt lat="41.629986350" lon="2.515551020">
        <ele>428.89</ele>
        <time>2016-02-28T09:36:40Z</time>
      </trkpt>
      <trkpt lat="41.629948460" lon="2.515555540">
        <ele>428.89</ele>
        <time>2016-02-28T09:36:43Z</time>
      </trkpt>
      <trkpt lat="41.629845280" lon="2.515627800">
        <ele>428.89</ele>
        <time>2016-02-28T09:36:52Z</time>
      </trkpt>
      <trkpt lat="41.629801860" lon="2.515643140">
        <ele>428.89</ele>
        <time>2016-02-28T09:36:55Z</time>
      </trkpt>
      <trkpt lat="41.629691470" lon="2.515638940">
        <ele>430.81</ele>
        <time>2016-02-28T09:37:04Z</time>
      </trkpt>
      <trkpt lat="41.629600110" lon="2.515630650">
        <ele>432.25</ele>
        <time>2016-02-28T09:37:12Z</time>
      </trkpt>
      <trkpt lat="41.629498440" lon="2.515622930">
        <ele>432.73</ele>
        <time>2016-02-28T09:37:21Z</time>
      </trkpt>
      <trkpt lat="41.629452250" lon="2.515626200">
        <ele>434.17</ele>
        <time>2016-02-28T09:37:26Z</time>
      </trkpt>
      <trkpt lat="41.629371950" lon="2.515630900">
        <ele>436.10</ele>
        <time>2016-02-28T09:37:34Z</time>
      </trkpt>
      <trkpt lat="41.629293420" lon="2.515588900">
        <ele>437.54</ele>
        <time>2016-02-28T09:37:42Z</time>
      </trkpt>
      <trkpt lat="41.629284610" lon="2.515586810">
        <ele>437.54</ele>
        <time>2016-02-28T09:37:43Z</time>
      </trkpt>
      <trkpt lat="41.629203060" lon="2.515566360">
        <ele>439.46</ele>
        <time>2016-02-28T09:37:51Z</time>
      </trkpt>
      <trkpt lat="41.629107340" lon="2.515535260">
        <ele>439.94</ele>
        <time>2016-02-28T09:37:59Z</time>
      </trkpt>
      <trkpt lat="41.629052020" lon="2.515503580">
        <ele>442.34</ele>
        <time>2016-02-28T09:38:06Z</time>
      </trkpt>
      <trkpt lat="41.629016230" lon="2.515501820">
        <ele>442.82</ele>
        <time>2016-02-28T09:38:14Z</time>
      </trkpt>
      <trkpt lat="41.628968450" lon="2.515484050">
        <ele>443.79</ele>
        <time>2016-02-28T09:38:18Z</time>
      </trkpt>
      <trkpt lat="41.628925620" lon="2.515468710">
        <ele>444.27</ele>
        <time>2016-02-28T09:38:22Z</time>
      </trkpt>
      <trkpt lat="41.628828640" lon="2.515393270">
        <ele>446.67</ele>
        <time>2016-02-28T09:38:32Z</time>
      </trkpt>
      <trkpt lat="41.628744400" lon="2.515323950">
        <ele>448.11</ele>
        <time>2016-02-28T09:38:41Z</time>
      </trkpt>
      <trkpt lat="41.628642640" lon="2.515258830">
        <ele>449.55</ele>
        <time>2016-02-28T09:38:51Z</time>
      </trkpt>
      <trkpt lat="41.628570220" lon="2.515199310">
        <ele>451.00</ele>
        <time>2016-02-28T09:38:59Z</time>
      </trkpt>
      <trkpt lat="41.628504010" lon="2.515119350">
        <ele>453.40</ele>
        <time>2016-02-28T09:39:08Z</time>
      </trkpt>
      <trkpt lat="41.628422370" lon="2.515041820">
        <ele>454.36</ele>
        <time>2016-02-28T09:39:16Z</time>
      </trkpt>
      <trkpt lat="41.628290190" lon="2.514975180">
        <ele>454.36</ele>
        <time>2016-02-28T09:39:25Z</time>
      </trkpt>
      <trkpt lat="41.628232100" lon="2.514950710">
        <ele>454.36</ele>
        <time>2016-02-28T09:39:29Z</time>
      </trkpt>
      <trkpt lat="41.628111650" lon="2.514952050">
        <ele>454.84</ele>
        <time>2016-02-28T09:39:38Z</time>
      </trkpt>
      <trkpt lat="41.628028170" lon="2.514954230">
        <ele>455.32</ele>
        <time>2016-02-28T09:39:44Z</time>
      </trkpt>
      <trkpt lat="41.627850890" lon="2.514963360">
        <ele>455.80</ele>
        <time>2016-02-28T09:39:54Z</time>
      </trkpt>
      <trkpt lat="41.627687110" lon="2.515031340">
        <ele>455.80</ele>
        <time>2016-02-28T09:40:00Z</time>
      </trkpt>
      <trkpt lat="41.627596500" lon="2.515098730">
        <ele>453.88</ele>
        <time>2016-02-28T09:40:02Z</time>
      </trkpt>
      <trkpt lat="41.627445960" lon="2.515240550">
        <ele>450.03</ele>
        <time>2016-02-28T09:40:06Z</time>
      </trkpt>
      <trkpt lat="41.627289890" lon="2.515367120">
        <ele>446.19</ele>
        <time>2016-02-28T09:40:11Z</time>
      </trkpt>
      <trkpt lat="41.627258880" lon="2.515383970">
        <ele>445.71</ele>
        <time>2016-02-28T09:40:12Z</time>
      </trkpt>
      <trkpt lat="41.627220740" lon="2.515380610">
        <ele>445.23</ele>
        <time>2016-02-28T09:40:16Z</time>
      </trkpt>
      <trkpt lat="41.627179330" lon="2.515379860">
        <ele>444.75</ele>
        <time>2016-02-28T09:40:22Z</time>
      </trkpt>
      <trkpt lat="41.626971630" lon="2.515503410">
        <ele>442.82</ele>
        <time>2016-02-28T09:40:30Z</time>
      </trkpt>
      <trkpt lat="41.626810440" lon="2.515574150">
        <ele>440.90</ele>
        <time>2016-02-28T09:40:33Z</time>
      </trkpt>
      <trkpt lat="41.626560240" lon="2.515689650">
        <ele>437.06</ele>
        <time>2016-02-28T09:40:37Z</time>
      </trkpt>
      <trkpt lat="41.626315070" lon="2.515815380">
        <ele>433.69</ele>
        <time>2016-02-28T09:40:41Z</time>
      </trkpt>
      <trkpt lat="41.626251370" lon="2.515852680">
        <ele>433.21</ele>
        <time>2016-02-28T09:40:42Z</time>
      </trkpt>
      <trkpt lat="41.626172580" lon="2.515934740">
        <ele>432.25</ele>
        <time>2016-02-28T09:40:44Z</time>
      </trkpt>
      <trkpt lat="41.626098900" lon="2.516099950">
        <ele>431.29</ele>
        <time>2016-02-28T09:40:47Z</time>
      </trkpt>
      <trkpt lat="41.625954480" lon="2.516299350">
        <ele>429.37</ele>
        <time>2016-02-28T09:40:53Z</time>
      </trkpt>
      <trkpt lat="41.625955740" lon="2.516179580">
        <ele>428.40</ele>
        <time>2016-02-28T09:40:56Z</time>
      </trkpt>
      <trkpt lat="41.626027990" lon="2.516030040">
        <ele>427.44</ele>
        <time>2016-02-28T09:40:59Z</time>
      </trkpt>
      <trkpt lat="41.626175680" lon="2.515666190">
        <ele>424.56</ele>
        <time>2016-02-28T09:41:05Z</time>
      </trkpt>
      <trkpt lat="41.626330580" lon="2.515423360">
        <ele>420.23</ele>
        <time>2016-02-28T09:41:09Z</time>
      </trkpt>
      <trkpt lat="41.626539880" lon="2.515025640">
        <ele>416.87</ele>
        <time>2016-02-28T09:41:14Z</time>
      </trkpt>
      <trkpt lat="41.626577850" lon="2.514957580">
        <ele>415.91</ele>
        <time>2016-02-28T09:41:15Z</time>
      </trkpt>
      <trkpt lat="41.626633080" lon="2.514580140">
        <ele>411.58</ele>
        <time>2016-02-28T09:41:20Z</time>
      </trkpt>
      <trkpt lat="41.626537110" lon="2.514469420">
        <ele>410.62</ele>
        <time>2016-02-28T09:41:22Z</time>
      </trkpt>
      <trkpt lat="41.626479860" lon="2.514421810">
        <ele>409.66</ele>
        <time>2016-02-28T09:41:23Z</time>
      </trkpt>
      <trkpt lat="41.626176100" lon="2.514213270">
        <ele>405.33</ele>
        <time>2016-02-28T09:41:28Z</time>
      </trkpt>
      <trkpt lat="41.625922300" lon="2.514191140">
        <ele>401.49</ele>
        <time>2016-02-28T09:41:32Z</time>
      </trkpt>
      <trkpt lat="41.625746110" lon="2.514091980">
        <ele>399.57</ele>
        <time>2016-02-28T09:41:35Z</time>
      </trkpt>
      <trkpt lat="41.625470350" lon="2.514042110">
        <ele>394.28</ele>
        <time>2016-02-28T09:41:41Z</time>
      </trkpt>
      <trkpt lat="41.625354090" lon="2.514043200">
        <ele>391.87</ele>
        <time>2016-02-28T09:41:43Z</time>
      </trkpt>
      <trkpt lat="41.625257360" lon="2.514058030">
        <ele>389.47</ele>
        <time>2016-02-28T09:41:45Z</time>
      </trkpt>
      <trkpt lat="41.625115870" lon="2.514079910">
        <ele>385.63</ele>
        <time>2016-02-28T09:41:48Z</time>
      </trkpt>
      <trkpt lat="41.624988550" lon="2.514077650">
        <ele>382.74</ele>
        <time>2016-02-28T09:41:51Z</time>
      </trkpt>
      <trkpt lat="41.624828630" lon="2.514059710">
        <ele>378.90</ele>
        <time>2016-02-28T09:41:56Z</time>
      </trkpt>
      <trkpt lat="41.624816140" lon="2.513951080">
        <ele>378.42</ele>
        <time>2016-02-28T09:42:00Z</time>
      </trkpt>
      <trkpt lat="41.624885540" lon="2.513680680">
        <ele>376.01</ele>
        <time>2016-02-28T09:42:05Z</time>
      </trkpt>
      <trkpt lat="41.624942030" lon="2.513556880">
        <ele>374.57</ele>
        <time>2016-02-28T09:42:07Z</time>
      </trkpt>
      <trkpt lat="41.625013030" lon="2.513170050">
        <ele>372.17</ele>
        <time>2016-02-28T09:42:12Z</time>
      </trkpt>
      <trkpt lat="41.624914290" lon="2.512800750">
        <ele>369.28</ele>
        <time>2016-02-28T09:42:17Z</time>
      </trkpt>
      <trkpt lat="41.624742380" lon="2.512685080">
        <ele>366.40</ele>
        <time>2016-02-28T09:42:20Z</time>
      </trkpt>
      <trkpt lat="41.624625110" lon="2.512633530">
        <ele>364.96</ele>
        <time>2016-02-28T09:42:22Z</time>
      </trkpt>
      <trkpt lat="41.624476500" lon="2.512570330">
        <ele>362.07</ele>
        <time>2016-02-28T09:42:26Z</time>
      </trkpt>
      <trkpt lat="41.624413640" lon="2.512535210">
        <ele>361.11</ele>
        <time>2016-02-28T09:42:28Z</time>
      </trkpt>
      <trkpt lat="41.624356810" lon="2.512552640">
        <ele>360.15</ele>
        <time>2016-02-28T09:42:31Z</time>
      </trkpt>
      <trkpt lat="41.624404420" lon="2.512681050">
        <ele>358.23</ele>
        <time>2016-02-28T09:42:37Z</time>
      </trkpt>
      <trkpt lat="41.624537520" lon="2.512805270">
        <ele>355.34</ele>
        <time>2016-02-28T09:42:41Z</time>
      </trkpt>
      <trkpt lat="41.624614050" lon="2.513067380">
        <ele>351.98</ele>
        <time>2016-02-28T09:42:46Z</time>
      </trkpt>
      <trkpt lat="41.624581110" lon="2.513125800">
        <ele>350.54</ele>
        <time>2016-02-28T09:42:47Z</time>
      </trkpt>
      <trkpt lat="41.624310790" lon="2.513308360">
        <ele>346.21</ele>
        <time>2016-02-28T09:42:53Z</time>
      </trkpt>
      <trkpt lat="41.624269300" lon="2.513324370">
        <ele>345.25</ele>
        <time>2016-02-28T09:42:54Z</time>
      </trkpt>
      <trkpt lat="41.624011310" lon="2.513416730">
        <ele>340.92</ele>
        <time>2016-02-28T09:43:00Z</time>
      </trkpt>
      <trkpt lat="41.623938890" lon="2.513476410">
        <ele>339.00</ele>
        <time>2016-02-28T09:43:02Z</time>
      </trkpt>
      <trkpt lat="41.623708800" lon="2.513631060">
        <ele>335.16</ele>
        <time>2016-02-28T09:43:07Z</time>
      </trkpt>
      <trkpt lat="41.623673100" lon="2.513636760">
        <ele>335.16</ele>
        <time>2016-02-28T09:43:08Z</time>
      </trkpt>
      <trkpt lat="41.623651890" lon="2.513640700">
        <ele>334.68</ele>
        <time>2016-02-28T09:43:09Z</time>
      </trkpt>
      <trkpt lat="41.623532700" lon="2.513677330">
        <ele>330.35</ele>
        <time>2016-02-28T09:43:14Z</time>
      </trkpt>
      <trkpt lat="41.623420470" lon="2.513707500">
        <ele>327.47</ele>
        <time>2016-02-28T09:43:18Z</time>
      </trkpt>
      <trkpt lat="41.623367160" lon="2.513629970">
        <ele>325.54</ele>
        <time>2016-02-28T09:43:21Z</time>
      </trkpt>
      <trkpt lat="41.623434720" lon="2.513495360">
        <ele>323.62</ele>
        <time>2016-02-28T09:43:24Z</time>
      </trkpt>
      <trkpt lat="41.623617780" lon="2.513209530">
        <ele>319.78</ele>
        <time>2016-02-28T09:43:30Z</time>
      </trkpt>
      <trkpt lat="41.623578050" lon="2.513110210">
        <ele>316.89</ele>
        <time>2016-02-28T09:43:33Z</time>
      </trkpt>
      <trkpt lat="41.623480230" lon="2.513155810">
        <ele>314.49</ele>
        <time>2016-02-28T09:43:37Z</time>
      </trkpt>
      <trkpt lat="41.623389370" lon="2.513186570">
        <ele>312.09</ele>
        <time>2016-02-28T09:43:39Z</time>
      </trkpt>
      <trkpt lat="41.623228020" lon="2.513183550">
        <ele>310.16</ele>
        <time>2016-02-28T09:43:42Z</time>
      </trkpt>
      <trkpt lat="41.623038080" lon="2.513261920">
        <ele>304.88</ele>
        <time>2016-02-28T09:43:46Z</time>
      </trkpt>
      <trkpt lat="41.623005310" lon="2.513292430">
        <ele>303.91</ele>
        <time>2016-02-28T09:43:47Z</time>
      </trkpt>
      <trkpt lat="41.622776740" lon="2.513410780">
        <ele>300.55</ele>
        <time>2016-02-28T09:43:51Z</time>
      </trkpt>
      <trkpt lat="41.622725360" lon="2.513435260">
        <ele>299.11</ele>
        <time>2016-02-28T09:43:52Z</time>
      </trkpt>
      <trkpt lat="41.622592920" lon="2.513628210">
        <ele>295.74</ele>
        <time>2016-02-28T09:43:57Z</time>
      </trkpt>
      <trkpt lat="41.622396450" lon="2.513834320">
        <ele>291.90</ele>
        <time>2016-02-28T09:44:03Z</time>
      </trkpt>
      <trkpt lat="41.622214230" lon="2.513921320">
        <ele>288.53</ele>
        <time>2016-02-28T09:44:09Z</time>
      </trkpt>
      <trkpt lat="41.622100990" lon="2.513956280">
        <ele>285.65</ele>
        <time>2016-02-28T09:44:13Z</time>
      </trkpt>
      <trkpt lat="41.622055560" lon="2.513981420">
        <ele>284.21</ele>
        <time>2016-02-28T09:44:15Z</time>
      </trkpt>
      <trkpt lat="41.621924130" lon="2.514064990">
        <ele>280.36</ele>
        <time>2016-02-28T09:44:20Z</time>
      </trkpt>
      <trkpt lat="41.621801920" lon="2.514142690">
        <ele>277.00</ele>
        <time>2016-02-28T09:44:24Z</time>
      </trkpt>
      <trkpt lat="41.621652470" lon="2.514172870">
        <ele>274.59</ele>
        <time>2016-02-28T09:44:28Z</time>
      </trkpt>
      <trkpt lat="41.621571840" lon="2.514179990">
        <ele>272.67</ele>
        <time>2016-02-28T09:44:30Z</time>
      </trkpt>
      <trkpt lat="41.621430100" lon="2.514279320">
        <ele>267.38</ele>
        <time>2016-02-28T09:44:34Z</time>
      </trkpt>
      <trkpt lat="41.621367570" lon="2.514444190">
        <ele>263.54</ele>
        <time>2016-02-28T09:44:37Z</time>
      </trkpt>
      <trkpt lat="41.621289540" lon="2.514639150">
        <ele>261.62</ele>
        <time>2016-02-28T09:44:40Z</time>
      </trkpt>
      <trkpt lat="41.621094660" lon="2.514879880">
        <ele>257.77</ele>
        <time>2016-02-28T09:44:45Z</time>
      </trkpt>
      <trkpt lat="41.620905140" lon="2.515188750">
        <ele>255.37</ele>
        <time>2016-02-28T09:44:50Z</time>
      </trkpt>
      <trkpt lat="41.620740020" lon="2.515453290">
        <ele>252.48</ele>
        <time>2016-02-28T09:44:55Z</time>
      </trkpt>
      <trkpt lat="41.620639940" lon="2.515584630">
        <ele>250.56</ele>
        <time>2016-02-28T09:44:58Z</time>
      </trkpt>
      <trkpt lat="41.620567600" lon="2.515651770">
        <ele>248.16</ele>
        <time>2016-02-28T09:45:00Z</time>
      </trkpt>
      <trkpt lat="41.620450840" lon="2.515822260">
        <ele>243.35</ele>
        <time>2016-02-28T09:45:03Z</time>
      </trkpt>
      <trkpt lat="41.620344900" lon="2.516014450">
        <ele>240.95</ele>
        <time>2016-02-28T09:45:07Z</time>
      </trkpt>
      <trkpt lat="41.620206340" lon="2.516175130">
        <ele>235.18</ele>
        <time>2016-02-28T09:45:11Z</time>
      </trkpt>
      <trkpt lat="41.620159490" lon="2.516198440">
        <ele>233.26</ele>
        <time>2016-02-28T09:45:13Z</time>
      </trkpt>
      <trkpt lat="41.620033420" lon="2.516214610">
        <ele>229.89</ele>
        <time>2016-02-28T09:45:19Z</time>
      </trkpt>
      <trkpt lat="41.619834440" lon="2.516154680">
        <ele>225.57</ele>
        <time>2016-02-28T09:45:24Z</time>
      </trkpt>
      <trkpt lat="41.619720610" lon="2.516307740">
        <ele>225.09</ele>
        <time>2016-02-28T09:45:28Z</time>
      </trkpt>
      <trkpt lat="41.619666050" lon="2.516411840">
        <ele>223.16</ele>
        <time>2016-02-28T09:45:30Z</time>
      </trkpt>
      <trkpt lat="41.619575270" lon="2.516463220">
        <ele>222.68</ele>
        <time>2016-02-28T09:45:33Z</time>
      </trkpt>
      <trkpt lat="41.619508470" lon="2.516703610">
        <ele>221.24</ele>
        <time>2016-02-28T09:45:38Z</time>
      </trkpt>
      <trkpt lat="41.619430600" lon="2.516844010">
        <ele>220.28</ele>
        <time>2016-02-28T09:45:42Z</time>
      </trkpt>
      <trkpt lat="41.619342840" lon="2.517004360">
        <ele>218.84</ele>
        <time>2016-02-28T09:45:46Z</time>
      </trkpt>
      <trkpt lat="41.619334620" lon="2.517163530">
        <ele>217.88</ele>
        <time>2016-02-28T09:45:50Z</time>
      </trkpt>
      <trkpt lat="41.619327080" lon="2.517212060">
        <ele>217.88</ele>
        <time>2016-02-28T09:45:51Z</time>
      </trkpt>
      <trkpt lat="41.619267900" lon="2.517586650">
        <ele>216.43</ele>
        <time>2016-02-28T09:45:57Z</time>
      </trkpt>
      <trkpt lat="41.619240750" lon="2.517719330">
        <ele>215.47</ele>
        <time>2016-02-28T09:45:59Z</time>
      </trkpt>
      <trkpt lat="41.619108980" lon="2.517953190">
        <ele>213.55</ele>
        <time>2016-02-28T09:46:03Z</time>
      </trkpt>
      <trkpt lat="41.619002700" lon="2.518057960">
        <ele>213.55</ele>
        <time>2016-02-28T09:46:05Z</time>
      </trkpt>
      <trkpt lat="41.618874460" lon="2.518153180">
        <ele>210.19</ele>
        <time>2016-02-28T09:46:09Z</time>
      </trkpt>
      <trkpt lat="41.618798520" lon="2.518359710">
        <ele>209.70</ele>
        <time>2016-02-28T09:46:15Z</time>
      </trkpt>
      <trkpt lat="41.618788290" lon="2.518420400">
        <ele>209.22</ele>
        <time>2016-02-28T09:46:16Z</time>
      </trkpt>
      <trkpt lat="41.618736580" lon="2.518710160">
        <ele>207.30</ele>
        <time>2016-02-28T09:46:20Z</time>
      </trkpt>
      <trkpt lat="41.618694750" lon="2.518886180">
        <ele>206.82</ele>
        <time>2016-02-28T09:46:22Z</time>
      </trkpt>
      <trkpt lat="41.618559970" lon="2.519324050">
        <ele>203.46</ele>
        <time>2016-02-28T09:46:27Z</time>
      </trkpt>
      <trkpt lat="41.618516720" lon="2.519383730">
        <ele>203.46</ele>
        <time>2016-02-28T09:46:28Z</time>
      </trkpt>
      <trkpt lat="41.618465250" lon="2.519424550">
        <ele>203.46</ele>
        <time>2016-02-28T09:46:29Z</time>
      </trkpt>
      <trkpt lat="41.617768550" lon="2.519571150">
        <ele>199.13</ele>
        <time>2016-02-28T09:46:40Z</time>
      </trkpt>
      <trkpt lat="41.617370160" lon="2.519632920">
        <ele>195.28</ele>
        <time>2016-02-28T09:46:47Z</time>
      </trkpt>
      <trkpt lat="41.617245520" lon="2.519652870">
        <ele>194.80</ele>
        <time>2016-02-28T09:46:49Z</time>
      </trkpt>
      <trkpt lat="41.616937230" lon="2.519690420">
        <ele>194.32</ele>
        <time>2016-02-28T09:46:54Z</time>
      </trkpt>
      <trkpt lat="41.616590640" lon="2.519814560">
        <ele>190.48</ele>
        <time>2016-02-28T09:47:00Z</time>
      </trkpt>
      <trkpt lat="41.616450830" lon="2.519921260">
        <ele>189.04</ele>
        <time>2016-02-28T09:47:04Z</time>
      </trkpt>
      <trkpt lat="41.616365170" lon="2.520019750">
        <ele>190.48</ele>
        <time>2016-02-28T09:47:09Z</time>
      </trkpt>
      <trkpt lat="41.616297860" lon="2.520191830">
        <ele>190.48</ele>
        <time>2016-02-28T09:47:15Z</time>
      </trkpt>
      <trkpt lat="41.616147740" lon="2.520545040">
        <ele>190.48</ele>
        <time>2016-02-28T09:47:21Z</time>
      </trkpt>
      <trkpt lat="41.616093680" lon="2.520768920">
        <ele>190.48</ele>
        <time>2016-02-28T09:47:24Z</time>
      </trkpt>
      <trkpt lat="41.616020340" lon="2.521069240">
        <ele>190.48</ele>
        <time>2016-02-28T09:47:28Z</time>
      </trkpt>
      <trkpt lat="41.616000720" lon="2.521239730">
        <ele>189.04</ele>
        <time>2016-02-28T09:47:30Z</time>
      </trkpt>
      <trkpt lat="41.615954200" lon="2.521499820">
        <ele>188.56</ele>
        <time>2016-02-28T09:47:33Z</time>
      </trkpt>
      <trkpt lat="41.615882200" lon="2.521876760">
        <ele>188.08</ele>
        <time>2016-02-28T09:47:38Z</time>
      </trkpt>
      <trkpt lat="41.615787070" lon="2.522528780">
        <ele>186.15</ele>
        <time>2016-02-28T09:47:45Z</time>
      </trkpt>
      <trkpt lat="41.615675420" lon="2.523215930">
        <ele>183.27</ele>
        <time>2016-02-28T09:47:52Z</time>
      </trkpt>
      <trkpt lat="41.615610800" lon="2.524008110">
        <ele>180.87</ele>
        <time>2016-02-28T09:48:00Z</time>
      </trkpt>
      <trkpt lat="41.615550280" lon="2.524663150">
        <ele>178.46</ele>
        <time>2016-02-28T09:48:06Z</time>
      </trkpt>
      <trkpt lat="41.615506190" lon="2.525576950">
        <ele>175.58</ele>
        <time>2016-02-28T09:48:14Z</time>
      </trkpt>
      <trkpt lat="41.615551960" lon="2.526345070">
        <ele>172.69</ele>
        <time>2016-02-28T09:48:21Z</time>
      </trkpt>
      <trkpt lat="41.615552880" lon="2.526993490">
        <ele>170.77</ele>
        <time>2016-02-28T09:48:27Z</time>
      </trkpt>
      <trkpt lat="41.615388260" lon="2.527954140">
        <ele>167.89</ele>
        <time>2016-02-28T09:48:35Z</time>
      </trkpt>
      <trkpt lat="41.615238810" lon="2.528713120">
        <ele>165.48</ele>
        <time>2016-02-28T09:48:42Z</time>
      </trkpt>
      <trkpt lat="41.615211820" lon="2.528900290">
        <ele>165.00</ele>
        <time>2016-02-28T09:48:44Z</time>
      </trkpt>
      <trkpt lat="41.615188940" lon="2.529079410">
        <ele>164.52</ele>
        <time>2016-02-28T09:48:46Z</time>
      </trkpt>
      <trkpt lat="41.615173760" lon="2.529540160">
        <ele>161.64</ele>
        <time>2016-02-28T09:48:51Z</time>
      </trkpt>
      <trkpt lat="41.615161280" lon="2.530430240">
        <ele>160.20</ele>
        <time>2016-02-28T09:49:00Z</time>
      </trkpt>
      <trkpt lat="41.615135880" lon="2.530827370">
        <ele>158.27</ele>
        <time>2016-02-28T09:49:04Z</time>
      </trkpt>
      <trkpt lat="41.615087180" lon="2.531264740">
        <ele>156.83</ele>
        <time>2016-02-28T09:49:09Z</time>
      </trkpt>
      <trkpt lat="41.615182480" lon="2.531674280">
        <ele>154.91</ele>
        <time>2016-02-28T09:49:14Z</time>
      </trkpt>
      <trkpt lat="41.615197650" lon="2.532067390">
        <ele>152.99</ele>
        <time>2016-02-28T09:49:18Z</time>
      </trkpt>
      <trkpt lat="41.615117690" lon="2.532449100">
        <ele>152.51</ele>
        <time>2016-02-28T09:49:22Z</time>
      </trkpt>
      <trkpt lat="41.614847120" lon="2.533406820">
        <ele>150.10</ele>
        <time>2016-02-28T09:49:32Z</time>
      </trkpt>
      <trkpt lat="41.614633970" lon="2.534120370">
        <ele>148.18</ele>
        <time>2016-02-28T09:49:39Z</time>
      </trkpt>
      <trkpt lat="41.614396930" lon="2.534840790">
        <ele>145.78</ele>
        <time>2016-02-28T09:49:46Z</time>
      </trkpt>
      <trkpt lat="41.614260890" lon="2.535255870">
        <ele>144.34</ele>
        <time>2016-02-28T09:49:50Z</time>
      </trkpt>
      <trkpt lat="41.613951260" lon="2.536126750">
        <ele>141.45</ele>
        <time>2016-02-28T09:49:59Z</time>
      </trkpt>
      <trkpt lat="41.613923520" lon="2.536212240">
        <ele>140.97</ele>
        <time>2016-02-28T09:50:00Z</time>
      </trkpt>
      <trkpt lat="41.613827380" lon="2.536398400">
        <ele>140.01</ele>
        <time>2016-02-28T09:50:03Z</time>
      </trkpt>
      <trkpt lat="41.613683380" lon="2.536643160">
        <ele>138.57</ele>
        <time>2016-02-28T09:50:09Z</time>
      </trkpt>
      <trkpt lat="41.613653200" lon="2.536702920">
        <ele>138.57</ele>
        <time>2016-02-28T09:50:11Z</time>
      </trkpt>
      <trkpt lat="41.613615650" lon="2.536810210">
        <ele>138.57</ele>
        <time>2016-02-28T09:50:13Z</time>
      </trkpt>
      <trkpt lat="41.613333180" lon="2.537228800">
        <ele>137.61</ele>
        <time>2016-02-28T09:50:21Z</time>
      </trkpt>
      <trkpt lat="41.613059430" lon="2.537541700">
        <ele>135.20</ele>
        <time>2016-02-28T09:50:27Z</time>
      </trkpt>
      <trkpt lat="41.612691210" lon="2.537982580">
        <ele>134.24</ele>
        <time>2016-02-28T09:50:34Z</time>
      </trkpt>
      <trkpt lat="41.612426340" lon="2.538330940">
        <ele>133.76</ele>
        <time>2016-02-28T09:50:39Z</time>
      </trkpt>
      <trkpt lat="41.612052180" lon="2.538934010">
        <ele>130.88</ele>
        <time>2016-02-28T09:50:47Z</time>
      </trkpt>
      <trkpt lat="41.611982690" lon="2.539048090">
        <ele>130.40</ele>
        <time>2016-02-28T09:50:49Z</time>
      </trkpt>
      <trkpt lat="41.611869620" lon="2.539043480">
        <ele>129.92</ele>
        <time>2016-02-28T09:50:53Z</time>
      </trkpt>
      <trkpt lat="41.611806080" lon="2.538884810">
        <ele>129.92</ele>
        <time>2016-02-28T09:50:57Z</time>
      </trkpt>
      <trkpt lat="41.611762580" lon="2.538778110">
        <ele>131.36</ele>
        <time>2016-02-28T09:51:01Z</time>
      </trkpt>
      <trkpt lat="41.611629640" lon="2.538767210">
        <ele>132.32</ele>
        <time>2016-02-28T09:51:06Z</time>
      </trkpt>
      <trkpt lat="41.611235530" lon="2.538802330">
        <ele>129.43</ele>
        <time>2016-02-28T09:51:13Z</time>
      </trkpt>
      <trkpt lat="41.611124220" lon="2.538819520">
        <ele>128.95</ele>
        <time>2016-02-28T09:51:15Z</time>
      </trkpt>
      <trkpt lat="41.611076100" lon="2.538824710">
        <ele>128.95</ele>
        <time>2016-02-28T09:51:16Z</time>
      </trkpt>
      <trkpt lat="41.610744930" lon="2.538991010">
        <ele>127.99</ele>
        <time>2016-02-28T09:51:22Z</time>
      </trkpt>
      <trkpt lat="41.610413010" lon="2.539195110">
        <ele>126.55</ele>
        <time>2016-02-28T09:51:29Z</time>
      </trkpt>
      <trkpt lat="41.610064910" lon="2.539403400">
        <ele>125.59</ele>
        <time>2016-02-28T09:51:35Z</time>
      </trkpt>
      <trkpt lat="41.609826280" lon="2.539531060">
        <ele>124.63</ele>
        <time>2016-02-28T09:51:41Z</time>
      </trkpt>
      <trkpt lat="41.609657550" lon="2.539650330">
        <ele>123.67</ele>
        <time>2016-02-28T09:51:47Z</time>
      </trkpt>
      <trkpt lat="41.609620170" lon="2.539663490">
        <ele>123.67</ele>
        <time>2016-02-28T09:51:48Z</time>
      </trkpt>
      <trkpt lat="41.609279950" lon="2.539878820">
        <ele>121.74</ele>
        <time>2016-02-28T09:51:56Z</time>
      </trkpt>
      <trkpt lat="41.609180700" lon="2.540019050">
        <ele>120.30</ele>
        <time>2016-02-28T09:52:00Z</time>
      </trkpt>
      <trkpt lat="41.609112980" lon="2.540212000">
        <ele>119.34</ele>
        <time>2016-02-28T09:52:07Z</time>
      </trkpt>
      <trkpt lat="41.609091180" lon="2.540279480">
        <ele>119.34</ele>
        <time>2016-02-28T09:52:09Z</time>
      </trkpt>
      <trkpt lat="41.609125970" lon="2.540312000">
        <ele>119.34</ele>
        <time>2016-02-28T09:52:14Z</time>
      </trkpt>
      <trkpt lat="41.609114910" lon="2.540218120">
        <ele>119.34</ele>
        <time>2016-02-28T09:52:18Z</time>
      </trkpt>
      <trkpt lat="41.609129320" lon="2.540172020">
        <ele>119.34</ele>
        <time>2016-02-28T09:52:23Z</time>
      </trkpt>
      <trkpt lat="41.609127650" lon="2.540169250">
        <ele>119.34</ele>
        <time>2016-02-28T09:52:30Z</time>
      </trkpt>
      <trkpt lat="41.609122370" lon="2.540171690">
        <ele>120.78</ele>
        <time>2016-02-28T09:52:40Z</time>
      </trkpt>
      <trkpt lat="41.609118680" lon="2.540194570">
        <ele>119.82</ele>
        <time>2016-02-28T09:52:52Z</time>
      </trkpt>
      <trkpt lat="41.609111720" lon="2.540221390">
        <ele>119.82</ele>
        <time>2016-02-28T09:53:06Z</time>
      </trkpt>
      <trkpt lat="41.609096630" lon="2.540222560">
        <ele>119.82</ele>
        <time>2016-02-28T09:53:15Z</time>
      </trkpt>
      <trkpt lat="41.609092360" lon="2.540215860">
        <ele>119.82</ele>
        <time>2016-02-28T09:53:24Z</time>
      </trkpt>
      <trkpt lat="41.609092940" lon="2.540182160">
        <ele>119.82</ele>
        <time>2016-02-28T09:53:31Z</time>
      </trkpt>
      <trkpt lat="41.609100400" lon="2.540177640">
        <ele>119.82</ele>
        <time>2016-02-28T09:53:40Z</time>
      </trkpt>
      <trkpt lat="41.609111640" lon="2.540160790">
        <ele>119.82</ele>
        <time>2016-02-28T09:53:51Z</time>
      </trkpt>
      <trkpt lat="41.609114650" lon="2.540181910">
        <ele>119.82</ele>
        <time>2016-02-28T09:54:09Z</time>
      </trkpt>
    </trkseg>
  </trk>
</gpx>
